     2.11           OBSERVATION DATA    G (GPS)             RINEX VERSION / TYPE
teqc 2010Oct21 OPUS Account 20111025 18:26:12UTC            PGM / RUN BY / DATE
2936                                                        MARKER NAME
1130                                                        MARKER NUMBER
CSMIDDLETON NGS                                             OBSERVER / AGENCY
0220390632 TRIMBLE R7 2.28                                  REC # / TYPE / VERS
60183425 TRM41249.00 NONE                                   ANT # / TYPE
  -739563.3083 -5474851.4051  3177068.7800                  APPROX POSITION XYZ
        2.0010        0.0000        0.0000                  ANTENNA: DELTA H/E/N
     1     1                                                WAVELENGTH FACT L1/2
     5    L1    L2    C1    P1    P2                        # / TYPES OF OBSERV
    15                                                      LEAP SECONDS
  2011     7    26    16    42    0.0000000     GPS         TIME OF FIRST OBS
                                                            END OF HEADER
 11  7 26 16 42  0.0000000  0 10G03G06G07G10G13G16G19G20G23G32
    -58372.21158    -44615.50856  21230679.8524                   21230678.3094
      5756.28957      -416.00855  22101838.8284                   22101837.8874
    -84417.68757    -63884.73454  23721155.6724                   23721154.8984
    -56423.88315                  24402679.016
    -99960.49258    -73321.45756  21156083.1334                   21156080.6524
    156111.96958    103207.91056  21215031.8594                   21215028.9454
   -140740.87957   -101456.09455  23002438.1484                   23002435.7194
    189755.27357    128984.94954  22888306.7894                   22888305.7584
     -6148.67658     -8629.02357  20107625.5314                   20107620.7344
    204560.00857    139613.80553  23804014.0634                   23804014.7194
 11  7 26 16 42 30.0000000  0 10G03G06G07G10G13G16G19G20G23G32
    -88653.26248    -68211.15646  21224917.5474                   21224916.0944
      9103.32848      2192.04345  22102475.5164                   22102474.8094
   -129842.75047    -99280.83245  23712511.2194                   23712510.6174
    -92395.398 5                  24395833.742
   -152377.92248   -114166.23046  21146108.5234                   21146106.2504
    238027.38748    167038.06646  21230619.7664                   21230617.4774
   -214726.92647   -159107.53145  22988358.7114                   22988356.3874
    289056.98847    206362.79345  22907203.3284                   22907202.1684
     -9102.64848    -10930.84447  20107063.3364                   20107058.7734
    313755.70746    224701.22343  23824792.3054                   23824793.4184
 11  7 26 16 43  0.0000000  0 10G03G06G07G10G13G16G19G20G23G32
   -118188.16448    -91225.36746  21219297.0474                   21219295.8834
     13202.18847      5385.94545  22103255.9144                   22103254.2464
   -175019.11746   -134483.13344  23703913.2344                   23703913.3674
   -127678.891 5                  24389120.148
   -204275.86348   -154606.19946  21136232.6414                   21136230.4384
    320509.56348    231309.84846  21246315.9454                   21246313.3834
   -288321.01247   -216453.55145  22974354.2274                   22974351.9844
    388751.00047    284046.34445  22926174.4224                   22926172.9304
    -11346.27348    -12679.15247  20106636.3754                   20106631.9774
    423217.48447    309995.96543  23845622.8364                   23845623.9924
 11  7 26 16 43 30.0000000  0 10G03G06G07G10G13G16G19G20G23G32
   -146990.21548   -113668.50046  21213816.5314                   21213815.1524
     18038.45747      9154.47345  22104175.8204                   22104174.4534
   -219962.68046   -169504.05944  23695361.6644                   23695360.1564
   -162288.539 5                  24382533.758
   -255667.40248   -194651.57046  21126453.5164                   21126450.5084
    403540.30148    296009.07846  21262116.1254                   21262113.1884
   -361535.25847   -273503.55945  22960421.5164                   22960419.8014
    488818.59047    362020.98045  22945217.1884                   22945215.7304
    -12893.22348    -13884.60247  20106341.9534                   20106337.5434
    532927.30147    395483.98843  23866500.1564                   23866501.1024
 11  7 26 16 44  0.0000000  0 10G03G06G07G10G13G16G19G20G23G32
   -175076.32448   -135553.80946  21208471.8594                   21208470.4574
     23594.05547     13483.46545  22105233.0944                   22105231.3444
   -264692.54747   -204358.52744  23686849.7034                   23686848.3634
   -196241.477 6                  24376072.094
   -306568.54748   -234314.82046  21116766.9064                   21116764.1644
    487098.52048    361119.34846  21278016.6564                   21278014.0824
   -434384.87947   -330269.47345  22946559.3524                   22946557.0004
    589238.18447    440269.91844  22964326.0084                   22964325.4734
    -13760.91448    -14560.75447  20106176.9454                   20106172.2664
    642863.58247    481148.46943  23887420.4844                   23887421.0124
 11  7 26 16 44 30.0000000  0 10G03G06G07G10G13G16G19G20G23G32
   -202459.19148   -156891.07046  21203260.8914                   21203259.8244
     29855.15247     18362.25845  22106424.5784                   22106422.9614
   -309224.07047   -239058.42244  23678376.0314                   23678373.7854
   -229552.176 6                  24369733.625
   -356992.16448   -273605.95746  21107171.7194                   21107169.2894
    571166.15248    426626.54746  21294014.3834                   21294011.4454
   -506882.01247   -386760.68445  22932762.8674                   22932761.0004
    689991.58247    518778.94944  22983498.6174                   22983498.0394
    -13962.66448    -14717.99247  20106138.2734                   20106133.9024
    753008.68047    566975.68043  23908380.6414                   23908381.4104
 11  7 26 16 45  0.0000000  0 10G03G06G07G10G13G16G19G20G23G32
   -229153.55548   -177691.88746  21198181.4064                   21198180.0864
     36805.37547     23777.97745  22107747.4454                   22107745.5634
   -353574.80147   -273617.42644  23669935.9064                   23669934.7664
   -262236.164 6                  24363513.133
   -406952.66848   -312536.23446  21097664.6094                   21097661.8914
    655723.15248    492515.09046  21310104.9924                   21310101.9454
   -579040.43047   -442988.00045  22919031.6954                   22919029.3284
    791058.40247    597532.21944  23002731.1954                   23002730.0554
    -13514.25448    -14368.60947  20106223.8524                   20106219.1484
    863342.66047    652950.09843  23929376.2274                   23929376.8014
 11  7 26 16 45 30.0000000  0 10G03G06G07G10G13G16G19G20G23G32
   -255160.39848   -197956.96946  21193231.8914                   21193230.5744
     44442.52347     29728.97345  22109199.9844                   22109199.4454
   -397748.22346   -308038.22344  23661529.8444                   23661528.9534
   -294295.379 6                  24357414.258
   -456451.09848   -351106.44546  21088244.9384                   21088242.6374
    740763.64848    558780.37946  21326287.9534                   21326285.1484
   -650860.25047   -498951.47345  22905364.6644                   22905362.2584
    892432.23447    676524.71944  23022021.7194                   23022021.5824
    -12417.34448    -13513.89547  20106432.5084                   20106427.9694
    973859.30147    739066.79744  23950407.5864                   23950407.4454
 11  7 26 16 46  0.0000000  0 10G03G06G07G10G13G16G19G20G23G32
   -280501.48448   -217703.25446  21188409.6564                   21188408.0514
     52743.14847     36196.99245  22110779.9774                   22110778.4924
   -441768.59447   -342339.75044  23653153.1254                   23653151.5514
   -325752.711 6                  24351426.820
   -505508.72348   -389333.18446  21078909.7974                   21078907.2774
    826261.12948    625401.76246  21342557.4304                   21342553.9534
   -722362.27747   -554667.28945  22891758.7424                   22891755.9454
    994086.24647    755735.50844  23041366.0234                   23041365.6644
    -10694.42248    -12171.38747  20106760.6644                   20106756.2154
   1084532.33646    825305.37944  23971468.2814                   23971468.6254
 11  7 26 16 46 30.0000000  0 10G03G06G07G10G13G16G19G20G23G32
   -305179.60548   -236932.97346  21183713.8364                   21183712.1294
     61703.78548     43179.30545  22112485.2734                   22112483.9064
   -485640.98847   -376525.99644  23644805.3134                   23644803.0394
   -356611.594 6                  24345554.570
   -554127.74248   -427218.14546  21069658.0394                   21069655.5234
    912208.26248    692373.50846  21358912.4774                   21358909.7074
   -793547.59047   -610136.35245  22878212.4454                   22878209.4844
   1096012.84847    835158.75044  23060762.0784                   23060761.2304
     -8348.39848    -10343.34847  20107207.1024                   20107202.5594
   1195354.29346    911660.02043  23992555.9774                   23992557.5664
 11  7 26 16 47  0.0000000  0 10G03G06G07G10G13G16G19G20G23G32
   -329214.52748   -255661.46546  21179140.1884                   21179138.2704
     71303.48447     50659.59845  22114312.1484                   22114310.6134
   -529387.72747   -410614.34444  23636479.8754                   23636478.2464
   -386892.629 6                  24339793.773
   -602327.41848   -464776.33246  21060485.9454                   21060483.5824
    998580.35948    759676.41046  21375348.3594                   21375345.4184
   -864434.81647   -665373.11745  22864723.0234                   22864720.3134
   1198186.90647    914774.80544  23080205.3594                   23080204.8244
     -5399.75848     -8045.73847  20107768.2504                   20107763.3834
   1306300.90246    998111.76643  24013668.5474                   24013669.5394
 11  7 26 16 47 30.0000000  0 10G03G06G07G10G13G16G19G20G23G32
   -352609.52748   -273891.32046  21174688.6254                   21174686.7624
     81537.32047     58634.02345  22116259.4924                   22116258.1764
   -573014.16847   -444609.00844  23628177.9224                   23628176.0124
   -416600.418 6                  24334140.477
   -650110.87548   -502010.21146  21051393.2664                   21051390.6024
   1085369.38348    827304.18046  21391864.1414                   21391860.9774
   -935026.38347   -720379.49245  22851289.9064                   22851286.8014
   1300599.89147    994577.03544  23099694.4304                   23099693.5514
     -1852.32048     -5281.53547  20108443.4614                   20108438.4694
   1417363.59446   1084653.96543  24034803.2194                   24034805.0744
 11  7 26 16 48  0.0000000  0 10G03G06G07G10G13G16G19G20G23G32
   -375370.96148   -291627.49646  21170357.1094                   21170355.2814
     92397.66447     67096.59845  22118325.6484                   22118324.4184
   -616529.43747   -478517.00044  23619896.8834                   23619895.3754
   -445742.05946   -345860.54353  24328593.8204                   24328592.8404
   -697484.18748   -538924.48446  21042378.1724                   21042376.3594
   1172563.80148    895247.83246  21408456.6254                   21408453.9184
  -1005327.26247   -775159.37145  22837911.9774                   22837909.3364
   1403240.23047   1074556.41844  23119226.1724                   23119225.1644
      2286.60948     -2056.42647  20109230.8524                   20109226.1454
   1528531.35246   1171278.00043  24055957.9304                   24055959.2504
 11  7 26 16 48 30.0000000  0 10G03G06G07G10G13G16G19G20G23G32
   -397507.14148   -308876.47346  21166144.3914                   21166142.8244
    103874.97347     76039.96145  22120509.9064                   22120508.6134
   -659944.11347   -512346.55944  23611636.1174                   23611634.4614
   -474327.09846   -368134.66842  24323155.4614                   24323153.6024
   -744455.18448   -575525.26646  21033439.5394                   21033437.6054
   1260150.68448    963497.32446  21425123.8204                   21425121.1094
  -1075344.75847   -829718.42645  22824587.8284                   22824585.1334
   1506094.77047   1154702.71544  23138798.7894                   23138798.2974
      7008.14548      1622.66447  20110129.1094                   20110124.8164
   1639791.23046   1257973.86743  24077130.6094                   24077131.8404
 11  7 26 16 49  0.0000000  0 10G03G06G07G10G13G16G19G20G23G32
   -419029.35548   -325647.03546  21162049.3984                   21162047.1054
    115956.54347     85454.15645  22122809.0084                   22122807.3404
   -703271.80147   -546108.32845  23603391.0554                   23603389.8984
   -502367.47346   -389984.31242  24317817.9224                   24317817.2504
   -791034.41448   -611820.77346  21024576.1334                   21024573.4414
   1348113.94148   1032040.08646  21441862.7664                   21441859.7734
  -1145088.97347   -884064.52345  22811316.2734                   22811313.0984
   1609147.07847   1235003.11744  23158409.1884                   23158407.7974
     12300.47748      5746.52047  20111136.3594                   20111131.7734
   1751127.15646   1344729.02343  24098317.0944                   24098317.5234
 11  7 26 16 49 30.0000000  0 10G03G06G07G10G13G16G19G20G23G32
   -439947.84848   -341947.15646  21158068.5164                   21158066.7384
    128631.01247     95330.35545  22125221.2734                   22125219.6174
   -746524.84847   -579811.96945  23595159.7974                   23595158.8984
   -529874.39546   -411418.29343  24312583.7424                   24312583.4614
   -837231.74648   -647818.69546  21015785.1254                   21015782.8244
   1436438.89148   1100864.68846  21458670.4304                   21458667.5274
  -1214568.85947   -938204.64545  22798094.8444                   22798092.0084
   1712381.72746   1315445.60244  23178053.7274                   23178053.3984
     18153.00848     10306.91447  20112250.1954                   20112245.6454
   1862524.51247   1431532.01243  24119516.0784                   24119516.5234
 11  7 26 16 50  0.0000000  0 10G03G06G07G10G13G16G19G20G23G32
   -460253.40248   -357769.66446  21154204.5314                   21154202.6334
    141906.22747    105674.66045  22127747.2194                   22127745.8014
   -789696.53946   -613452.22744  23586944.2504                   23586943.3014
   -556839.68745   -432430.21942  24307451.7114                   24307452.3164
   -883037.37148   -683511.39846  21007068.5704                   21007065.6024
   1525129.63748   1169974.32846  21475547.7664                   21475544.7774
  -1283773.85947   -992130.57045  22784925.2894                   22784923.1484
   1815802.75847   1396033.32044  23197734.7664                   23197733.0704
     24573.94148     15310.21547  20113471.9844                   20113467.5084
   1973987.34446   1518386.01243  24140725.5084                   24140727.3794
 11  7 26 16 50 30.0000000  0 10G03G06G07G10G13G16G19G20G23G32
   -479959.45348   -373125.02346  21150454.5234                   21150452.7194
    155767.37547    116475.57445  22130384.6884                   22130383.3404
   -832802.71146   -647041.45344  23578741.8444                   23578739.8364
   -583277.53146   -453031.11342  24302421.5634                   24302421.2934
   -928464.50048   -718909.16846  20998424.3524                   20998421.4064
   1614168.37948   1239355.13746  21492491.2194                   21492488.4494
  -1352716.48847  -1045852.02345  22771805.7894                   22771803.3674
   1919391.75847   1476751.91044  23217446.5554                   23217446.1884
     31549.34048     20745.56347  20114799.6094                   20114794.8444
   2085497.90646   1605277.16044  24161946.0084                   24161947.4304
 11  7 26 16 51  0.0000000  0 10G03G06G07G10G13G16G19G20G23G32
   -499061.87948   -388010.05546  21146819.1094                   21146818.1374
    170217.13747    127735.10545  22133135.1094                   22133133.1094
   -875841.30147   -680577.97744  23570551.9454                   23570550.0394
   -609185.03945   -473218.78942  24297490.8754                   24297490.5944
   -973508.48448   -754008.36746  20989852.5164                   20989849.7464
   1703554.25848   1309006.44946  21509500.7734                   21509497.7424
  -1421391.11747  -1099364.66445  22758737.5004                   22758735.1454
   2023148.11346   1557600.91044  23237191.2194                   23237190.9104
     39082.62548     26615.64147  20116232.9694                   20116228.8874
   2197055.47746   1692205.00043  24183174.8594                   24183175.8134
 11  7 26 16 51 30.0000000  0 10G03G06G07G10G13G16G19G20G23G32
   -517563.39547   -402426.82045  21143298.5474                   21143296.8554
    185251.67247    139450.29345  22135995.5394                   22135993.8524
   -918817.27347   -714065.70744  23562373.6884                   23562372.7114
   -634565.85245   -492996.05142  24292661.7274                   24292661.6414
  -1018171.21948   -788810.52346  20981353.6804                   20981350.2934
   1793279.88348   1378922.48046  21526575.4454                   21526572.2304
  -1489799.03147  -1152669.46145  22745719.5474                   22745717.6294
   2127063.95746   1638574.17244  23256965.1804                   23256964.7194
     47170.51248     32917.87547  20117772.1024                   20117767.7304
   2308653.12547   1779164.05943  24204411.2194                   24204412.2814
 11  7 26 16 52  0.0000000  0 10G03G06G07G10G13G16G19G20G23G32
  -2110887.37148  -1643977.96945  20840098.5634                   20840096.8834
  -1374552.59447  -1075981.61745  21839174.4844                   21839173.3714
  -2537156.72346  -1975109.37544  23254413.8204                   23254412.5044
  -2234844.39545  -1739966.31642  23988137.8284                   23988138.5314
  -2637876.61348  -2050918.63346  20673133.8594                   20673131.1884
    307921.30548    221500.18046  21243920.9774                   21243917.6884
  -3133363.89147  -2433369.27745  22432959.3444                   22432957.4844
    655715.14147    492068.51244  22976977.6884                   22976976.3094
  -1519610.05548  -1187950.11747  19819623.6334                   19819619.1524
    844866.92646    638551.28543  23925861.5704                   23925863.5824
 11  7 26 16 52 30.0000000  0 10G03G06G07G10G13G16G19G20G23G32
  -2128204.25447  -1657471.64845  20836803.2894                   20836802.0474
  -1358369.50447  -1063371.39845  21842254.4304                   21842252.8834
  -2580030.37147  -2008517.35944  23246254.4144                   23246254.1454
  -2259191.39145  -1758937.93742  23983505.7194                   23983505.3484
  -2681792.73848  -2085138.99246  20664777.2114                   20664774.3164
    398296.17248    291922.13746  21261118.7424                   21261115.0784
  -3201251.18047  -2486268.39545  22420041.3754                   22420038.5904
    759918.42647    573265.76644  22996806.9064                   22996806.2584
  -1510431.12548  -1180797.72747  19821370.2194                   19821365.8094
    956513.67246    725548.60243  23947107.3674                   23947109.3914
 11  7 26 16 53  0.0000000  0 10G03G06G07G10G13G16G19G20G23G32
  -2144935.83247  -1670509.25446  20833619.5314                   20833618.1484
  -1341621.18047  -1050320.77745  21845441.5314                   21845439.8984
  -2622863.04347  -2041893.43744  23238104.7424                   23238103.2194
  -2283030.13345  -1777513.56242  23978968.9614                   23978969.4384
  -2725340.74648  -2119072.51646  20656489.6644                   20656487.3364
    488981.82848    362586.25446  21278375.4694                   21278372.1524
  -3268883.23047  -2538968.62945  22407171.1334                   22407168.4614
    864250.77747    654563.60244  23016660.7584                   23016659.6564
  -1500714.66848  -1173226.48047  19823219.1484                   19823214.8754
   1068171.42246    812554.46943  23968355.4064                   23968357.1684
 11  7 26 16 53 30.0000000  0 10G03G06G07G10G13G16G19G20G23G32
  -2161083.97747  -1683092.21945  20830546.5864                   20830545.7854
  -1324310.71947  -1036832.12945  21848735.5004                   21848734.2734
  -2665658.97747  -2075240.93044  23229960.4454                   23229959.6254
  -2306363.27045  -1795695.18442  23974529.8054                   23974528.7384
  -2768522.73447  -2152720.82046  20648272.5784                   20648270.3364
    579971.58648    433487.32846  21295690.3594                   21295687.4574
  -3336260.57047  -2591470.39845  22394349.4774                   22394346.2854
    968705.51247    735956.79344  23036538.1884                   23036537.0164
  -1490463.24248  -1165238.35547  19825170.1414                   19825165.7664
   1179833.70746    899563.86343  23989605.0084                   23989606.4734
 11  7 26 16 54  0.0000000  0 10G03G06G07G10G13G16G19G20G23G32
  -2176647.05148  -1695219.29346  20827584.9924                   20827583.7384
  -1306437.84447  -1022905.22745  21852136.4774                   21852134.9144
  -2708418.96947  -2108560.36744  23221823.9694                   23221821.7704
  -2329190.24245  -1813482.43442  23970185.8594                   23970184.5274
  -2811336.24248  -2186081.98846  20640125.5164                   20640123.4414
    671262.84848    504623.34046  21313062.3284                   21313059.6844
  -3403380.03147  -2643771.23445  22381577.2584                   22381574.3794
   1073279.85947    817443.20344  23056437.9454                   23056437.1604
  -1479675.82848  -1156832.59847  19827223.0474                   19827218.5554
   1291497.67646    986574.57843  24010853.5704                   24010855.3794
 11  7 26 16 54 30.0000000  0 10G03G06G07G10G13G16G19G20G23G32
  -2191618.66848  -1706885.46146  20824736.4064                   20824734.4804
  -1287997.63347  -1008536.19945  21855645.3204                   21855644.1094
  -2751137.92247  -2141847.83244  23213693.8594                   23213692.4494
  -2351505.10545  -1830870.86342  23965938.8204                   23965936.6844
  -2853774.34848  -2219150.64146  20632050.0164                   20632047.6174
    762857.43848    575995.74246  21330492.4844                   21330489.4184
  -3470233.64147  -2695864.87945  22368855.7424                   22368852.9964
   1177975.19547    899023.84844  23076360.7664                   23076359.7274
  -1468346.59048  -1148004.65647  19829378.9384                   19829374.3444
   1403165.20746   1073588.05543  24032103.1484                   24032104.5944
 11  7 26 16 55  0.0000000  0 10G03G06G07G10G13G16G19G20G23G32
  -2206009.22347  -1718098.89146  20821997.9924                   20821996.0434
  -1269001.71947   -993734.20745  21859260.6094                   21859258.7304
  -2793828.44147  -2175113.09044  23205570.4384                   23205568.9654
  -2373319.160 5                  23961787.477
  -2895846.55948  -2251934.18046  20624043.5864                   20624041.2344
    854740.05548    647592.54346  21347977.1884                   21347974.1884
  -3536830.53947  -2747758.53945  22356182.4844                   22356179.2704
   1282776.13747    980686.84044  23096304.0634                   23096302.9804
  -1456486.65648  -1138763.14847  19831635.7194                   19831631.0984
   1514821.80546   1160593.02743  24053350.5084                   24053352.1374
 11  7 26 16 55 30.0000000  0 10G03G06G07G10G13G16G19G20G23G32
  -2219816.91847  -1728858.13346  20819370.7114                   20819368.4964
  -1249449.58647   -978498.78945  21862980.7974                   21862979.4454
  -2836490.70747  -2208356.39544  23197452.3594                   23197449.7384
  -2394631.820 5                  23957732.508
  -2937550.34048  -2284430.62946  20616107.7194                   20616105.3094
    946908.38748    719411.99646  21365515.9454                   21365512.7854
  -3603167.57047  -2799449.69145  22343559.1954                   22343555.4884
   1387679.78546   1062429.84044  23116265.9614                   23116264.6884
  -1444094.34048  -1129106.81247  19833993.9144                   19833989.6094
   1626464.60946   1247587.23843  24074595.7114                   24074597.4614
 11  7 26 16 56  0.0000000  0 10G03G06G07G10G13G16G19G20G23G32
  -2233044.05547  -1739164.98846  20816853.4144                   20816851.2154
  -1229344.56647   -962832.53145  21866806.6884                   21866805.1914
  -2879128.59047  -2241580.74244  23189338.4614                   23189336.2814
  -2415446.105 5                  23953771.719
  -2978886.95748  -2316640.98446  20608241.7584                   20608239.0394
   1039356.15248    791449.18846  21383108.5394                   21383105.5554
  -3669244.81248  -2850938.40245  22330985.3134                   22330981.8524
   1492679.53547   1144247.69544  23136247.2194                   23136246.3634
  -1431172.02748  -1119037.50047  19836452.9614                   19836448.5314
   1738087.73846   1334566.12543  24095837.4224                   24095838.3284
 11  7 26 16 56 30.0000000  0 10G03G06G07G10G13G16G19G20G23G32
  -2245685.75447  -1749015.65246  20814448.0944                   20814446.0314
  -1208683.29347   -946732.85245  21870738.3834                   21870737.1604
  -2921739.52046  -2274784.02344  23181229.7894                   23181228.4924
  -2435758.113 5                  23949906.297
  -3019850.81648  -2348560.86346  20600446.4694                   20600444.2774
   1132083.74648    863704.43046  21400753.5394                   21400751.0314
  -3735056.00448  -2902219.81245  22318461.4384                   22318458.1134
   1597775.48047   1226140.53544  23156246.1024                   23156246.1914
  -1417715.91048  -1108552.23047  19839013.8284                   19839009.2704
   1849691.25046   1421529.72343  24117074.7584                   24117075.8054
 11  7 26 16 57  0.0000000  0 10G03G06G07G10G13G16G19G20G23G32
  -2257751.07047  -1758417.19146  20812151.7194                   20812150.1764
  -1187476.29747   -930207.94545  21874773.8444                   21874772.5274
  -2964334.43747  -2307974.80944  23173124.4614                   23173123.5744
  -2455577.902 5                  23946134.031
  -3060450.48048  -2380196.97346  20592720.9844                   20592718.1564
   1225077.28148    936166.89846  21418449.9844                   21418447.2034
  -3800609.07447  -2953300.07045  22305987.0634                   22305984.1954
   1702953.47746   1308097.28544  23176261.1954                   23176260.1564
  -1403735.82448  -1097658.68447  19841674.0554                   19841669.5944
   1961261.82446   1508467.67643  24138306.3204                   24138307.7624
 11  7 26 16 57 30.0000000  0 10G03G06G07G10G13G16G19G20G23G32
  -2269238.22347  -1767368.21946  20809965.7894                   20809964.4384
  -1165723.17247   -913257.46945  21878913.4064                   21878912.3204
  -3006913.46547  -2341153.23445  23165022.2034                   23165020.5664
  -2474904.49645  -1927027.99252  23942455.8054                   23942454.0824
  -3100683.35948  -2411547.27046  20585064.6414                   20585062.2504
   1318334.17648   1008834.57446  21436196.0394                   21436193.4884
  -3865900.69947  -3004176.61745  22293562.6414                   22293559.4884
   1808210.87146   1390115.91844  23196290.6724                   23196289.6334
  -1389230.50848  -1086355.86347  19844434.3134                   19844429.9024
   2072796.99646   1595378.00443  24159530.8524                   24159531.9454
 11  7 26 16 58  0.0000000  0 10G03G06G07G10G13G16G19G20G23G32
  -2280145.53947  -1775867.43746  20807890.3524                   20807888.8954
  -1143423.20347   -895880.89545  21883156.8834                   21883155.9184
  -3049476.35547  -2374319.10245  23156922.8054                   23156920.7074
  -2493737.09045  -1941702.80142  23938872.9304                   23938872.1054
  -3140546.60547  -2442609.53946  20577478.6884                   20577476.0394
   1411852.23848   1081705.75846  21453992.0474                   21453988.9414
  -3930927.50047  -3054846.80945  22281187.9144                   22281185.3364
   1913544.92246   1472194.28144  23216335.0634                   23216335.2624
  -1374198.54748  -1074642.66847  19847294.6724                   19847290.6334
   2184294.37146   1682258.91043  24180748.2274                   24180750.2464
 11  7 26 16 58 30.0000000  0 10G03G06G07G10G13G16G19G20G23G32
  -2290476.77748  -1783917.75446  20805924.3444                   20805922.9614
  -1120581.51247   -878082.16845  21887503.6954                   21887502.3244
  -3092028.58647  -2407476.64544  23148824.6024                   23148823.3284
  -2512079.93745  -1955995.85542  23935383.1174                   23935381.4344
  -3180042.89148  -2473385.85946  20569962.6174                   20569960.5164
   1505623.68048   1154774.38346  21471836.4454                   21471833.3524
  -3995690.81647  -3105311.69145  22268864.1804                   22268861.4024
   2018947.28146   1554325.87144  23236393.0704                   23236391.6334
  -1358643.95348  -1062522.22347  19850254.6414                   19850250.3244
   2295746.35246   1769104.43843  24201957.2894                   24201958.4224
 11  7 26 16 59  0.0000000  0 10G03G06G07G10G13G16G19G20G23G32
  -2300230.93747  -1791518.41046  20804068.1094                   20804067.0004
  -1097198.78547   -859861.89845  21891953.3524                   21891952.3134
  -3134571.35547  -2440626.82845  23140729.6884                   23140728.2544
  -2529933.61345  -1969907.82442  23931985.3674                   23931983.2384
  -3219170.83648  -2503875.16446  20562517.0474                   20562514.3674
   1599644.68848   1228037.48046  21489727.4924                   21489724.9104
  -4060188.64147  -3155569.68045  22256589.8984                   22256587.8284
   2124414.20346   1636507.78544  23256463.2274                   23256461.5044
  -1342566.54748  -1049994.39547  19853314.2274                   19853309.8754
   2407149.26646   1855911.70343  24223156.3834                   24223157.7934
 11  7 26 16 59 30.0000000  0 10G03G06G07G10G13G16G19G20G23G32
  -2309404.38348  -1798666.53946  20802322.2814                   20802320.7384
  -1073272.25047   -841217.82845  21896506.4694                   21896505.0664
  -3177102.39547  -2473767.85245  23132635.8054                   23132634.5634
  -2547294.87145  -1983436.07042  23928681.6414                   23928679.7274
  -3257925.35248  -2534073.48046  20555142.4774                   20555139.9414
   1693915.08648   1301494.89546  21507667.1414                   21507664.1564
  -4124415.54347  -3205616.57845  22244368.3674                   22244365.2934
   2229945.15646   1718739.58244  23276544.3914                   23276543.7774
  -1325963.22348  -1037056.75447  19856473.7814                   19856469.3984
   2518503.09846   1942680.74643  24244346.3984                   24244347.5594
 11  7 26 17  0  0.0000000  0 10G03G06G07G10G13G16G19G20G23G32
  -2317998.93048  -1805363.61746  20800687.1414                   20800685.1254
  -1048805.05147   -822152.46945  21901162.7344                   21901160.8244
  -3219625.22346  -2506902.48445  23124544.0864                   23124542.8444
  -2564166.57045  -1996582.82842  23925472.4384                   23925468.8284
  -3296307.66448  -2563981.77046  20547838.5234                   20547835.7154
   1788428.79748   1375141.91846  21525652.1414                   21525649.7154
  -4188371.28547  -3255452.17245  22232197.8594                   22232195.3094
   2335533.78546   1801016.31344  23296638.0084                   23296636.6564
  -1308835.88348  -1023710.78147  19859732.7664                   19859728.7114
   2629801.95746   2029406.92642  24265526.4454                   24265528.2664
 11  7 26 17  0 30.0000000  0 10G03G06G07G10G13G16G19G20G23G32
  -2326012.05948  -1811607.61346  20799162.3054                   20799160.9384
  -1023796.51247   -802665.31245  21905921.5944                   21905919.6094
  -3262138.96946  -2540030.05544  23116454.1724                   23116452.3524
  -2580547.23445  -2009346.89142  23922353.5164                   23922350.9224
  -3334314.56248  -2593597.53146  20540605.8594                   20540603.2194
   1883183.88348   1448976.98446  21543683.7344                   21543680.6564
  -4252052.21947  -3305073.63745  22220079.9064                   22220076.7114
   2441177.66046   1883336.08244  23316741.3364                   23316740.2704
  -1291183.09048  -1009955.37147  19863091.9614                   19863087.5784
   2741044.05946   2116088.86742  24286694.6884                   24286696.2194
 11  7 26 17  1  0.0000000  0 10G03G06G07G10G13G16G19G20G23G32
  -2333450.00448  -1817403.41046  20797746.7734                   20797745.3634
   -998253.54747   -782761.71945  21910782.1564                   21910780.5204
  -3304651.54746  -2573156.71944  23108364.0314                   23108362.8054
  -2596443.43745  -2021733.77342  23919328.4224                   23919325.6684
  -3371950.89548  -2622924.54746  20533444.3054                   20533441.4844
   1978170.36348   1522992.39846  21561759.1884                   21561756.1174
  -4315462.64547  -3354484.30545  22208012.9844                   22208010.2894
   2546866.70346   1965691.04344  23336852.8054                   23336852.6054
  -1273011.32848   -995795.57847  19866549.8834                   19866545.8204
   2852219.35546   2202718.77342  24307850.8594                   24307851.7114
 11  7 26 17  1 30.0000000  0 10G03G06G07G10G13G16G19G20G23G32
  -2340312.09448  -1822750.48846  20796440.8914                   20796439.1724
   -972177.12548   -762442.46545  21915744.4844                   21915742.3914
  -3347163.97346  -2606283.28545  23100273.7424                   23100272.8134
  -2611855.80945  -2033743.28142  23916396.2344                   23916393.1564
  -3409215.09048  -2651961.57846  20526352.7504                   20526350.2234
   2073384.60948   1597185.31646  21579877.6884                   21579874.6884
  -4378600.07047  -3403682.26245  22195998.6644                   22195995.6214
   2652596.96947   2048078.14144  23356973.3054                   23356972.5704
  -1254320.30148   -981231.16047  19870107.0004                   19870102.6484
   2963324.42646   2289293.98043  24328994.4774                   24328994.7774
 11  7 26 17  2  0.0000000  0 10G03G06G07G10G13G16G19G20G23G32
  -2346593.37548  -1827644.97346  20795245.4144                   20795244.0594
   -945563.63747   -741704.65645  21920808.7424                   21920807.0314
  -3389672.51646  -2639406.77045  23092184.6484                   23092183.6884
  -2626780.08645  -2045373.55542  23913556.8444                   23913552.2664
  -3446101.23048  -2680704.02746  20519333.5704                   20519331.0824
   2168827.89548   1671556.71146  21598039.7814                   21598037.1954
  -4441457.53547  -3452662.07845  22184036.8134                   22184034.3554
   2758369.09447   2130497.85244  23377101.1254                   23377100.5314
  -1235105.66448   -966258.73847  19873763.3284                   19873758.8204
   3074360.46546   2375815.30943  24350123.8524                   24350125.6524
 11  7 26 17  2 30.0000000  0 10G03G06G07G10G13G16G19G20G23G32
  -2352292.03547  -1832085.48046  20794161.4454                   20794159.6954
   -918412.67247   -720548.07445  21925975.6094                   21925973.9344
  -3432177.27046  -2672527.32045  23084096.0234                   23084095.4224
  -2641215.61355  -2056622.19552  23910809.1094                   23910805.7074
  -3482606.78548  -2709149.92246  20512387.0004                   20512384.5744
   2264497.40648   1746104.35546  21616244.5234                   21616242.7424
  -4504031.78547  -3501421.21545  22172129.6564                   22172126.9344
   2864180.24646   2212947.96944  23397236.1254                   23397236.1564
  -1215366.11748   -950877.28947  19877519.5164                   19877515.4694
   3185324.83245   2462280.80543  24371238.7734                   24371241.8634
 11  7 26 17  3  0.0000000  0 10G03G06G07G10G13G16G19G20G23G32
  -2357410.01647  -1836073.50846  20793187.4694                   20793185.9734
   -890727.03547   -698974.85545  21931243.6334                   21931242.2774
  -3474681.40247  -2705647.43045  23076008.0554                   23076007.4384
  -2655164.58655  -2067497.41452  23908156.3984                   23908151.0634
  -3518732.10948  -2737299.52746  20505512.5554                   20505510.0084
   2360387.57048   1820823.94545  21634492.2344                   21634489.5704
  -4566322.30947  -3549959.25845  22160276.1804                   22160273.4694
   2970024.47346   2295423.85544  23417378.0704                   23417377.7624
  -1195103.75048   -935088.44547  19881375.4224                   19881371.1724
   3296212.44146   2548686.44143  24392341.3674                   24392343.7234
 11  7 26 17  3 30.0000000  0 10G03G06G07G10G13G16G19G20G23G32
  -2361947.55547  -1839609.23046  20792323.5944                   20792322.3834
   -862508.50447   -676986.43745  21936613.8834                   21936612.5634
  -3517186.89847  -2738768.62144  23067919.5394                   23067918.5314
  -2668628.19555  -2078013.67652  23905593.1174                   23905589.9534
  -3554476.71948  -2765152.46946  20498710.5634                   20498707.7114
   2456494.33648   1895712.29346  21652780.8524                   21652778.6374
  -4628328.09847  -3598275.43445  22148476.7344                   22148473.6564
   3075897.34047   2377922.07044  23437525.4304                   23437524.5554
  -1174319.43748   -918892.91047  19885330.6094                   19885326.3014
   3407019.01646   2635029.00443  24413426.3524                   24413428.4224
 11  7 26 17  4  0.0000000  0 10G03G06G07G10G13G16G19G20G23G32
  -2365903.89147  -1842692.08646  20791571.0234                   20791569.4884
   -833757.62147   -654583.15645  21942084.7194                   21942083.7464
  -3559693.82847  -2771890.96145  23059831.2734                   23059829.7384
  -2681606.65255  -2088178.10952  23903124.1644                   23903120.9414
  -3589838.37548  -2792707.01646  20491981.0634                   20491978.6374
   2552814.25448   1970766.75446  21671110.0944                   21671107.5044
  -4690046.16847  -3646367.42245  22136732.1564                   22136729.2974
   3181795.43046   2460439.91444  23457677.0314                   23457676.4064
  -1153012.83248   -902290.37947  19889385.1564                   19889380.7304
   3517741.50046   2721306.00843  24434497.2194                   24434498.7114
 11  7 26 17  4 30.0000000  0 10G03G06G07G10G13G16G19G20G23G32
  -2369275.90247  -1845319.61746  20790929.4694                   20790927.7384
   -804472.55947   -631763.64545  21947657.1094                   21947656.6414
  -3602200.68747  -2805013.16045  23051742.1564                   23051740.7154
  -2694098.55115                  23900747.180
  -3624812.92648  -2819959.91446  20485326.0164                   20485323.7234
   2649346.67248   2045986.79346  21689479.7734                   21689477.2034
  -4751471.60247  -3694231.35945  22125043.3284                   22125040.1024
   3287717.72746   2542976.64844  23477833.4694                   23477832.9734
  -1131181.19948   -885278.73847  19893539.6484                   19893535.1884
   3628379.34646   2807517.07643  24455550.6954                   24455553.2974
 11  7 26 17  5  0.0000000  0 10G03G06G07G10G13G16G19G20G23G32
  -2372064.01647  -1847492.19146  20790398.6334                   20790396.9384
   -774654.77047   -608528.98845  21953331.8754                   21953330.4344
  -3644709.07447  -2838136.52345  23043653.2194                   23043651.7274
  -2706103.02715                  23898461.836
  -3659399.50048  -2846910.50046  20478744.5784                   20478741.4774
   2746087.39848   2121369.15646  21707888.6884                   21707886.2154
  -4812602.63347  -3741865.91445  22113410.0784                   22113407.2384
   3393659.68446   2625528.68444  23497993.3914                   23497993.7344
  -1108825.41848   -867858.66447  19897793.8984                   19897789.3714
   3738928.35946   2893658.89143  24476587.4384                   24476591.2074
 11  7 26 17  5 30.0000000  0 10G03G06G07G10G13G16G19G20G23G32
  -2374266.22348  -1849208.19146  20789979.8984                   20789978.1564
   -744303.64847   -584878.80145  21959106.8594                   21959106.0904
  -3687218.35247  -2871260.55944  23035563.6954                   23035562.0744
  -2717620.020 5                  23896270.711
  -3693595.03948  -2873556.37546  20472237.5864                   20472234.1414
   2843034.66048   2196912.44946  21726337.5864                   21726334.6334
  -4873435.35947  -3789268.01245  22101834.2894                   22101831.3404
   3499619.01646   2708094.23844  23518157.1174                   23518156.6604
  -1085943.87548   -850028.91047  19902147.9534                   19902143.4844
   3849387.02746   2979730.33243  24497606.7274                   24497609.8244
 11  7 26 17  6  0.0000000  0 10G03G06G07G10G13G16G19G20G23G32
  -2375885.39147  -1850469.88746  20789671.4614                   20789669.6024
   -713423.48847   -560816.34845  21964983.6024                   21964981.8834
  -3729733.17647  -2904388.90245  23027473.1334                   23027472.0664
  -2728652.961 5                  23894170.398
  -3727401.18048  -2899898.83646  20465804.4384                   20465801.3634
   2940181.91048   2272611.57845  21744823.8524                   21744821.3164
  -4933970.71547  -3836438.35945  22090314.4534                   22090311.4104
   3605588.90247   2790668.03144  23538322.4454                   23538322.0554
  -1062539.71148   -831791.92647  19906601.4454                   19906597.4454
   3959748.51646   3065726.04343  24518608.8984                   24518611.6174
 11  7 26 17  6 30.0000000  0 10G03G06G07G10G13G16G19G20G23G32
  -2376922.47748  -1851278.01246  20789474.1174                   20789473.0164
   -682016.59447   -536343.44945  21970960.0554                   21970958.2034
  -3772255.23047  -2937522.92644  23019381.4534                   23019379.5274
  -2739204.160 5                  23892163.305
  -3760818.00848  -2925937.92246  20459445.4774                   20459442.2624
   3037524.01248   2348462.53945  21763347.5784                   21763344.8754
  -4994208.03547  -3883376.50045  22078851.9694                   22078849.0164
   3711564.04347   2873245.95744  23558489.1024                   23558488.5904
  -1038614.69948   -813149.07847  19911154.4844                   19911150.3914
   4070008.37146   3151642.53943  24539591.1954                   24539593.5664
 11  7 26 17  7  0.0000000  0 10G03G06G07G10G13G16G19G20G23G32
  -2377376.64148  -1851631.89146  20789388.1644                   20789386.4694
   -650083.57047   -511460.60245  21977036.6414                   21977035.9264
  -3814785.31647  -2970663.22344  23011288.1954                   23011286.7304
  -2749273.430 5                  23890245.305
  -3793843.18748  -2951671.83246  20453160.6724                   20453157.9454
   3135057.81348   2424462.87545  21781907.7344                   21781905.1844
  -5054144.30147  -3930080.06245  22067446.4924                   22067443.4104
   3817541.25446   2955825.45344  23578656.4924                   23578655.6214
  -1014168.24248   -794099.90647  19915806.5314                   19915802.0044
   4180163.64146   3237477.50043  24560552.4534                   24560555.7194
 11  7 26 17  7 30.0000000  0 10G03G06G07G10G13G16G19G20G23G32
  -2377244.52748  -1851528.95746  20789413.1724                   20789411.2544
   -617621.84047   -486165.76245  21983213.7584                   21983212.7034
  -3857320.85947  -3003807.76244  23003193.8444                   23003192.4774
  -2758857.848 5                  23888422.398
  -3826472.27048  -2977097.08646  20446951.3914                   20446948.5274
   3232783.78548   2500612.96145  21800504.0004                   21800500.9024
  -5113773.77047  -3976544.55546  22056099.3444                   22056096.0514
   3923520.34446   3038406.42244  23598823.0314                   23598823.0514
   -989197.23448   -774641.99647  19920558.1954                   19920554.0514
   4290214.37546   3323231.00843  24581494.7034                   24581498.1564
 11  7 26 17  8  0.0000000  0 10G03G06G07G10G13G16G19G20G23G32
  -2376521.69548  -1850965.71546  20789550.9614                   20789548.8554
   -584628.49647   -460456.66445  21989492.1334                   21989491.4264
  -3899858.53947  -3036953.98444  22995099.5944                   22995097.1994
  -2767954.164 5                  23886691.391
  -3858699.60248  -3002209.29746  20440818.8754                   20440816.4574
   3330702.21948   2576913.02745  21819137.6174                   21819134.3594
  -5173090.18047  -4022765.09845  22044812.0634                   22044808.8754
   4029501.57046   3120989.03144  23618990.5944                   23618990.7814
   -963698.07048   -754772.53547  19925410.5164                   19925406.1884
   4400161.31346   3408903.68842  24602416.5314                   24602419.5044
 11  7 26 17  8 30.0000000  0 10G03G06G07G10G13G16G19G20G23G32
  -2375210.40248  -1849943.93046  20789800.0944                   20789798.0124
   -551106.94147   -434335.99245  21995871.1804                   21995870.3164
  -3942401.71147  -3070104.46544  22987004.1724                   22987002.0314
  -2776564.914 5                  23885053.063
  -3890525.68748  -3027008.84446  20434762.4224                   20434759.9104
   3428807.31348   2653358.53145  21837806.2894                   21837803.9414
  -5232093.42647  -4068741.60545  22033583.5164                   22033580.9574
   4135478.64146   3203568.44144  23639157.0084                   23639156.4694
   -937672.94948   -734493.24247  19930363.1564                   19930358.9844
   4509998.95745   3494491.17642  24623318.8284                   24623321.6134
 11  7 26 17  9  0.0000000  0 10G03G06G07G10G13G16G19G20G23G32
  -2373318.50048  -1848469.71146  20790160.5864                   20790158.3204
   -517066.50047   -407811.00045  22002349.3444                   22002347.8054
  -3984959.84047  -3103266.63344  22978905.2504                   22978903.0514
  -2784699.219 5                  23883505.320
  -3921957.63748  -3051501.27046  20428781.3134                   20428778.8164
   3527087.34048   2729940.34045  21856507.9614                   21856505.5354
  -5290789.89147  -4114479.08245  22022414.1414                   22022410.8484
   4241439.21146   3286134.93443  23659321.4614                   23659321.1644
   -911130.55148   -713810.86747  19935413.6174                   19935409.8054
   4619715.67646   3579984.39542  24644197.7194                   24644200.7194
 11  7 26 17  9 30.0000000  0 10G03G06G07G10G13G16G19G20G23G32
  -2370841.75048  -1846539.78546  20790631.5084                   20790629.0434
   -482503.58247   -380878.85945  22008925.9614                   22008924.7424
  -4027528.85547  -3136437.27745  22970804.2424                   22970802.7154
  -2792352.762 5                  23882049.414
  -3952989.06248  -3075681.60546  20422876.2584                   20422874.1524
   3625543.75848   2806659.59845  21875243.8444                   21875240.7974
  -5349172.21547  -4159971.77345  22011304.0704                   22011301.1564
   4347385.18846   3368690.10243  23679481.9064                   23679482.0594
   -884066.26648   -692721.83647  19940563.9384                   19940559.7664
   4729313.05546   3665384.67242  24665052.6254                   24665056.1724
 11  7 26 17 10  0.0000000  0 10G03G06G07G10G13G16G19G20G23G32
  -2367774.82448  -1844149.94946  20791214.7274                   20791213.3054
   -447414.87547   -353537.05545  22015603.8984                   22015601.8754
  -4070105.09047  -3169613.52745  22962702.7584                   22962700.6484
  -2799522.000 5                  23880684.703
  -3983614.12948  -3099545.30146  20417048.5944                   20417046.0904
   3724177.66048   2883517.14545  21894013.3364                   21894010.5594
  -5407233.77747  -4205214.52045  22000255.2584                   22000252.5274
   4453316.93846   3451234.15643  23699640.4224                   23699640.6564
   -856475.85248   -671222.83247  19945814.4844                   19945810.2544
   4838792.06346   3750692.71542  24685887.2424                   24685889.3554
 11  7 26 17 10 30.0000000  0 10G03G06G07G10G13G16G19G20G23G32
  -2364120.32048  -1841302.30146  20791910.0864                   20791908.4024
   -411804.03147   -325788.34445  22022379.7194                   22022378.7664
  -4112691.87547  -3202798.00845  22954598.3364                   22954596.8754
  -2806209.660 5                  23879412.578
  -4013833.78948  -3123093.09046  20411297.6254                   20411295.4534
   3822983.17248   2960508.41845  21912815.0784                   21912812.9224
  -5464974.61747  -4250207.34445  21989267.6564                   21989265.0164
   4559228.29346   3533762.34444  23719794.7424                   23719795.3134
   -828362.00048   -649315.96147  19951164.5394                   19951159.9654
   4948147.12546   3835904.16442  24706696.9534                   24706699.4494
 11  7 26 17 11  0.0000000  0 10G03G06G07G10G13G16G19G20G23G32
  -2359875.99648  -1837995.05146  20792718.2894                   20792715.9614
   -375670.01247   -297631.95345  22029255.8754                   22029254.7544
  -4155287.51647  -3235989.39845  22946493.1334                   22946491.9654
  -2812414.234 5                  23878231.680
  -4043643.73048  -3146321.62146  20405625.3134                   20405622.6484
   3921959.20348   3037632.57045  21931650.0164                   21931646.9534
  -5522390.28547  -4294946.79745  21978342.1254                   21978338.7934
   4665118.06646   3616273.70344  23739945.4224                   23739944.5314
   -799722.47748   -626999.47347  19956614.4454                   19956610.3954
   5057377.45346   3921018.42643  24727482.9534                   24727485.5984
 11  7 26 17 11 30.0000000  0 10G03G06G07G10G13G16G19G20G23G32
  -2355037.72347  -1834224.96946  20793638.6954                   20793636.5204
   -339009.59047   -269065.39845  22036232.2734                   22036231.2114
  -4197889.52047  -3269185.72345  22938386.1484                   22938384.0864
  -2818132.871 5                  23877142.672
  -4073039.47348  -3169227.39146  20400031.2734                   20400028.4574
   4021106.32048   3114890.02345  21950516.9924                   21950514.7154
  -5579474.49647  -4339427.96145  21967479.3364                   21967475.9104
   4770986.42846   3698768.38443  23760091.7504                   23760091.0664
   -770553.95748   -604270.78547  19962164.9694                   19962160.5394
   5166483.67646   4006035.91843  24748245.4534                   24748248.6054
 11  7 26 17 12  0.0000000  0  9G03G06G07G10G13G16G19G20G23
  -2349608.29348  -1829994.25046  20794671.9694                   20794669.9774
   -301827.41447   -240092.28545  22043308.1484                   22043306.0944
  -4240501.00047  -3302389.45745  22930277.5474                   22930275.3754
  -2823368.750 6                  23876147.039
  -4102022.12948  -3191811.27746  20394516.3914                   20394513.5314
   4120418.39848   3192276.00845  21969415.6174                   21969413.1374
  -5636228.05547  -4383651.48445  21956679.3984                   21956676.2034
   4876826.67646   3781241.14544  23780232.9614                   23780232.3554
   -740859.76648   -581132.48447  19967815.5634                   19967810.7854
 11  7 26 17 12 30.0000000  0  9G03G06G07G10G13G16G19G20G23
  -2343587.79348  -1825302.96146  20795817.4304                   20795815.8674
   -264124.23447   -210713.18445  22050482.8834                   22050481.0434
  -4283122.99247  -3335601.37145  22922166.8914                   22922164.4144
  -2828122.684 5                  23875241.734
  -4130589.88748  -3214071.86346  20389079.8204                   20389076.9734
   4219892.05548   3269787.90645  21988345.0164                   21988341.8914
  -5692648.51647  -4427615.44945  21945943.3134                   21945940.0944
   4982635.14546   3863689.14544  23800367.4144                   23800366.7774
   -710639.94948   -557584.60947  19973566.1484                   19973561.4654
 11  7 26 17 13  0.0000000  0  9G03G06G07G10G13G16G19G20G23
  -2336970.45748  -1820146.59046  20797076.8594                   20797075.1914
   -225895.78147   -180924.78145  22057757.0394                   22057756.1994
  -4325750.36747  -3368817.47345  22914054.6884                   22914053.1454
  -2832389.305 5                  23874430.633
  -4158735.66448  -3236003.63746  20383724.0394                   20383720.9454
   4319529.82048   3347427.70745  22007305.2664                   22007302.5434
  -5748727.81247  -4471313.57845  21935271.3754                   21935267.9614
   5088414.40647   3946114.34844  23820496.2584                   23820496.9024
   -679889.06248   -533622.89847  19979417.5864                   19979413.2034
 11  7 26 17 13 30.0000000  0  9G03G06G07G10G13G16G19G20G23
  -2329755.24248  -1814524.34446  20798449.7274                   20798448.0744
   -187142.11747   -150727.16445  22065131.3134                   22065130.2854
  -4368382.94947  -3402037.64845  22905942.2664                   22905940.3874
  -2836168.586 5                  23873711.109
  -4186456.95748  -3257604.64546  20378448.6024                   20378446.0744
   4419329.49647   3425193.68445  22026296.7974                   22026293.6134
  -5804462.47747  -4514743.17245  21924665.1174                   21924662.0984
   5194161.76246   4028514.72344  23840620.1334                   23840619.6454
   -648606.27748   -509246.72747  19985370.7114                   19985366.2194
 11  7 26 17 14  0.0000000  0  9G03G06G07G10G13G16G19G20G23
  -2321939.38348  -1808434.05946  20799937.1094                   20799935.1884
   -147861.96947   -120119.26645  22072606.8054                   22072605.3444
  -4411019.05947  -3435260.55545  22897828.8524                   22897827.1644
                                  23873084.523
  -4213749.89148  -3278871.86346  20373255.1954                   20373252.4964
   4519289.87147   3503084.84845  22045318.9774                   22045315.4534
  -5859848.13347  -4557900.79745  21914125.8364                   21914122.9304
   5299875.78147   4110889.08644  23860736.9614                   23860737.1994
   -616789.82848   -484454.72347  19991425.2584                   19991420.8874
 11  7 26 17 14 30.0000000  0  9G03G06G07G10G13G16G19G20G23
  -2313529.42248  -1801880.85546  20801537.8524                   20801535.7034
   -108063.13747    -89107.19945  22080180.0474                   22080179.2584
  -4453665.51647  -3468491.53945  22889713.5234                   22889711.9694
  -2842266.605 5                  23872550.242
  -4240619.14548  -3299808.93746  20368142.2194                   20368139.3874
   4619401.69947   3581094.02745  22064369.2344                   22064366.1764
  -5914888.69147  -4600789.52045  21903651.7734                   21903648.7274
   5405546.81346   4193229.95744  23880846.1024                   23880845.4654
   -584446.38748   -459252.07447  19997579.7664                   19997575.2274
 11  7 26 17 15  0.0000000  0  9G03G06G07G10G13G16G19G20G23
  -2304523.93747  -1794863.58246  20803251.1484                   20803249.6374
    -67745.52047    -57690.88345  22087851.6804                   22087850.5514
  -4496321.77747  -3501730.16045  22881596.3834                   22881594.6024
  -2844591.91046  -2215185.44953  23872107.7274                   23872106.5354
  -4267061.84448  -3320413.63746  20363110.2814                   20363107.6214
   4719663.02347   3659219.71545  22083448.2194                   22083445.3914
  -5969580.40647  -4643406.40646  21893244.2584                   21893241.3244
   5511172.85946   4275535.74244  23900945.5554                   23900946.0744
   -551574.73048   -433637.82447  20003835.0704                   20003830.6994
 11  7 26 17 15 30.0000000  0  9G03G06G07G10G13G16G19G20G23
  -2294919.44948  -1787379.57046  20805078.9064                   20805077.2854
    -26906.16447    -25868.02745  22095623.5394                   22095623.0124
  -4538984.74247  -3534973.98445  22873477.5634                   22873475.8134
  -2846431.39146  -2216618.85242  23871757.8754                   23871756.6724
  -4293072.78148  -3340681.90246  20358160.1644                   20358157.7704
   4820074.82047   3737462.62545  22102556.2664                   22102552.9184
  -6023916.99647  -4685746.59045  21882904.5394                   21882901.3794
   5616754.43846   4357806.88343  23921036.2504                   23921037.3914
   -518171.40248   -407609.28147  20010191.4454                   20010187.3554
 11  7 26 17 16  0.0000000  0  9G03G06G07G10G13G16G19G20G23
  -2284719.27748  -1779431.38746  20807020.0474                   20807018.0554
     14450.15647      6357.66445  22103493.7344                   22103492.4844
  -4581658.32447  -3568226.10245  22865357.4224                   22865355.0594
  -2847789.41846  -2217677.07042  23871499.8914                   23871497.8674
  -4318653.73848  -3360615.11346  20353292.8204                   20353289.7074
   4920630.19147   3815817.43045  22121690.8524                   22121688.1094
  -6077899.66447  -4727810.97745  21872631.4304                   21872628.8754
   5722283.95346   4440037.46143  23941117.9384                   23941119.3444
   -484240.75848   -381169.84447  20016648.7584                   20016644.1764
 11  7 26 17 16 30.0000000  0  9G03G06G07G10G13G16G19G20G23
  -2273922.24248  -1771018.12946  20809074.4384                   20809072.5434
     56322.97347     38985.84445  22111460.9774                   22111460.4304
  -4624341.94947  -3601486.03545  22857234.9064                   22857232.8364
  -2848665.23046  -2218359.56642  23871333.0004                   23871331.7934
  -4343802.13348  -3380211.27046  20348507.1954                   20348504.4884
   5021326.89547   3894282.34445  22140853.4924                   22140850.6294
  -6131524.80147  -4769596.76246  21862427.4774                   21862424.1174
   5827759.80146   4522226.20743  23961189.5784                   23961191.1254
   -449781.18448   -354318.25447  20023206.0944                   20023201.5634
 11  7 26 17 17  0.0000000  0  9G03G06G07G10G13G16G19G20G23
  -2262528.85948  -1762140.17246  20811242.8914                   20811240.7704
     98710.78947     72015.31345  22119527.4534                   22119526.5594
  -4667036.60547  -3634754.57045  22849110.2814                   22849107.7734
  -2849059.92246  -2218667.14143  23871257.8754                   23871257.4694
  -4368516.73048  -3399469.41046  20343803.7974                   20343801.1914
   5122162.01647   3972855.12945  22160041.3674                   22160038.7344
  -6184790.44947  -4811102.44146  21852291.0474                   21852288.1054
   5933178.66446   4604370.57044  23981251.1254                   23981251.6414
   -414793.55548   -327055.20347  20029863.8984                   20029859.8634
 11  7 26 17 17 30.0000000  0 10G03G06G07G10G13G16G19G20G23G08
  -2250543.53948  -1752800.96146  20813523.3674                   20813521.1644
    141608.66847    105442.24245  22127691.0554                   22127689.5004
  -4709746.66047  -3668035.10944  22840982.0634                   22840980.6054
  -2848978.26646  -2218603.52342  23871273.7734                   23871272.0084
  -4392799.89548  -3418391.36346  20339183.0164                   20339179.7114
   5223128.15647   4051530.01245  22179254.1724                   22179252.1684
  -6237698.27047  -4852329.28146  21842223.1644                   21842219.7704
   6038532.17246   4686464.00443  24001298.7894                   24001299.4024
   -379282.28548   -299384.11347  20036621.3594                   20036617.3594
  -1654394.60515                  24985637.227
 11  7 26 17 18  0.0000000  0 10G03G06G07G10G13G16G19G20G23G08
  -2237970.35548  -1743003.66846  20815915.6174                   20815913.9064
    185010.97747    139262.19945  22135949.8054                   22135949.2344
  -4752477.23847  -3701331.64545  22832851.2814                   22832849.2304
  -2848425.25846  -2218172.60943  23871378.8674                   23871378.0824
  -4416654.78148  -3436979.60246  20334643.6484                   20334640.7734
   5324218.09047   4130301.33645  22198491.4614                   22198488.9804
  -6290250.36747  -4893278.94545  21832222.3284                   21832220.0704
   6143812.75446   4768500.63344  24021333.6804                   24021333.7894
   -343252.27048   -271308.80547  20043478.1414                   20043473.4574
                                  24976175.977
 11  7 26 17 18 30.0000000  0 10G03G06G07G10G13G16G19G20G23G08
  -2224800.89148  -1732741.73046  20818421.9384                   20818420.2344
    228924.36347    173480.41845  22144306.8364                   22144305.2504
  -4795220.37147  -3734637.97345  22824717.6094                   22824715.6524
  -2847393.60546  -2217368.67243  23871575.1564                   23871573.9804
  -4440071.24648  -3455226.21946  20330187.7034                   20330184.6094
   5425437.01247   4209173.18445  22217752.9614                   22217750.0474
  -6342436.15247  -4933943.16845  21822291.9224                   21822289.0004
   6249025.66046   4850484.55143  24041355.7274                   24041355.9024
   -306695.88748   -242823.33247  20050434.0004                   20050429.7624
                                  24966697.609
 11  7 26 17 19  0.0000000  0 10G03G06G07G10G13G16G19G20G23G08
  -2211041.68448  -1722020.27746  20821040.5784                   20821038.6764
    273341.74647    208091.36745  22152758.6724                   22152757.4614
  -4837982.44147  -3767959.02045  22816579.7274                   22816578.1454
  -2845890.27046  -2216197.29743  23871860.8594                   23871860.2114
  -4463053.91848  -3473134.79346  20325814.0864                   20325811.1294
   5526776.02347   4288138.61745  22237037.0314                   22237034.3364
  -6394258.89547  -4974324.48845  21812430.2734                   21812426.7894
   6354161.66446   4932408.53543  24061361.9694                   24061362.2704
   -269619.14148   -213932.39147  20057489.7664                   20057485.2504
  -1803794.762 5                  24957207.750
 11  7 26 17 19 30.0000000  0 10G03G06G07G10G13G16G19G20G23G08
  -2196696.80148  -1710842.45346  20823769.7504                   20823768.1484
    318257.78147    243090.88745  22161306.0314                   22161304.8594
  -4880767.85947  -3801298.27745  22808437.8204                   22808436.6094
  -2843919.76246  -2214661.87943  23872236.0314                   23872234.8444
  -4485604.85548  -3490706.96546  20321522.8054                   20321519.7384
   5628227.99647   4367192.06345  22256342.8054                   22256339.8914
  -6445720.21947  -5014424.19545  21802637.8284                   21802634.3444
   6459213.57446   5014266.98843  24081353.0164                   24081353.2034
   -232026.26248   -184639.27047  20064643.7894                   20064639.1994
  -1853766.488 5                  24947696.922
 11  7 26 17 20  0.0000000  0 10G03G06G07G10G13G16G19G20G23G08
  -2181764.30148  -1699206.72746  20826612.0164                   20826610.0314
    363673.41047    278479.69145  22169948.9064                   22169947.4964
  -4923575.07047  -3834654.50445  22800292.3284                   22800290.3594
  -2841480.69146  -2212761.25843  23872699.3134                   23872698.9104
  -4507720.48848  -3507939.91446  20317314.2974                   20317311.6884
   5729792.21947   4446332.98445  22275669.6174                   22275666.6414
  -6496815.76647  -5054238.89145  21792914.6094                   21792911.5824
   6564179.88346   5096058.74643  24101327.2814                   24101327.8094
   -193915.86748   -154942.87947  20071895.8984                   20071891.0394
  -1903826.43446  -1472644.29752  24938171.1724                   24938171.6254
 11  7 26 17 20 30.0000000  0 10G03G06G07G10G13G16G19G20G23G08
  -2166240.65247  -1687110.39546  20829565.7814                   20829564.3244
    409591.05547    314259.71545  22178685.8834                   22178684.9264
  -4966401.24247  -3868025.50445  22792143.5474                   22792140.9384
  -2838569.94946  -2210493.18043  23873253.6954                   23873254.0594
  -4529395.66448  -3524829.67246  20313189.7504                   20313187.0944
   5831469.24247   4525561.80945  22295018.1334                   22295015.3594
  -6547539.75447  -5093764.04746  21783262.2584                   21783258.8674
   6669061.03546   5177784.15643  24121285.9614                   24121285.6954
   -155284.99248   -124840.93447  20079247.0314                   20079242.3874
  -1953972.01246  -1511718.66443  24928628.9534                   24928629.6374
 11  7 26 17 21  0.0000000  0 10G03G06G07G10G13G16G19G20G23G08
  -2150123.15247  -1674551.30946  20832632.7034                   20832631.4804
    456011.96947    350431.84845  22187519.9224                   22187518.6954
  -5009243.44547  -3901409.02745  22783990.4144                   22783988.4224
  -2835186.14146  -2207856.44943  23873898.7344                   23873897.2384
  -4550626.21948  -3541372.97346  20309149.7034                   20309146.9264
   5933259.30147   4604878.69945  22314388.2194                   22314385.2034
  -6597886.69547  -5132995.40646  21773681.0234                   21773678.2624
   6773856.94146   5259443.10943  24141227.5704                   24141228.5944
   -116130.54748    -94330.99647  20086697.7894                   20086693.7194
  -2004201.17246  -1550858.24243  24919070.3364                   24919071.5594
 11  7 26 17 21 30.0000000  0 10G03G06G07G10G13G16G19G20G23G08
  -2133419.35548  -1661535.35946  20835811.2504                   20835809.9144
    502927.47347    386989.37545  22196447.4844                   22196446.8444
  -5052109.05147  -3934810.76645  22775833.1024                   22775831.6804
  -2831337.37146  -2204857.43443  23874630.1174                   23874628.8054
  -4571417.54748  -3557574.01646  20305193.3674                   20305190.1334
   6035151.81647   4684275.44145  22333777.6724                   22333775.0634
  -6647861.40247  -5171936.70746  21764171.6484                   21764168.1214
   6878557.00446   5341027.39143  24161152.3524                   24161152.2464
    -76460.56248    -63419.35947  20094246.7504                   20094242.8754
  -2054522.21546  -1590069.41443  24909495.2194                   24909495.3834
 11  7 26 17 22  0.0000000  0 10G03G06G07G10G13G16G19G20G23G08
  -2116122.23448  -1648057.06646  20839102.8284                   20839101.0634
    550343.59047    423936.96945  22205470.7584                   22205469.5434
  -5094991.75847  -3968225.85945  22767672.6954                   22767671.1334
  -2827017.23046  -2201491.08242  23875451.0704                   23875450.6724
  -4591761.01648  -3573426.08646  20301322.1484                   20301319.1334
   6137151.13347   4763755.39145  22353187.2974                   22353184.5314
  -6697454.43447  -5210580.61746  21754734.0554                   21754730.4184
   6983165.05545   5422539.93843  24181057.4304                   24181059.6414
    -36268.60248    -32100.95747  20101894.9224                   20101890.7664
  -2104928.78546  -1629347.22343  24899903.0554                   24899902.6724
 11  7 26 17 22 30.0000000  0 10G03G06G07G10G13G16G19G20G23G08
  -2098229.43748  -1634114.64146  20842508.1564                   20842506.1644
    598261.19147    461275.38345  22214588.7814                   22214587.6414
  -5137889.21147  -4001652.41845  22759509.5634                   22759507.1844
  -2822223.48846  -2197755.75442  23876364.7584                   23876362.0904
  -4611652.38748  -3588925.85546  20297536.9224                   20297534.4024
   6239257.30547   4843318.62145  22372617.6724                   22372615.3714
  -6746660.71547  -5248923.14846  21745370.9384                   21745367.3134
   7087680.70346   5503980.48843  24200945.9064                   24200947.9924
      4447.74248      -373.97747  20109643.3054                   20109638.7584
  -2155418.78946  -1668690.03943  24890294.4144                   24890295.9654
 11  7 26 17 23  0.0000000  0 10G03G06G07G10G13G16G19G20G23G08
  -2079747.44147  -1619713.08646  20846024.5704                   20846023.2074
    646673.38347    498999.15645  22223801.3834                   22223800.4024
  -5180807.57847  -4035095.28945  22751342.6644                   22751339.6724
  -2816963.44546  -2193657.04742  23877365.4774                   23877364.0234
  -4631096.30948  -3604076.96946  20293836.8984                   20293834.0944
   6341461.32047   4922958.08645  22392066.3204                   22392064.0864
  -6795484.15247  -5286967.37946  21736079.9384                   21736076.4264
   7192094.90246   5585341.97743  24220816.3444                   24220817.4774
     45681.89548     31756.50847  20117490.1094                   20117485.3014
  -2205999.65246  -1708103.65243  24880669.4304                   24880670.0744
 11  7 26 17 23 30.0000000  0 10G03G06G07G10G13G16G19G20G23G08
  -2060676.00048  -1604852.22346  20849653.8754                   20849652.2854
    695578.53547    537107.05145  22233107.6954                   22233106.8244
  -5223747.07447  -4068554.61745  22743171.3914                   22743168.9964
  -2811237.40646  -2189195.25043  23878455.4384                   23878453.2704
  -4650091.03148  -3618878.05546  20290222.3054                   20290219.1764
   6443760.33647   5002671.57445  22411533.4384                   22411531.0234
  -6843922.19147  -5324711.29746  21726862.1414                   21726859.1914
   7296403.90646   5666621.51243  24240665.4304                   24240666.6844
     87433.31648     64290.05947  20125434.7974                   20125430.1884
  -2256671.86346  -1747588.45343  24871026.4454                   24871027.4384
 11  7 26 17 24  0.0000000  0 10G03G06G07G10G13G16G19G20G23G08
  -2041017.68748  -1589534.04746  20853394.6724                   20853393.0514
    744973.38347    575596.53545  22242507.3594                   22242506.2154
  -5266709.78147  -4102032.03945  22734995.5394                   22734993.4844
  -2805048.40247  -2184372.64843  23879633.4614                   23879632.4654
  -4668636.99648  -3633329.46146  20286693.2194                   20286690.6094
   6546149.66847   5082455.43845  22431017.5634                   22431014.8954
  -6891974.18047  -5362154.38346  21717718.3524                   21717714.8094
   7400603.43846   5747815.76643  24260493.5084                   24260495.9264
    129699.84448     97224.98847  20133478.0474                   20133473.3054
  -2307437.93746  -1787146.38343  24861367.0084                   24861366.0904
 11  7 26 17 24 30.0000000  0 10G03G06G07G10G13G16G19G20G23G08
  -2020769.30947  -1573756.08246  20857248.3524                   20857246.3674
    794860.31647    614469.44945  22252000.3914                   22251999.3014
  -5309692.42647  -4135524.97745  22726816.7504                   22726814.9614
  -2798393.61347  -2179187.10543  23880899.5634                   23880900.1174
  -4686728.95348  -3647427.09846  20283250.2034                   20283247.6724
   6648630.19547   5162310.36345  22450519.1724                   22450516.6174
  -6939634.01647  -5399291.90646  21708648.9534                   21708645.6994
   7504694.01646   5828925.08643  24280302.3054                   24280303.9694
    172484.39548    130563.56647  20141619.7894                   20141615.0824
  -2358295.28546  -1826775.40643  24851689.6024                   24851688.3484
 11  7 26 17 25  0.0000000  0 10G03G06G07G10G13G16G19G20G23G08
  -1999934.89848  -1557521.46946  20861212.7814                   20861210.6454
    845233.98047    653721.64145  22261586.3284                   22261585.2304
  -5352699.06647  -4169036.63345  22718632.6254                   22718630.8444
  -2791277.85947  -2173642.41043  23882253.8284                   23882253.0904
  -4704369.25848  -3661172.78546  20279893.5474                   20279890.6414
   6751195.46947   5242231.31645  22470036.5864                   22470034.7194
  -6986903.42247  -5436125.18746  21699653.8134                   21699650.0864
   7608668.52746   5909943.98843  24300088.4614                   24300089.2894
    215782.48848    164302.30947  20149858.8834                   20149854.4264
  -2409248.35245  -1866479.04742  24841992.9534                   24841992.3914
 11  7 26 17 25 30.0000000  0 10G03G06G07G10G13G16G19G20G23G08
  -1978505.75448  -1540823.43746  20865290.6644                   20865289.0514
    896102.06647    693359.08245  22271266.4774                   22271264.4574
  -5395721.01647  -4202560.20345  22710445.2424                   22710443.8524
  -2783693.16846  -2167732.30543  23883696.8284                   23883696.7504
  -4721547.33648  -3674558.30146  20276624.6954                   20276622.0864
   6853851.59447   5322223.05545  22489571.4064                   22489568.4144
  -7033771.13747  -5472645.47346  21690735.3204                   21690732.3444
   7712532.79546   5990876.98944  24319853.4694                   24319854.5274
    259602.66048    198447.87146  20158197.6804                   20158193.6214
  -2460288.69945  -1906250.72342  24832279.9064                   24832279.8164
 11  7 26 17 26  0.0000000  0 10G03G06G07G10G13G16G19G20G23G08
  -1956490.29748  -1523668.54346  20869480.0004                   20869478.1914
    947454.71547    733374.07845  22281038.5004                   22281036.8054
  -5438766.60947  -4236102.20345  22702254.3284                   22702252.5084
  -2775648.62946  -2161463.81643  23885228.4844                   23885226.4774
  -4738269.89848  -3687588.86746  20273442.3134                   20273439.4264
   6956587.71147   5402277.11745  22509121.1564                   22509118.9924
  -7080242.68447  -5508857.03546  21681891.6414                   21681888.6684
   7816276.03946   6071715.68444  24339595.2584                   24339596.6524
    303936.25048    232993.50447  20166634.0084                   20166629.6804
  -2511425.29345  -1946097.47742  24822547.7664                   24822549.1684
 11  7 26 17 26 30.0000000  0 10G03G06G07G10G13G16G19G20G23G08
  -1933886.11348  -1506054.89846  20873781.2584                   20873779.5904
    999293.60547    773768.05545  22290902.6094                   22290901.6884
  -5481833.16447  -4269660.52345  22694059.1174                   22694057.3524
  -2767142.21546  -2154835.47343  23886846.2814                   23886845.8674
  -4754532.32048  -3700260.89547  20270347.6954                   20270345.2384
   7059404.00447   5482393.69545  22528686.3674                   22528683.8284
  -7126312.28147  -5544755.40646  21673124.7344                   21673122.1564
   7919897.85546   6152459.77344  24359314.4144                   24359315.4804
    348785.80148    267941.16847  20175168.6024                   20175164.4414
  -2562656.33645  -1986017.67642  24812799.3914                   24812800.6724
 11  7 26 17 27  0.0000000  0 10G03G06G07G10G13G16G19G20G23G08
  -1910684.68448  -1487975.86346  20878196.1094                   20878194.5904
   1051626.37947    814546.81645  22300861.2814                   22300860.4414
  -5524911.51647  -4303228.05945  22685861.8754                   22685859.6844
  -2758165.66046  -2147840.75043  23888554.5164                   23888552.9534
  -4770324.10948  -3712566.18747  20267342.6174                   20267339.6604
   7162306.94947   5562577.77045  22548268.9534                   22548266.2704
  -7171969.68747  -5580332.58246  21664437.2194                   21664434.0274
   8023404.34046   6233113.98444  24379010.0084                   24379012.1254
    394159.38748    303297.18447  20183802.6414                   20183798.2114
  -2613973.28545  -2026004.98042  24803033.9844                   24803034.7074
 11  7 26 17 27 30.0000000  0  9G03G06G07G10G13G16G19G20G23
  -1886888.85548  -1469433.66046  20882724.7114                   20882722.9024
   1104448.69147    855707.05945  22310913.2114                   22310911.7814
  -5568004.35547  -4336806.89145  22677661.5234                   22677659.0004
  -2748722.61346  -2140482.52343  23890351.1174                   23890350.6024
  -4785646.34448  -3724505.60247  20264426.7664                   20264424.2854
   7265291.19547   5642825.16045  22567865.9534                   22567863.2114
  -7217214.60947  -5615588.33246  21655826.8204                   21655824.0044
   8126789.98646   6313674.02243  24398684.0704                   24398685.7384
    440053.86748    339059.08246  20192536.3594                   20192531.9884
 11  7 26 17 28  0.0000000  0  9G03G06G07G10G13G16G19G20G23
  -1862493.97348  -1450424.66846  20887366.3444                   20887365.0594
   1157764.50447    897251.84045  22321058.7504                   22321057.9024
  -5611106.71947  -4370393.10245  22669458.8914                   22669456.9804
  -2738808.67646  -2132757.40243  23892237.8834                   23892236.9924
  -4800492.31248  -3736073.89147  20261602.0234                   20261599.1524
   7368359.44147   5723138.04745  22587478.6174                   22587476.5314
  -7262039.53147  -5650516.82446  21647297.2734                   21647294.0234
   8230056.95346   6394141.57443  24418335.6484                   24418336.9494
    486473.92648    375230.53546  20201369.6254                   20201365.2424
 11  7 26 17 28 30.0000000  0  9G03G06G07G10G13G16G19G20G23
  -1837506.98848  -1430954.30146  20892121.5474                   20892120.0234
   1211565.90247    939174.99645  22331296.5314                   22331295.9144
  -5654225.37947  -4403992.06645  22661254.1334                   22661251.8674
  -2728431.19946  -2124671.11743  23894212.0234                   23894211.7774
  -4814867.06648  -3747275.00846  20258866.4384                   20258863.6804
   7471502.37547   5803509.11344  22607106.7034                   22607103.7154
  -7306448.18747  -5685120.95346  21638846.0864                   21638842.8674
   8333195.78146   6474509.31643  24437963.3364                   24437964.5124
    533412.62548    411806.11346  20210302.0004                   20210297.4694
 11  7 26 17 29  0.0000000  0  9G03G06G07G10G13G16G19G20G23
  -1811925.52048  -1411020.70746  20896989.3754                   20896987.6134
   1265853.87947    981477.27745  22341627.6024                   22341626.7624
  -5697357.23447  -4437601.27045  22653046.4304                   22653043.9534
  -2717588.93446  -2116222.62943  23896275.8204                   23896274.5944
  -4828766.12148  -3758105.44547  20256221.7734                   20256218.7584
   7574720.00847   5883938.43044  22626747.8754                   22626744.5744
  -7350435.79347  -5719396.96946  21630476.2734                   21630473.3284
   8436206.66046   6554777.35543  24457564.7034                   24457566.1684
    580871.79748    448787.26246  20219333.1254                   20219328.9414
 11  7 26 17 29 30.0000000  0 10G03G06G07G10G13G16G19G20G23G08
  -1785758.46948  -1390630.80146  20901968.9924                   20901967.2934
   1320618.85547   1024151.28145  22352049.2424                   22352047.9104
  -5740510.62947  -4471227.25845  22644834.1724                   22644831.5594
  -2706290.88346  -2107418.98443  23898425.9454                   23898424.9184
  -4842196.35948  -3768570.58247  20253665.9384                   20253663.0274
   7678002.12147   5964417.95344  22646402.0864                   22646398.4304
  -7394008.26247  -5753349.52046  21622183.9304                   21622180.8754
   8539078.02746   6634936.73442  24477140.4304                   24477142.4534
    628842.68448    486167.13747  20228461.7974                   20228457.5234
  -1625447.00815                  24753953.688
 11  7 26 17 30  0.0000000  0 10G03G06G07G10G13G16G19G20G23G08
  -1759001.75047  -1369781.43046  20907060.7194                   20907058.8164
   1375863.97747   1067199.39845  22362562.2344                   22362560.8444
  -5783682.01647  -4504867.29345  22636618.6724                   22636616.9184
  -2694533.40646  -2098257.34043  23900663.4694                   23900662.9344
  -4855151.87948  -3778665.79747  20251200.4534                   20251197.7934
   7781350.21147   6044948.90644  22666069.0554                   22666065.5594
  -7437158.87547  -5786973.34846  21613972.6804                   21613969.6604
   8641811.71545   6714988.72742  24496689.4454                   24496691.6884
    677329.00848    523948.66446  20237688.1724                   20237684.3714
  -1677311.574 5                  24744083.188
 11  7 26 17 30 30.0000000  0 10G03G06G07G10G13G16G19G20G23G08
  -1731651.11748  -1348469.25046  20912265.3594                   20912263.2774
   1431592.28147   1110624.01245  22373166.9064                   22373165.8914
  -5826865.51647  -4538516.75045  22628401.6334                   22628399.4454
  -2682312.69546  -2088734.69143  23902989.0164                   23902988.9224
  -4867626.48048  -3788386.28147  20248826.8834                   20248824.0514
   7884766.63347   6125533.10945  22685748.3284                   22685745.8244
  -7479880.28147  -5820262.72346  21605843.5704                   21605839.8834
   8744409.73845   6794935.02342  24516213.2344                   24516216.1724
    726334.71948    562134.89847  20247014.0164                   20247009.4774
  -1729266.566 6                  24734198.195
 11  7 26 17 31  0.0000000  0 10G03G06G07G10G13G16G19G20G23G08
  -1703717.18748  -1326702.56246  20917581.2734                   20917579.6914
   1487792.04747   1154416.03145  22383861.2344                   22383860.0044
  -5870071.52347  -4572183.71945  22620179.7034                   22620177.8594
  -2669639.68747  -2078859.62943  23905400.3134                   23905400.6484
  -4879628.39148  -3797738.43446  20246542.9384                   20246540.1334
   7988239.00847   6206160.88745  22705438.6564                   22705435.7194
  -7522180.37947  -5853223.81246  21597793.8204                   21597790.3054
   8846859.18845   6874765.54342  24535709.6804                   24535711.8164
    775849.43848    600717.77047  20256436.5004                   20256432.4344
  -1781322.412 6                  24724291.773
 11  7 26 17 31 30.0000000  0 10G03G06G07G10G13G16G19G20G23G08
  -1675194.41448  -1304477.02346  20923008.6804                   20923006.9574
   1544468.34047   1198579.34045  22394646.2664                   22394645.6524
  -5913293.79347  -4605863.41845  22611954.8984                   22611952.8164
  -2656509.52747  -2068628.34044  23907898.9924                   23907898.3914
  -4891150.05148  -3806716.35946  20244350.4534                   20244347.9024
   8091770.75847   6286834.94945  22725139.8204                   22725137.2304
  -7564050.45747  -5885849.82846  21589826.4384                   21589822.6764
   8949163.27046   6954482.75843  24555177.4534                   24555179.7114
    825878.55148    639701.45346  20265956.5314                   20265952.4064
  -1833473.711 6                  24714367.742
 11  7 26 17 32  0.0000000  0 10G03G06G07G10G13G16G19G20G23G08
  -1646079.85248  -1281790.36746  20928548.9384                   20928547.3794
   1601622.57847   1243115.09045  22405522.1884                   22405521.2934
  -5956528.94947  -4639553.11345  22603727.6174                   22603725.5664
  -2642919.98447  -2058039.10543  23910485.5554                   23910483.9144
  -4902186.73848  -3815316.37946  20242250.2814                   20242247.6954
   8195362.95747   6367556.08645  22744852.9694                   22744850.8484
  -7605485.07047  -5918136.51646  21581941.7814                   21581937.7854
   9051322.73846   7034087.36343  24574618.1644                   24574619.8914
    876424.52048    679087.88746  20275575.2034                   20275571.1174
  -1885717.242 5                  24704426.094
 11  7 26 17 32 30.0000000  0 10G03G06G07G10G13G16G19G20G23G08
  -1616374.56648  -1258643.39146  20934201.3054                   20934199.5664
   1659253.07047   1288021.94945  22416489.4844                   22416488.0864
  -5999777.10547  -4673252.94945  22595497.6954                   22595495.4304
  -2628872.27747  -2047092.85544  23913158.2034                   23913157.7504
  -4912736.96148  -3823537.34847  20240242.4454                   20240239.6844
   8299012.78547   6448322.15244  22764576.8054                   22764574.6294
  -7646482.05947  -5950082.19546  21574139.8204                   21574136.5314
   9153334.43046   7113576.72743  24594030.5704                   24594033.1174
    927486.51648    718876.42246  20285291.7974                   20285287.9144
  -1938054.195 5                  24694466.227
 11  7 26 17 33  0.0000000  0 10G03G06G07G10G13G16G19G20G23G08
  -1586073.17248  -1235031.90246  20939967.7034                   20939965.8754
   1717363.89547   1333303.09445  22427547.6174                   22427546.2734
  -6043032.64147  -4706958.54345  22587266.2344                   22587264.1994
  -2614361.91447  -2035786.07844  23915920.2194                   23915919.3324
  -4922794.10548  -3831374.07847  20238328.7504                   20238326.0044
   8402723.28547   6529135.49644  22784312.3444                   22784309.4654
  -7687033.50847  -5981680.69146  21566423.0704                   21566419.7854
   9255201.28546   7192953.27744  24613415.7344                   24613418.1454
    979069.35248    759070.80946  20295107.7344                   20295103.9224
  -1990479.336 5                  24684489.063
 11  7 26 17 33 30.0000000  0 10G03G06G07G10G13G16G19G20G23G08
  -1555182.59848  -1210961.34046  20945846.0394                   20945844.3014
   1775947.48447   1378952.66045  22438694.6414                   22438694.0434
  -6086301.78147  -4740674.75445  22579032.6484                   22579030.2624
  -2599396.07847  -2024124.40244  23918767.4694                   23918767.5314
  -4932362.43048  -3838829.93747  20236507.8364                   20236505.3324
   8506486.53947   6609989.96945  22804058.0084                   22804055.2304
  -7727142.98047  -6012934.82846  21558790.3984                   21558787.3914
   9356914.64847   7272210.21144  24632771.5164                   24632773.5314
   1031166.36348    799665.85246  20305021.4614                   20305017.4844
  -2042999.109 6                  24674495.359
 11  7 26 17 34  0.0000000  0 10G03G06G07G10G13G16G19G20G23G08
  -1523699.83248  -1186429.32046  20951836.8984                   20951835.3164
   1835006.12147   1424972.34445  22449933.7344                   22449931.9574
  -6129580.04347  -4774398.04745  22570796.9614                   22570794.7504
  -2583971.90647  -2012105.58644  23921702.6954                   23921701.6954
  -4941436.55148  -3845900.69147  20234781.0084                   20234778.5274
   8610303.69547   6690886.37545  22823813.6484                   22823811.0474
  -7766804.46947  -6043839.83646  21551242.9224                   21551240.3714
   9458475.32047   7351348.16044  24652098.5554                   24652099.7704
   1083780.44548    840663.78946  20315033.9454                   20315029.3554
  -2095609.95346  -2457203.99253  24664484.4454                   24664484.4454
 11  7 26 17 34 30.0000000  0 10G03G06G07G10G13G16G19G20G23G08
  -1491627.47748  -1161437.90246  20957940.0004                   20957938.2034
   1894536.12147   1471359.34845  22461262.3134                   22461260.9924
  -6172869.50447  -4808130.08245  22562558.8284                   22562556.7234
  -2568092.34847  -1999731.94144  23924724.7664                   23924724.6134
  -4950017.19948  -3852586.91847  20233148.5084                   20233145.5084
   8714170.31347   6771821.34445  22843578.9064                   22843576.0044
  -7806017.59447  -6074395.49246  21543781.0704                   21543778.1334
   9559878.83247   7430363.67643  24671394.4534                   24671396.1484
   1136908.87148    882062.53146  20325143.8754                   20325139.4844
  -2148314.51246  -2498272.40643  24654454.8674                   24654454.7424
 11  7 26 17 35  0.0000000  0 10G03G06G07G10G13G16G19G20G23G08
  -1458958.25048  -1135981.37146  20964157.3754                   20964155.3594
   1954543.63348   1518118.41845  22472680.9694                   22472679.3954
  -6216162.08647  -4841864.53545  22554320.7274                   22554318.4774
  -2551750.66847  -1986998.20744  23927834.3984                   23927833.7734
  -4958094.60248  -3858881.00847  20231611.2584                   20231608.4494
   8818091.87547   6852799.15245  22863354.2734                   22863351.4844
  -7844772.56247  -6104594.13346  21536406.2894                   21536403.2624
   9661130.27046   7509260.65643  24690661.6094                   24690664.6954
   1190558.65248    923867.51246  20335353.2194                   20335349.1764
  -2201105.54746  -2539408.16443  24644408.2344                   24644409.2664
 11  7 26 17 35 30.0000000  0 10G03G06G07G10G13G16G19G20G23G08
  -1425696.33248  -1110062.99646  20970486.6414                   20970485.0314
   2015023.62547   1565245.70345  22484190.1564                   22484188.1334
  -6259461.23447  -4875604.11345  22546081.0784                   22546079.0944
  -2534951.89847  -1973908.27744  23931031.2974                   23931030.6454
  -4965671.80148  -3864785.33647  20230169.3054                   20230166.5394
   8922062.37947   6933815.09444  22883139.1024                   22883136.8954
  -7883070.30947  -6134436.51646  21529118.3364                   21529115.1844
   9762223.61346   7588034.46144  24709899.5394                   24709902.2464
   1244725.53948    966075.43846  20345660.5234                   20345656.4024
  -2253986.64846  -2580614.14843  24634345.0164                   24634345.0394
 11  7 26 17 36  0.0000000  0 10G03G06G07G10G13G16G19G20G23G08
  -1391836.48848  -1083678.71946  20976929.9614                   20976928.1454
   2075980.77347   1612744.75445  22495790.0084                   22495788.0514
  -6302760.50447  -4909343.78945  22537841.0634                   22537839.0704
  -2517690.64847  -1960457.99244  23934316.1484                   23934315.6174
  -4972740.98048  -3870293.79746  20228824.0554                   20228821.6524
   9026086.08647   7014872.47345  22902934.2734                   22902931.7854
  -7920902.39847  -6163916.03946  21521919.1804                   21521916.0984
   9863162.37546   7666687.81643  24729108.0004                   24729110.6724
   1299415.03948   1008690.59846  20356067.7664                   20356063.5314
  -2306952.01246  -2621885.80942  24624266.9924                   24624266.1094
 11  7 26 17 36 30.0000000  0 10G03G06G07G10G13G16G19G20G23G08
  -1357379.49648  -1056829.16046  20983486.7114                   20983484.9264
   2137413.64548   1660614.48445  22507480.9384                   22507478.7384
  -6346059.48047  -4943083.24245  22529602.0704                   22529599.7274
  -2499968.28547  -1946648.37944  23937688.8834                   23937687.8364
  -4979300.38748  -3875405.03146  20227575.9454                   20227573.2894
   9130160.69547   7095969.56344  22922739.1804                   22922736.5514
  -7958266.61347  -6193030.97746  21514809.1024                   21514806.6174
   9963943.94946   7745218.65643  24748286.0944                   24748289.0594
   1354625.97348   1051712.05546  20366574.2194                   20366569.8364
  -2360002.17246  -2663223.53943  24614170.9694                   24614170.7974
 11  7 26 17 37  0.0000000  0 10G03G06G07G10G13G16G19G20G23G08
  -1322326.41848  -1029515.05546  20990157.1484                   20990155.5904
   2199319.44947   1708852.79345  22519260.6094                   22519259.3634
  -6389358.70747  -4976822.87945  22521362.3134                   22521359.9384
  -2481786.31247  -1932480.63344  23941148.7664                   23941148.3404
  -4985349.06248  -3880118.30947  20226424.9694                   20226422.6024
   9234283.30147   7177103.98045  22942553.1414                   22942550.6564
  -7995161.23048  -6221780.01246  21507788.4844                   21507785.3714
  10064565.21546   7823624.57843  24767434.5944                   24767436.7034
   1410357.27348   1095139.02046  20377179.4844                   20377175.2034
  -2413137.84445  -2704627.86342  24604060.4304                   24604059.1174
 11  7 26 17 37 30.0000000  0 10G03G06G07G10G13G16G19G20G23G08
  -1286674.26648  -1001734.18746  20996941.2424                   20996939.9574
   2261701.10947   1757461.84445  22531131.9774                   22531130.0904
  -6432653.49247  -5010559.07045  22513123.2114                   22513121.6174
  -2463141.69147  -1917952.40244  23944696.4774                   23944695.7704
  -4990881.66048  -3884429.43447  20225372.3524                   20225369.6134
   9338455.85247   7258277.38745  22962377.1024                   22962373.2464
  -8031579.91447  -6250158.18446  21500857.9774                   21500854.5864
  10165027.75846   7901906.84443  24786550.7034                   24786554.0044
   1466611.84848   1138973.70746  20387884.3914                   20387880.2114
  -2466355.51645  -2746096.14542  24593933.2344                   24593932.4694
 11  7 26 17 38  0.0000000  0 10G03G06G07G10G13G16G19G20G23G08
  -1250418.42248   -973482.89146  21003840.7584                   21003838.9924
   2324562.03547   1806444.34845  22543093.6644                   22543092.1724
  -6475938.52047  -5044287.62945  22504886.5084                   22504884.6844
  -2444030.40247  -1903060.52344  23948332.9534                   23948332.5234
  -4995891.27048  -3888333.03946  20224418.7274                   20224416.2974
   9442681.36347   7339492.06345  22982209.7974                   22982207.2974
  -8067515.32847  -6278159.76646  21494019.7034                   21494016.3094
  10265334.17246   7980067.48843  24805639.2974                   24805641.5864
   1523394.40648   1183219.81346  20398689.6254                   20398685.7154
  -2519650.16046  -2787624.44142  24583791.7274                   24583790.8164
 11  7 26 17 38 30.0000000  0 10G03G06G07G10G13G16G19G20G23G08
  -1213557.84448   -944760.36746  21010855.3134                   21010853.4964
   2387902.39147   1855800.46545  22555146.9144                   22555145.2734
  -6519211.71947  -5078006.98445  22496652.0234                   22496649.3484
  -2424451.84847  -1887804.53144  23952058.5944                   23952058.5084
  -5000375.16848  -3891826.99647  20223565.5394                   20223562.9304
   9546959.32847   7420747.57844  23002053.4924                   23002050.7344
  -8102963.18447  -6305781.46146  21487274.1884                   21487270.8244
  10365483.92246   8058105.98042  24824697.8054                   24824699.2034
   1580705.91848   1227878.09846  20409595.7114                   20409591.6804
  -2573020.26245  -2829211.44943  24573635.3054                   24573636.0594
 11  7 26 17 39  0.0000000  0 10G03G06G07G10G13G16G19G20G23G08
  -1176095.75448   -915569.13746  21017983.8754                   21017982.5314
   2451717.91447   1905526.85945  22567290.4844                   22567288.2934
  -6562475.41847  -5111718.94545  22488419.6484                   22488417.1524
  -2404410.27747  -1872187.72744  23955872.4844                   23955872.3094
  -5004334.73048  -3894912.38747  20222812.2734                   20222809.4694
   9651284.78947   7502040.08245  23021906.0704                   23021903.9104
  -8137924.05947  -6333023.68746  21480621.4924                   21480617.8134
  10465471.70345   8136018.33242  24843724.2114                   24843727.6254
   1638542.52748   1272945.54746  20420601.7974                   20420597.5434
  -2626468.77345  -2870859.54742  24563463.7584                   24563464.2774
 11  7 26 17 39 30.0000000  0 10G03G06G07G10G13G16G19G20G23G08
  -1138027.91448   -885905.91446  21025228.4144                   21025226.7344
   2516012.05547   1955626.13345  22579525.4064                   22579523.7894
  -6605723.87147  -5145419.02345  22480189.6564                   22480187.4104
  -2383901.02747  -1856206.54344  23959776.2034                   23959775.0944
  -5007762.89148  -3897583.69147  20222160.1254                   20222156.9184
   9755661.12547   7583372.26644  23041768.3524                   23041765.8954
  -8172390.36348  -6359880.52346  21474062.9064                   21474058.9064
  10565300.25845   8213806.58242  24862720.6804                   24862724.9494
   1696908.52348   1318425.50446  20431708.5634                   20431704.0864
  -2679990.59046  -2912564.86342  24553280.0084                   24553279.4884
 11  7 26 17 40  0.0000000  0 10G03G06G07G10G13G16G19G20G23G08
  -1099351.25448   -855768.27346  21032588.1414                   21032586.0004
   2580787.47747   2006100.44145  22591851.5554                   22591850.6844
  -6648952.71547  -5179103.81645  22471963.0704                   22471960.9654
  -2362921.55947  -1839858.97344  23963767.9694                   23963767.7504
  -5010654.53948  -3899836.93446  20221609.5784                   20221606.6334
   9860090.00847   7664745.37945  23061640.4774                   23061637.9844
  -8206355.88348  -6386347.13746  21467599.3364                   21467595.7034
  10664971.08646   8291471.91043  24881688.6644                   24881692.0084
   1755807.16048   1364320.49646  20442916.7504                   20442912.2154
  -2733582.03546  -2954324.29342  24543081.7734                   24543080.2814
 11  7 26 17 40 30.0000000  0 10G03G06G07G10G13G16G19G20G23G08
  -1060076.54348   -825164.62146  21040061.7814                   21040060.2894
   2646032.08247   2056940.38345  22604267.4534                   22604266.2384
  -6692171.84847  -5212781.03945  22463738.9694                   22463736.4344
  -2341483.10947  -1823153.71944  23967847.8054                   23967847.2464
  -5013018.30548  -3901678.85247  20221159.9304                   20221157.1294
   9964559.64547   7746150.25045  23081520.4064                   23081518.4414
  -8239828.48847  -6412429.66046  21461229.6414                   21461226.0784
  10764471.67246   8369004.62542  24900622.5394                   24900626.0984
   1815227.84048   1410622.27346  20454224.0784                   20454219.4224
  -2787253.28546  -2996146.02042  24532868.9304                   24532867.1564
 11  7 26 17 41  0.0000000  0 10G03G06G07G10G13G16G19G20G23G08
  -1020197.44548   -794090.01246  21047650.3984                   21047649.0784
   2711752.02747   2108150.71545  22616773.2974                   22616772.3164
  -6735373.06648  -5246444.30945  22455518.0704                   22455516.0164
  -2319579.58647  -1806086.09044  23972015.7974                   23972015.9614
  -5014845.34048  -3903102.52346  20220812.2114                   20220809.4844
  10069075.26247   7827590.94945  23101408.9384                   23101406.5824
  -8272798.61748  -6438120.65246  21454955.6254                   21454952.0234
  10863807.14546   8446408.66042  24919525.8444                   24919529.3794
   1875176.75848   1457335.67646  20465631.8444                   20465627.2624
  -2840997.45346  -3038024.52742  24522641.9534                   24522639.3244
 11  7 26 17 41 30.0000000  0  9G03G06G07G10G13G16G19G23G08
  -2555141.43048  -1990150.27746  20755560.7974                   20755558.8914
   1202519.43847    932125.30545  22329576.1724                   22329574.4414
  -8353985.55547  -6507700.77346  22147506.2664                   22147504.1174
  -3872639.30947  -3016262.50044  23676478.3444                   23676477.9384
  -6591562.44148  -5131713.27346  19920772.7274                   19920769.8794
   8598210.26647   6681462.34845  22821512.5084                   22821510.1724
  -9880693.18047  -7691025.47746  21148983.7034                   21148979.8524
    360226.95748    276855.28546  20177346.8204                   20177342.5234
  -4470244.03546  -4307567.23042  24212605.4844                   24212605.1174
 11  7 26 17 42  0.0000000  0  9G03G06G07G10G13G16G19G23G08
  -2514069.02348  -1958145.82046  20763376.1564                   20763374.7664
   1269171.56647    984062.00045  22342259.2734                   22342257.9734
  -8397162.69547  -6541345.27745  22139289.7344                   22139288.3714
  -3849821.80147  -2998482.68044  23680820.1334                   23680819.4304
  -6592325.04748  -5132307.52046  19920627.7274                   19920625.1954
   8702798.73847   6762959.82444  22841415.3754                   22841413.2344
  -9912664.86347  -7715938.44946  21142899.4924                   21142895.8164
    421216.55148    324379.59046  20188952.5704                   20188948.6294
  -4524146.78146  -4349569.34442  24202348.4774                   24202347.8444
 11  7 26 17 42 30.0000000  0  9G03G06G07G10G13G16G19G23G08
  -2472390.80147  -1925669.29745  20771307.3444                   20771306.1684
   1336297.40247   1036367.82445  22355032.9304                   22355031.6994
  -8440316.78547  -6574971.83245  22131077.8834                   22131075.4264
  -3826538.85547  -2980340.17644  23685251.3204                   23685250.2974
  -6592543.16448  -5132477.49246  19920585.8754                   19920583.3834
   8807430.77047   6844491.24244  22861326.2584                   22861323.8284
  -9944123.62947  -7740451.75846  21136913.0234                   21136909.6334
    482734.97348    372315.97746  20200659.1884                   20200654.9264
  -4578118.70746  -4391625.31243  24192077.7114                   24192076.7814
 11  7 26 17 43  0.0000000  0  9G03G06G07G10G13G16G19G23G08
  -2430102.92247  -1892717.72346  20779354.1564                   20779353.1804
   1403900.97347   1089045.92245  22367897.6334                   22367896.3794
  -8483442.07047  -6608575.94146  22122871.3284                   22122869.2974
  -3802786.80947  -2961832.10944  23689770.1414                   23689770.9344
  -6592210.03948  -5132217.93046  19920649.6024                   19920647.0514
   8912109.75047   6926059.25444  22881246.2664                   22881243.2934
  -9975061.72348  -7764559.34046  21131025.6954                   21131021.9614
    544787.20748    420668.32046  20212467.5164                   20212463.3794
  -4632154.33246  -4433730.94143  24181794.8524                   24181793.7894
 11  7 26 17 43 30.0000000  0  9G03G06G07G10G13G16G19G23G08
  -2387207.68747  -1859292.86346  20787517.1804                   20787515.6564
   1471978.62547   1142093.43445  22380851.8984                   22380851.2624
  -8526539.58247  -6642158.41446  22114669.7504                   22114668.4104
  -3778568.31647  -2942960.58244  23694379.1644                   23694379.2384
  -6591326.02748  -5131529.10246  19920817.8054                   19920815.4144
   9016832.06647   7007661.02044  22901173.7894                   22901170.5984
 -10005479.01248  -7788261.10946  21125237.7584                   21125233.7154
    607370.28948    469434.32446  20224376.5164                   20224372.3524
  -4686255.67246  -4475887.78943  24171500.0554                   24171499.9654
 11  7 26 17 44  0.0000000  0  9G03G06G07G10G13G16G19G23G08
  -2343716.97747  -1825404.01646  20795793.0864                   20795791.4924
   1540517.89847   1195500.62945  22393894.7344                   22393894.0084
  -8569619.67647  -6675727.30145  22106472.4224                   22106470.5394
  -3753895.57046  -2923735.10244  23699073.4844                   23699074.2774
  -6589900.87147  -5130418.60246  19921089.1024                   19921086.3754
   9121585.07847   7089286.69944  22921107.6094                   22921105.0824
 -10035384.03148  -7811563.71546  21119546.5164                   21119543.4064
    670472.59048    518604.89846  20236384.4774                   20236380.4064
  -4740433.69546  -4518104.37143  24161190.1804                   24161190.4924
 11  7 26 17 44 30.0000000  0  9G03G06G07G10G13G16G19G23G08
  -2299625.14148  -1791046.76645  20804183.6954                   20804182.0234
   1609523.54747   1249271.24645  22407026.1954                   22407025.5634
  -8612675.13347  -6709276.98445  22098278.9144                   22098277.0394
  -3728763.30546  -2904151.55944  23703856.4224                   23703856.4774
  -6587926.75048  -5128880.34847  19921464.9224                   19921461.7734
   9226373.59847   7170940.06344  22941048.2034                   22941046.0314
 -10064768.38747  -7834460.60546  21113955.0864                   21113951.5044
    734099.32048    568184.13346  20248492.0234                   20248488.2304
  -4794682.07446  -4560375.79743  24150866.4224                   24150866.8484
 11  7 26 17 45  0.0000000  0  9G03G06G07G10G13G16G19G23G08
  -2254941.10547  -1756228.04745  20812686.5474                   20812685.1804
   1678986.34047   1303398.06345  22420244.5234                   22420244.0704
  -8655713.15647  -6742813.09445  22090089.4534                   22090087.2504
  -3703180.40646  -2884216.85944  23708724.8754                   23708725.0044
  -6585410.01247  -5126919.27046  19921943.6334                   19921941.5004
   9331187.74247   7252613.38744  22960993.7734                   22960991.6094
 -10093637.30548  -7856955.85546  21108461.2344                   21108457.5274
    798241.87948    618165.30946  20260698.2894                   20260694.0204
  -4849008.43745  -4602707.97343  24140527.8914                   24140528.6804
 11  7 26 17 45 30.0000000  0  9G03G06G07G10G13G16G19G23G08
  -2209665.09447  -1720948.03545  20821302.4064                   20821300.9844
   1748905.01247   1357880.14145  22433549.2734                   22433549.4264
  -8698732.37147  -6776334.54745  22081902.6334                   22081901.2194
  -3677147.33646  -2863931.39143  23713678.0164                   23713678.5044
  -6582348.48048  -5124533.67646  19922526.3524                   19922523.6374
   9436026.21946   7334305.65644  22980943.6884                   22980941.9804
 -10121988.07047  -7879047.35246  21103066.1884                   21103062.6954
    862900.15248    668548.34446  20273002.4384                   20272998.7114
  -4903412.30945  -4645100.53142  24130174.6884                   24130175.0824
 11  7 26 17 46  0.0000000  0  9G03G06G07G10G13G16G19G23G08
  -2163802.59847  -1685211.04345  20830029.6564                   20830027.9144
   1819273.40647   1412712.62545  22446940.5004                   22446939.3674
  -8741736.70747  -6809844.40645  22073719.2734                   22073717.1334
  -3650670.03546  -2843299.78544  23718717.2424                   23718717.8134
  -6578745.70748  -5121726.34446  19923211.8754                   19923209.1914
   9540882.70747   7416011.96144  23000897.2274                   23000895.5474
 -10149823.08648  -7900736.98046  21097769.2504                   21097765.7774
    928068.42248    719328.76246  20285403.5084                   20285399.8364
  -4957898.16445  -4687557.03942  24119808.0394                   24119805.2274
 11  7 26 17 46 30.0000000  0  9G03G06G07G10G13G16G19G23G08
  -2117346.15647  -1649011.21945  20838869.9614                   20838868.5744
   1890098.07447   1467900.65245  22460417.6334                   22460417.1764
  -8784717.02047  -6843335.55545  22065540.9144                   22065538.5314
  -3623741.48046  -2822316.53144  23723841.4144                   23723842.3134
  -6574592.15648  -5118489.82446  19924002.3754                   19923999.4534
   9645764.04747   7497737.63344  23020856.1484                   23020853.6644
 -10177131.96147  -7922016.60246  21092572.5234                   21092569.1884
    993754.05148    770512.33246  20297903.1024                   20297899.3954
  -5012457.21945  -4730070.49242  24109425.9924                   24109423.8404
 11  7 26 17 47  0.0000000  0  9G03G06G07G10G13G16G19G23G08
  -2070306.83648  -1612357.20745  20847821.3524                   20847819.4534
   1961367.83647   1523435.50845  22473979.9384                   22473979.1054
  -8827682.43447  -6876815.08245  22057364.5474                   22057361.9494
  -3596372.71146  -2800990.23043  23729049.3674                   23729049.7504
  -6569895.68448  -5114830.25046  19924896.0784                   19924892.7194
   9750658.43447   7579473.48844  23040816.7424                   23040814.3204
 -10203922.23047  -7942892.12546  21087474.5784                   21087470.9494
   1059946.24248    822090.60946  20310498.8834                   20310495.1644
  -5067099.46145  -4772648.80942  24099026.4224                   24099026.1954
 11  7 26 17 47 30.0000000  0  9G03G06G07G10G13G16G19G23G08
  -2022682.08248  -1575247.02346  20856884.0164                   20856882.2194
   2033084.08247   1579318.28545  22487627.0554                   22487626.5704
  -8870628.89847  -6910279.84445  22049192.0944                   22049189.4304
  -3568561.69946  -2779319.35244  23734340.9694                   23734341.9454
  -6564652.48048  -5110744.66046  19925893.5474                   19925891.0594
   9855567.76647   7661220.95744  23060780.7974                   23060778.3954
 -10230188.61747  -7963359.41846  21082476.3594                   21082473.1684
   1126647.15248    874065.30146  20323192.0944                   20323188.0004
  -5121821.72345  -4815289.53142  24088613.1254                   24088612.9494
 11  7 26 17 48  0.0000000  0  9G03G06G07G10G13G16G19G23G08
  -1974478.09047  -1537685.47346  20866056.9144                   20866055.1024
   2105240.15647   1635543.76645  22501357.8444                   22501356.9574
  -8913560.68047  -6943733.16845  22041022.5004                   22041019.8054
  -3540314.55946  -2757308.64844  23739716.5394                   23739717.9224
  -6558866.23848  -5106235.91046  19926994.9064                   19926992.0084
   9960485.09947   7742974.68044  23080745.4924                   23080742.7664
 -10255933.98047  -7983420.73446  21077577.1804                   21077573.5084
   1193850.78148    926431.71546  20335980.2194                   20335976.4844
  -5176628.53155  -4857996.09852  24078184.7114                   24078183.6564
 11  7 26 17 48 30.0000000  0  9G03G06G07G10G13G16G19G23G08
  -1925693.35548  -1499671.40645  20875340.3834                   20875338.8594
   2177836.98847   1692112.71145  22515172.9144                   22515171.7154
  -8956474.44947  -6977172.45745  22032856.5084                   22032853.2074
  -3511630.32447  -2734957.32044  23745175.4614                   23745176.2544
  -6552532.74648  -5101300.74646  19928200.3754                   19928197.2074
  10065411.31347   7824735.34044  23100712.7814                   23100709.8874
 -10281153.37148  -8003072.18746  21072778.2894                   21072774.5594
   1261558.75448    979191.12546  20348864.5084                   20348860.6094
  -5231517.19145  -4900766.38342  24067738.4144                   24067738.8834
 11  7 26 17 49  0.0000000  0  9G03G06G07G10G13G16G19G23G08
  -1876331.23848  -1461207.43046  20884733.5944                   20884731.7464
   2250870.40647   1749021.84445  22529070.2814                   22529070.0824
  -8999371.80547  -7010598.95745  22024692.8594                   22024690.7464
  -3482512.76647  -2712268.37943  23750716.7034                   23750716.2974
  -6545653.37948  -5095940.21946  19929509.3914                   19929506.4264
  10170342.19147   7906499.61744  23120680.1954                   23120677.4614
 -10305847.42248  -8022314.29346  21068079.2424                   21068075.6914
   1329767.46948   1032340.72746  20361844.3754                   20361840.3674
  -5286490.07045  -4943602.32042  24057278.2974                   24057278.0824
 11  7 26 17 49 30.0000000  0  9G03G06G07G10G13G16G19G23G08
  -1826395.28548  -1422296.32046  20894236.3754                   20894234.5864
   2324336.58247   1806268.22345  22543050.1884                   22543050.1914
  -9042253.97747  -7044013.62145  22016533.2424                   22016530.6134
  -3452965.30946  -2689244.43043  23756338.6024                   23756339.5984
  -6538229.13747  -5090155.12146  19930922.0554                   19930919.2934
  10275274.25046   7988264.81344  23140647.8444                   23140645.6054
 -10330016.25447  -8041147.13346  21063479.8524                   21063476.6374
   1398473.80148   1085878.07846  20374919.1334                   20374914.8554
  -5341549.00045  -4986505.34042  24046801.0234                   24046800.2774
 11  7 26 17 50  0.0000000  0  9G03G06G07G10G13G16G19G23G08
  -1775885.10948  -1382937.73046  20903847.9064                   20903846.7154
   2398234.98847   1863851.35545  22557113.1954                   22557112.4884
  -9085118.82447  -7077414.80145  22008376.0084                   22008373.6914
  -3422987.89847  -2665885.42644  23762043.9694                   23762043.9534
  -6530257.49248  -5083943.46946  19932438.9224                   19932436.1564
  10380206.95746   8070030.50444  23160615.8054                   23160613.9534
 -10353656.29348  -8059567.93046  21058981.4144                   21058977.7734
   1467677.91848   1139803.31646  20388088.1024                   20388084.4844
  -5396692.60245  -5029474.33642  24036306.9384                   24036307.1914
 11  7 26 17 50 30.0000000  0  9G03G06G07G10G13G16G19G23G08
  -1724804.61748  -1343134.75845  20913568.4534                   20913566.5664
   2472561.58247   1921768.15645  22571256.9844                   22571256.0124
  -9127968.10947  -7110803.84045  22000221.7584                   22000219.5704
  -3392584.52747  -2642194.52744  23767829.3444                   23767829.6454
  -6521739.78948  -5077306.31246  19934059.8444                   19934056.9144
  10485136.29747   8151793.56644  23180583.5314                   23180581.3834
 -10376768.16848  -8077577.16046  21054583.1954                   21054579.7154
   1537376.36748   1194113.73846  20401351.2274                   20401347.0904
  -5451923.22746  -5072511.12543  24025797.6644                   24025797.6334
 11  7 26 17 51  0.0000000  0  9G03G06G07G10G13G16G19G23G08
  -1673152.71548  -1302886.53146  20923397.6334                   20923396.2544
   2547316.24647   1980018.52045  22585482.6954                   22585481.1414
  -9170799.04747  -7144178.58245  21992071.5864                   21992069.4494
  -3361754.50047  -2618171.17244  23773696.1484                   23773696.0274
  -6512672.97748  -5070241.28946  19935785.2894                   19935782.3874
  10590062.76246   8233554.42244  23200550.0944                   23200548.1454
 -10399347.87547  -8095171.71946  21050286.3754                   21050283.0234
   1607569.63748   1248809.73846  20414708.5234                   20414704.9574
  -5507238.88746  -5115614.18743  24015270.1094                   24015270.2734
 11  7 26 17 51 30.0000000  0  9G03G06G07G10G13G16G19G23G08
  -1620929.32448  -1262192.99246  20933335.6024                   20933333.7424
   2622498.64147   2038602.19545  22599788.9694                   22599788.1724
  -9213609.52747  -7177537.39545  21983924.8054                   21983922.6214
  -3330497.96546  -2593815.46543  23779644.2974                   23779644.3284
  -6503054.52348  -5062746.40646  19937615.9144                   19937612.8204
  10694985.57046   8315312.40644  23220516.2974                   23220514.2304
 -10421392.21548  -8112349.11746  21046091.4774                   21046087.8984
   1678258.20348   1303891.68446  20428160.1174                   20428156.2664
  -5562637.76246  -5158782.08243  24004728.4224                   24004728.4064
 11  7 26 17 52  0.0000000  0  9G03G06G07G10G13G16G19G23G08
  -1568136.58648  -1221055.79346  20943381.5474                   20943379.4344
   2698106.23847   2097517.17645  22614176.4384                   22614176.0514
  -9256399.16047  -7210879.94945  21975782.1724                   21975780.5824
  -3298816.81646  -2569128.89143  23785672.7424                   23785672.9144
  -6492884.21948  -5054821.50846  19939551.1804                   19939548.2734
  10799902.50846   8397065.82844  23240480.9614                   23240479.2734
 -10442900.01647  -8129108.42246  21041998.5704                   21041995.2774
   1749440.05548   1359358.02046  20441705.6954                   20441701.8014
  -5618120.49646  -5202015.29743  23994171.2974                   23994170.6804
 11  7 26 17 52 30.0000000  0  9G03G06G07G10G13G16G19G23G08
  -1514780.04748  -1179479.28546  20953535.0474                   20953533.2384
   2774132.96547   2156758.77044  22628644.8984                   22628642.6214
  -9299171.47347  -7244209.00045  21967643.1804                   21967640.9024
  -3266716.87147  -2544115.99644  23791782.1644                   23791781.6334
  -6482164.97348  -5046468.87146  19941590.9304                   19941588.0824
  10904807.73846   8478810.13744  23260444.2664                   23260442.5084
 -10463873.60248  -8145451.46146  21038007.6414                   21038003.9804
   1821109.41448   1415204.21946  20455343.8364                   20455340.4224
  -5673691.12546  -5245317.01643  23983596.8914                   23983596.5744
 11  7 26 17 53  0.0000000  0  9G03G06G07G10G13G16G19G23G08
  -1460870.15248  -1137471.57846  20963793.7114                   20963792.0944
   2850567.82047   2216318.35545  22643189.2504                   22643188.8714
  -9341934.87947  -7277531.11345  21959505.5394                   21959503.2934
  -3234208.87947  -2518785.12544  23797968.1954                   23797967.9264
  -6470905.27747  -5037695.10246  19943733.6334                   19943730.9344
  11009690.61746   8560537.00844  23280402.6884                   23280400.4534
 -10484319.96148  -8161383.67646  21034116.6724                   21034113.3404
   1893255.96948   1471422.25846  20469072.8284                   20469068.8484
  -5729358.75446  -5288694.37143  23973003.5784                   23973002.2074
 11  7 26 17 53 30.0000000  0  9G03G06G07G10G13G16G19G23G08
  -1406400.25048  -1095027.50445  20974159.0944                   20974157.3444
   2927416.89147   2276200.69545  22657813.5634                   22657813.0474
  -9384680.59047  -7310839.44545  21951371.6334                   21951368.6214
  -3201286.38347  -2493131.29743  23804232.6954                   23804231.9614
  -6459096.03548  -5028493.10546  19945980.5864                   19945977.9344
  11114557.54347   8642251.43444  23300358.2814                   23300356.5824
 -10504229.83248  -8176897.83646  21030328.1884                   21030324.4104
   1965886.48048   1528017.41446  20482894.2814                   20482890.6884
  -5785115.27346  -5332140.91443  23962393.0394                   23962392.5204
 11  7 26 17 54  0.0000000  0  9G03G06G07G10G13G16G19G23G08
  -1351362.28548  -1052140.77745  20984632.2974                   20984630.3524
   3004687.87147   2336411.82045  22672517.8364                   22672516.8634
  -9427398.30547  -7344125.95345  21943242.5394                   21943240.1094
  -3167941.39846  -2467148.23044  23810578.0084                   23810577.6564
  -6446726.84847  -5018854.80946  19948334.4144                   19948331.6844
  11219416.43446   8723959.63344  23320312.3834                   23320310.8134
 -10523591.31247  -8191984.69146  21026643.2504                   21026640.1954
   2039009.02748   1584995.97346  20496809.0394                   20496805.2234
  -5840950.85546  -5375649.09043  23951768.0004                   23951766.5354
 11  7 26 17 54 30.0000000  0 10G03G06G07G10G13G16G19G28G23G08
  -1295770.88748  -1008822.80945  20995210.9384                   20995209.2194
   3082365.56347   2396939.86745  22687299.0634                   22687297.8364
  -9470099.74247  -7377399.78945  21935116.4224                   21935114.4104
  -3134188.83646  -2440847.57844  23817000.5394                   23817001.0824
  -6433809.72748  -5008789.53946  19950792.3914                   19950789.9454
  11324252.51246   8805650.05144  23340261.7194                   23340260.2774
 -10542416.24247  -8206653.43746  21023060.9064                   21023057.8164
  -3226318.31615                  24595769.016
   2112609.21548   1642346.72346  20510814.5084                   20510810.4844
  -5896878.48446  -5419229.00443  23941124.7274                   23941124.2624
 11  7 26 17 55  0.0000000  0 10G03G06G07G10G13G16G19G28G23G08
  -1239632.88348   -965078.91045  21005893.5314                   21005892.0984
   3160442.23447   2457778.80945  22702157.3134                   22702156.0514
  -9512790.18047  -7410665.05145  21926992.5234                   21926990.6254
  -3100036.06647  -2414235.05543  23823499.9224                   23823500.1994
  -6420350.16047  -4998301.58246  19953353.8834                   19953351.0944
  11429058.28146   8887316.81644  23360206.0554                   23360204.1094
 -10560708.86747  -8220907.42246  21019579.9844                   21019576.7194
  -3287868.145 6                  24584056.813
   2186679.96948   1700064.13346  20524910.0554                   20524906.0234
  -5952904.18446  -5462885.32843  23930463.4144                   23930463.0984
 11  7 26 17 55 30.0000000  0 10G03G06G07G10G13G16G19G28G23G08
  -1182951.60248   -920911.68046  21016679.4924                   21016677.9144
   3238914.39847   2518925.93045  22717088.9774                   22717088.5744
  -9555470.72747  -7443922.60246  21918870.7584                   21918868.6374
  -3065486.26646  -2387313.23443  23830074.5784                   23830074.6524
  -6406348.48447  -4987391.20747  19956018.2194                   19956015.5514
  11533830.93846   8968957.83244  23380143.9224                   23380141.1374
 -10578468.70347  -8234746.22746  21016200.5004                   21016197.1414
  -3349257.75846  -2604793.13753  24572374.3984                   24572372.6524
   2261218.27348   1758145.87146  20539094.1724                   20539089.9574
  -6009028.76246  -5506618.73843  23919783.5864                   23919782.1994
 11  7 26 17 56  0.0000000  0 10G03G06G07G10G13G16G19G28G23G08
  -1125734.62148   -876327.05145  21027567.1334                   21027566.6684
   3317773.93847   2580374.89844  22732096.0554                   22732094.8094
  -9598146.37947  -7477176.36345  21910749.9924                   21910747.9104
  -3030547.05546  -2360087.93043  23836722.8364                   23836723.1094
  -6391809.64148  -4976062.26647  19958785.1644                   19958782.4774
  11638562.00046   9050566.39844  23400073.1414                   23400071.2154
 -10595700.35247  -8248173.46146  21012921.3524                   21012918.1094
  -3410492.56246  -2652508.41842  24560720.7504                   24560723.7464
   2336216.26248   1816585.81646  20553366.1414                   20553361.8284
  -6065258.28546  -5550433.93443  23909083.6414                   23909082.1024
 11  7 26 17 56 30.0000000  0 10G03G06G07G10G13G16G19G28G23G08
  -1067984.40248   -831326.86345  21038556.5474                   21038555.7544
   3397017.97747   2642123.45345  22747175.3984                   22747174.6804
  -9640817.05947  -7510426.22345  21902629.7114                   21902628.0554
  -2995220.98446  -2332561.15644  23843445.5944                   23843445.1994
  -6376734.21947  -4964315.20346  19961653.8054                   19961651.0274
  11743249.62146   9132141.13744  23419994.1804                   23419992.3594
 -10612403.00447  -8261188.49246  21009742.9384                   21009739.7074
  -3471572.87946  -2700103.41443  24549098.7504                   24549100.6994
   2411671.92648   1875382.38346  20567724.4694                   20567720.7154
  -6121593.35946  -5594331.30542  23898363.2664                   23898361.3794
 11  7 26 17 57  0.0000000  0 10G03G06G07G10G13G16G19G28G23G08
  -1009695.12148   -785906.66445  21049648.8914                   21049647.4344
   3476652.21947   2704176.08645  22762329.8594                   22762328.5944
  -9683474.38347  -7543665.68045  21894512.5314                   21894509.7854
  -2959501.97347  -2304728.21544  23850243.2344                   23850242.6604
  -6361114.08247  -4952143.69146  19964626.0234                   19964623.3874
  11847899.67246   9213686.57843  23439909.0554                   23439906.0044
 -10628567.45347  -8273784.14846  21006666.8524                   21006663.6414
  -3532490.31246  -2747571.41043  24537506.3754                   24537508.3714
   2487591.50448   1934540.44546  20582171.4224                   20582167.9304
  -6178026.40246  -5638305.03543  23887623.9774                   23887622.8404
 11  7 26 17 57 30.0000000  0 10G03G06G07G10G13G16G19G28G23G08
   -950869.00448   -740068.14845  21060843.5314                   21060841.8094
   3556673.34447   2766530.17645  22777556.8594                   22777556.2194
  -9726118.49247  -7576894.85545  21886397.3594                   21886395.2934
  -2923393.08246  -2276591.45744  23857114.0784                   23857114.6094
  -6344949.21548  -4939547.71947  19967702.1644                   19967699.4064
  11952509.39546   9295200.59444  23459814.8754                   23459812.9734
 -10644193.10947  -8285959.96146  21003693.7194                   21003689.9414
  -3593245.79346  -2794913.23843  24525944.9224                   24525947.1214
   2563972.15648   1994057.78146  20596706.5784                   20596702.7814
  -6234558.36346  -5682355.89543  23876866.1954                   23876865.9224
 11  7 26 17 58  0.0000000  0 10G03G06G07G10G13G16G19G28G23G08
   -891508.51648   -693813.23845  21072139.5944                   21072138.0824
   3637078.83647   2829183.77345  22792857.8594                   22792857.0354
  -9768748.99247  -7610113.41845  21878285.0944                   21878283.0124
  -2886896.87946  -2248152.91844  23864059.0704                   23864059.6054
  -6328239.44948  -4926527.14847  19970882.0234                   19970879.4104
  12057076.82846   9376681.67644  23479714.1724                   23479711.9024
 -10659279.16047  -8297715.30146  21000822.8134                   21000819.1094
  -3653839.15246  -2842128.77344  24514414.8914                   24514416.1334
   2640811.57448   2053932.58646  20611328.6884                   20611325.3244
  -6291189.73846  -5726484.18743  23866089.3364                   23866088.6334
 11  7 26 17 58 30.0000000  0 10G03G06G07G10G13G16G19G28G23G08
   -831611.44548   -647140.21545  21083537.7664                   21083536.3014
   3717870.28547   2892138.12945  22808232.3444                   22808231.2974
  -9811361.72347  -7643318.13345  21870176.5864                   21870174.3284
  -2850011.07846  -2219410.82443  23871077.6024                   23871078.4924
  -6310980.47348  -4913078.62146  19974166.4224                   19974163.6174
  12161603.93447   9458131.31644  23499605.2894                   23499602.3674
 -10673820.63747  -8309046.30146  20998055.6254                   20998052.0744
  -3714266.22346  -2889214.66843  24502915.8134                   24502917.4304
   2718112.23848   2114166.81646  20626038.3594                   20626034.8834
  -6347916.33647  -5770686.67643  23855295.5864                   23855294.6024
 11  7 26 17 59  0.0000000  0 10G03G06G07G10G13G16G19G28G23G08
   -771185.84848   -600055.36345  21095035.9614                   21095034.4924
   3799039.35947   2955386.73845  22823678.2894                   22823676.9774
  -9853961.66047  -7676512.88745  21862069.5394                   21862067.8134
  -2812743.48447  -2190371.21944  23878170.2194                   23878171.1724
  -6293178.00048  -4899206.59046  19977554.0004                   19977551.2704
  12266083.06346   9539543.57844  23519487.0864                   23519484.8674
 -10687821.80147  -8319956.27346  20995391.2974                   20995387.6414
  -3774532.56246  -2936175.36743  24491446.4614                   24491448.8484
   2795866.08248   2174754.17246  20640834.3594                   20640831.1884
  -6404744.01647  -5814967.94944  23844481.3984                   23844480.7384
 11  7 26 17 59 30.0000000  0 10G03G06G07G10G13G16G19G28G23G08
   -710225.74248   -552553.99645  21106636.4064                   21106634.8794
   3880591.48447   3018933.82845  22839196.2034                   22839196.4024
  -9896540.66447  -7709691.32845  21853967.1414                   21853965.0904
  -2775088.81647  -2161029.95344  23885335.7194                   23885336.2424
  -6274823.93747  -4884904.74246  19981046.6644                   19981044.0554
  12370520.11347   9620923.02744  23539360.8524                   23539358.9574
 -10701273.95747  -8330438.45346  20992831.3984                   20992827.4964
  -3834630.36347  -2983004.72744  24480011.0474                   24480013.0204
   2874079.00048   2235699.23046  20655718.0474                   20655714.4024
  -6461665.49647  -5859322.29344  23833649.2894                   23833648.5474
 11  7 26 18  0  0.0000000  0 11G03G06G07G10G13G16G19G28G23G08G11
   -648734.75048   -504638.93745  21118337.9924                   21118336.1804
   3962522.73847   3082776.35544  22854787.3364                   22854786.7114
  -9939099.32447  -7742853.88745  21845868.5704                   21845866.5944
  -2737050.52347  -2131389.81644  23892573.7194                   23892574.8164
  -6255919.48448  -4870174.03947  19984643.7664                   19984641.7074
  12474911.83646   9702267.18044  23559225.6334                   23559223.7734
 -10714177.32447  -8340492.98046  20990376.1564                   20990372.5004
  -3894561.01246  -3029703.85943  24468606.9384                   24468607.5474
   2952747.84048   2296999.58246  20670688.2274                   20670684.1564
  -6518681.98447  -5903750.70743  23822798.6334                   23822798.2274
  -3229208.42256  -2515635.96952  24695342.9534                   24695346.7704
 11  7 26 18  0 30.0000000  0 11G03G06G07G10G13G16G19G28G23G08G11
   -586719.43048   -456315.34045  21130139.0234                   21130137.2344
   4044825.97347   3146908.70744  22870449.4534                   22870448.3244
  -9981641.84047  -7776003.89845  21837773.3134                   21837770.6844
  -2698635.84447  -2101456.43743  23899885.1564                   23899884.6094
  -6236469.06247  -4855017.88747  19988345.0944                   19988343.2464
  12579251.63346   9783570.87944  23579080.9694                   23579078.8484
 -10726535.40647  -8350122.64546  20988023.9534                   20988020.9614
  -3954328.84446  -3076276.00843  24457232.3524                   24457234.4224
   3031865.53948   2358649.67246  20685744.0314                   20685740.2154
  -6575798.35547  -5948256.89844  23811930.6564                   23811929.4574
  -3292614.82446  -2565043.41842  24683276.4844                   24683280.3834
 11  7 26 18  1  0.0000000  0 11G03G06G07G10G13G16G19G28G23G08G11
   -524185.93048   -407587.93745  21142038.8284                   21142036.8594
   4127494.96147   3211326.04345  22886181.5784                   22886179.9304
 -10024171.35947  -7809143.77046  21829679.8284                   21829677.7384
  -2659850.45347  -2071234.08244  23907265.0394                   23907265.5044
  -6216476.27047  -4839439.10946  19992149.9064                   19992147.1684
  12683533.89547   9864829.75044  23598925.4694                   23598923.4534
 -10738351.25847  -8359329.78146  20985775.9064                   20985772.0744
  -4013937.53946  -3122724.21943  24445889.1174                   24445890.9804
   3111426.75448   2420645.34446  20700883.9534                   20700880.2934
  -6633018.64547  -5992844.06244  23801041.7114                   23801041.2814
  -3356207.42246  -2614596.01643  24671176.1024                   24671178.6414
 11  7 26 18  1 30.0000000  0 11G03G06G07G10G13G16G19G28G23G08G11
   -461134.98848   -358457.34845  21154037.0164                   21154035.0354
   4210528.66847   3276027.60545  22901982.3444                   22901981.3874
 -10066686.05147  -7842272.10945  21821589.7274                   21821587.5164
  -2620695.09046  -2040723.45343  23914715.8754                   23914717.0864
  -6195939.69147  -4823436.59846  19996057.9774                   19996055.6094
  12787757.87947   9946043.18044  23618758.7664                   23618755.9024
 -10749622.65647  -8368112.66846  20983630.9144                   20983627.2504
  -4073385.75846  -3169047.37543  24434575.1094                   24434577.2584
   3191430.62548   2482985.95346  20716108.2194                   20716104.4804
  -6690341.65247  -6037511.27343  23790132.9224                   23790132.4774
  -3419982.79746  -2664290.93442  24659040.0084                   24659042.6804
 11  7 26 18  2  0.0000000  0 11G03G06G07G10G13G16G19G28G23G08G11
   -397569.27748   -308925.63745  21166133.2894                   21166130.8364
   4293924.06647   3341010.98444  22917851.4454                   22917850.4264
 -10109185.66447  -7875388.67245  21813501.8674                   21813500.1524
  -2581172.55547  -2009926.74244  23922236.9454                   23922238.3874
  -6174859.33247  -4807010.36746  20000069.3364                   20000066.6684
  12891921.66047  10027209.72344  23638579.8674                   23638577.9964
 -10760348.89147  -8376470.75846  20981589.6174                   20981586.1994
  -4132673.63346  -3215245.66843  24423295.2974                   24423296.1994
   3271874.79348   2545669.65246  20731416.4454                   20731413.1094
  -6747767.95347  -6082259.00043  23779205.5004                   23779204.4734
  -3483939.42646  -2714127.07843  24646869.9384                   24646871.8714
 11  7 26 18  2 30.0000000  0 11G03G06G07G10G13G16G19G28G23G08G11
   -333486.41848   -258990.94945  21178327.2974                   21178326.0594
   4377682.97747   3406277.66844  22933790.3674                   22933788.7974
 -10151665.34047  -7908489.69946  21805418.4064                   21805416.3094
  -2541280.93446  -1978842.45344  23929828.5784                   23929828.6724
  -6153231.10547  -4790157.23446  20004185.0634                   20004182.6914
  12996027.53947  10108331.12943  23658391.3754                   23658388.3484
 -10770524.71147  -8384399.93446  20979653.0474                   20979649.8554
  -4191797.12546  -3261315.77343  24412042.8284                   24412045.1524
   3352761.06348   2608697.85246  20746808.3594                   20746805.4804
  -6805293.07847  -6127083.77743  23768259.0864                   23768257.7274
  -3548071.14146  -2764099.68042  24634665.3984                   24634667.8134
 11  7 26 18  3  0.0000000  0 11G03G06G07G10G13G16G19G28G23G08G11
   -268883.29748   -208650.86345  21190621.3914                   21190619.8554
   4461807.84447   3471829.45345  22949798.9144                   22949797.0744
 -10194119.60247  -7941570.93446  21797340.0314                   21797337.5784
  -2501017.14547  -1947468.12544  23937491.0394                   23937491.6484
  -6131049.85248  -4772873.16046  20008405.7894                   20008403.5434
  13100078.89846  10189410.06343  23678191.0394                   23678188.9414
 -10780144.14148  -8391895.57446  20977822.5704                   20977819.3554
  -4250750.92246  -3307253.66442  24400824.9844                   24400826.0474
   3434092.78948   2672073.14546  20762285.7114                   20762281.8484
  -6862912.25847  -6171981.79344  23757294.7734                   23757292.8404
  -3612370.62146  -2814203.03143  24622429.1094                   24622432.0984
 11  7 26 18  3 30.0000000  0 11G03G06G07G10G13G16G19G28G23G08G11
   -203760.80548   -157906.07845  21203013.1804                   21203012.1644
   4546297.96947   3537665.89845  22965876.8914                   22965875.2544
 -10236545.86348  -7974630.35246  21789266.4064                   21789263.8164
  -2460381.65647  -1915804.18044  23945222.9064                   23945223.5004
  -6108313.59047  -4755156.61346  20012732.8914                   20012730.4924
  13204075.74247  10270446.48043  23697981.3364                   23697978.4144
 -10789204.67648  -8398955.70746  20976098.8444                   20976095.2504
  -4309533.23446  -3353057.94143  24389638.6254                   24389640.6604
   3515869.46148   2735795.15246  20777846.8754                   20777843.7704
  -6920623.40647  -6216951.46143  23746312.7584                   23746310.9104
  -3676834.10946  -2864434.16443  24610161.4844                   24610164.7304
 11  7 26 18  4  0.0000000  0 11G03G06G07G10G13G16G19G28G23G08G11
   -138126.49648   -106762.47745  21215503.4224                   21215501.5434
   4631145.41847   3603780.77744  22982022.7664                   22982021.1884
 -10278949.03148  -8007671.77046  21781197.3674                   21781195.0204
  -2419382.27747  -1883856.68044  23953025.0474                   23953025.2274
  -6085027.75847  -4737011.83246  20017163.8134                   20017161.1254
  13308010.62546  10351434.68843  23717759.2424                   23717756.9304
 -10797710.63748  -8405583.71146  20974480.2664                   20974476.5594
  -4368149.29346  -3398732.66843  24378484.2344                   24378486.4574
   3598083.58648   2799858.03546  20793491.9304                   20793488.2624
  -6978432.21947  -6261997.25443  23735311.7194                   23735310.1094
  -3741464.95746  -2914795.69143  24597862.1644                   24597866.2664
 11  7 26 18  4 30.0000000  0 11G03G06G07G10G13G16G19G28G23G08G11
    -71985.11748    -55223.75045  21228089.6094                   21228088.3834
   4716345.04347   3670170.06644  22998235.8444                   22998234.3364
 -10321330.78548  -8040696.49646  21773132.1174                   21773130.2504
  -2378023.82847  -1851629.43044  23960895.5084                   23960895.5234
  -6061195.02048  -4718440.88746  20021699.1724                   20021696.7974
  13411879.37146  10432371.37543  23737524.8364                   23737521.4884
 -10805663.82047  -8411780.97746  20972966.4774                   20972963.2194
  -4426601.66446  -3444279.84443  24367360.7114                   24367362.8484
   3680730.41048   2864258.08646  20809219.2504                   20809216.2894
  -7036341.18447  -6307121.06243  23724291.9224                   23724290.4264
  -3806263.67646  -2965288.08243  24585531.5474                   24585534.8874
 11  7 26 18  5  0.0000000  0 11G03G06G07G10G13G16G19G28G23G08G11
     -5325.28948     -3281.05145  21240774.7194                   21240773.2034
   4801908.26247   3736842.68444  23014518.1174                   23014516.3634
 -10363676.69148  -8073693.30546  21765073.8364                   21765072.3164
  -2336294.97346  -1819113.48444  23968836.4694                   23968836.3634
  -6036801.35947  -4699432.86346  20026341.2974                   20026338.6724
  13515694.05946  10513265.93443  23757279.8984                   23757277.7274
 -10813049.38747  -8417535.94546  20971561.1644                   20971557.6524
  -4484876.30146  -3489688.52343  24356271.6954                   24356273.3954
   3763821.84048   2929004.57446  20825030.6174                   20825027.6094
  -7094336.69546  -6352312.34043  23713255.4694                   23713254.3554
  -3871214.00046  -3015898.53543  24573172.5234                   24573175.3914
 11  7 26 18  5 30.0000000  0 11G03G06G07G10G13G16G19G28G23G08G11
     61842.40648     49057.39845  21253556.2584                   21253555.0204
   4887824.28947   3803790.20344  23030867.4694                   23030866.0944
 -10405994.19948  -8106667.96546  21757021.1884                   21757019.1914
  -2294206.19947  -1786317.12944  23976846.4844                   23976846.1334
  -6011855.08647  -4679994.23046  20031088.0634                   20031085.6884
  13619444.72746  10594110.57043  23777022.2584                   23777021.6334
 -10819875.01648  -8422854.60246  20970262.4774                   20970258.2384
  -4542981.67247  -3534965.33243  24345215.0394                   24345215.9574
   3847347.47748   2994089.41446  20840925.3444                   20840922.2774
  -7152427.12147  -6397577.56643  23702200.5474                   23702200.3984
  -3936321.94946  -3066631.84043  24560782.2504                   24560785.7424
 11  7 26 18  6  0.0000000  0 11G03G06G07G10G13G16G19G28G23G08G11
    129515.61748    101789.75845  21266434.2194                   21266432.7304
   4974089.92247   3871010.13744  23047283.1884                   23047282.4774
 -10448283.32848  -8139620.51646  21748974.1254                   21748971.6644
  -2251760.16047  -1753242.35244  23984922.9844                   23984922.8284
  -5986356.87547  -4660125.51646  20035940.3754                   20035937.5944
  13723129.17246  10674903.58643  23796753.2584                   23796751.4614
 -10826140.40647  -8427736.71946  20969070.0474                   20969066.3204
  -4600917.93447  -3580110.37543  24334190.5474                   24334189.9964
   3931304.38748   3059510.30946  20856901.8754                   20856898.8914
  -7210612.34447  -6442916.65244  23691129.2664                   23691128.4924
  -4001585.94546  -3117486.75443  24548363.7344                   24548366.1054
 11  7 26 18  6 30.0000000  0 11G03G06G07G10G13G16G19G28G23G08G11
    197691.85247    154914.09445  21279407.5864                   21279406.1054
   5060702.53947   3938500.48444  23063764.4384                   23063764.1094
 -10490543.49648  -8172550.51646  21740932.3364                   21740930.0394
  -2208959.50846  -1719891.26643  23993067.1024                   23993067.9884
  -5960306.57447  -4639826.60546  20040897.4614                   20040894.5664
  13826745.34446  10755643.44143  23816471.1724                   23816470.3094
 -10831844.77048  -8432181.64546  20967984.4224                   20967980.8484
  -4658685.65247  -3625124.05143  24323197.0944                   24323198.8054
   4015690.41048   3125265.59046  20872960.3054                   20872956.7544
  -7268892.93747  -6488330.05544  23680038.3524                   23680036.6884
  -4067004.05146  -3168461.75043  24535914.6564                   24535917.3284
 11  7 26 18  7  0.0000000  0 11G03G06G07G10G13G16G19G28G23G08G11
    266374.08648    208432.68845  21292477.0314                   21292475.7344
   5147665.20346   4006263.56644  23080313.2424                   23080312.6214
 -10532768.41048  -8205453.02346  21732897.2974                   21732895.2814
  -2165800.73846  -1686261.10943  24001280.6484                   24001280.9304
  -5933699.09848  -4619093.52346  20045960.8134                   20045958.2464
  13930297.68446  10836333.51644  23836177.1254                   23836175.5514
 -10836982.02348  -8436184.68446  20967006.9224                   20967003.5234
  -4716278.65247  -3670001.59443  24312236.5944                   24312238.8134
   4100508.73448   3191357.71546  20889100.6094                   20889097.4654
  -7327263.55546  -6533813.61743  23668930.7664                   23668929.3594
  -4132568.59846  -3219550.86743  24523437.8834                   24523440.0824
 11  7 26 18  7 30.0000000  0 11G03G06G07G10G13G16G19G28G23G08G11
    335551.84048    262337.40245  21305641.5004                   21305639.4694
   5234966.87147   4074290.81344  23096925.3984                   23096925.6094
 -10574965.74648  -8238334.04346  21724867.4454                   21724864.8524
  -2122295.15246  -1652360.73843  24009559.6414                   24009558.8284
  -5906543.02048  -4597932.96946  20051128.5084                   20051126.0824
  14033775.51646  10916965.53944  23855868.1564                   23855865.7854
 -10841559.75448  -8439751.73846  20966135.7504                   20966132.1174
  -4773705.53547  -3714749.71143  24301309.1094                   24301310.3914
   4185748.98448   3257778.61346  20905321.5314                   20905318.0084
  -7385731.97747  -6579373.43043  23657804.1094                   23657804.1524
  -4198285.78546  -3270758.90243  24510932.3984                   24510934.2234
 11  7 26 18  8  0.0000000  0 11G03G06G07G10G13G16G19G28G23G08G11
    405226.08248    316629.00045  21318900.3984                   21318898.4734
   5322608.25846   4142582.78944  23113603.8134                   23113602.4344
 -10617131.23848  -8271190.26246  21716843.1884                   21716840.9304
  -2078441.28147  -1618188.99643  24017904.4694                   24017903.9924
  -5878834.73448  -4576342.12146  20056401.5944                   20056399.0084
  14137180.85546  10997541.03943  23875545.3524                   23875543.2034
 -10845573.54347  -8442879.35546  20965371.8984                   20965367.9774
  -4830963.08247  -3759365.84844  24290413.1954                   24290414.2624
   4271412.28148   3324529.16046  20921622.7584                   20921619.3284
  -7444294.78547  -6625006.73844  23646660.1414                   23646660.1914
  -4264150.09846  -3322081.56643  24498398.5554                   24498401.3164
 11  7 26 18  8 30.0000000  0 11G03G06G07G10G13G16G19G28G23G08G11
    475392.14848    371303.83645  21332252.2814                   21332250.4614
   5410584.85546   4211135.96144  23130345.0474                   23130343.9024
 -10659266.19548  -8304022.68746  21708825.2894                   21708822.9104
  -2034243.87947  -1583749.53943  24026314.7814                   24026315.4384
  -5850576.68048  -4554322.87946  20061778.6254                   20061776.0084
  14240509.77046  11078057.01643  23895208.5084                   23895205.7974
 -10849025.74247  -8445569.36746  20964714.8134                   20964711.0204
  -4888053.28947  -3803851.58643  24279549.1564                   24279549.9384
   4357494.17648   3391605.88746  20938003.4614                   20937999.9654
  -7502954.37947  -6670715.47744  23635497.7424                   23635497.1174
  -4330160.95346  -3373518.43743  24485836.5784                   24485839.2154
 11  7 26 18  9  0.0000000  0 11G03G06G07G10G13G16G19G28G23G08G11
    546043.63748    426356.93045  21345696.7114                   21345694.9344
   5498889.97746   4279945.13344  23147148.7584                   23147148.0124
 -10701374.15648  -8336834.07046  21700812.6484                   21700810.3634
  -1989709.50047  -1549047.49644  24034790.1254                   24034790.1604
  -5821773.34048  -4531878.74246  20067259.6414                   20067256.7384
  14343756.52746  11158508.98044  23914855.2344                   23914853.6524
 -10851919.33647  -8447824.10946  20964164.2424                   20964160.7274
  -4944980.24247  -3848210.10544  24268717.0864                   24268718.5314
   4443988.40648   3459003.92646  20954462.8754                   20954459.6414
  -7561714.66846  -6716502.66843  23624316.4614                   23624315.1374
  -4396320.57446  -3425071.25443  24473247.1484                   24473249.6524
 11  7 26 18  9 30.0000000  0 11G03G06G07G10G13G16G19G28G23G08G11
    617182.76247    481789.99645  21359234.2814                   21359233.0274
   5587525.33246   4349011.59444  23164016.2584                   23164015.9774
 -10743449.80548  -8369620.27346  21692805.5944                   21692803.0314
  -1944835.98447  -1514081.21144  24043328.9844                   24043329.4494
  -5792420.24248  -4509006.21946  20072845.7974                   20072842.8164
  14446924.37146  11238899.44544  23934487.8984                   23934486.1994
 -10854249.17647  -8449639.56246  20963720.8524                   20963717.6564
  -5001739.44947  -3892437.96543  24257915.7734                   24257916.4534
   4530897.26248   3526725.03146  20971001.0944                   20970997.7424
  -7620570.85246  -6762364.60244  23613116.5164                   23613115.0514
  -4462622.37546  -3476734.86743  24460630.2894                   24460632.1684
 11  7 26 18 10  0.0000000  0 11G03G06G07G10G13G16G19G28G23G08G11
    688800.14147    537595.71945  21372862.5314                   21372860.8914
   5676481.23446   4418327.87944  23180943.4694                   23180942.3244
 -10785499.45748  -8402386.22346  21684803.7344                   21684801.8054
  -1899632.75047  -1478857.99643  24051930.1724                   24051930.6414
  -5762524.70748  -4485711.01246  20078534.2344                   20078531.9694
  14550004.23046  11319221.37943  23954103.1174                   23954101.3054
 -10856021.79747  -8451020.81646  20963383.5634                   20963380.0864
  -5058338.00846  -3936540.59443  24247144.6644                   24247145.8324
   4618211.20348   3594761.79346  20987616.4534                   20987612.9104
  -7679529.84846  -6808306.63743  23601895.9224                   23601895.5904
  -4529070.91846  -3528512.89143  24447985.2664                   24447987.2734
 11  7 26 18 10 30.0000000  0 11G03G06G07G10G13G16G19G28G23G08G11
    760902.15647    593779.10245  21386582.8914                   21386581.6524
   5765764.19547   4487899.00044  23197933.7584                   23197932.4144
 -10827513.23848  -8435124.24246  21676809.2734                   21676806.9844
  -1854093.50847  -1443372.95743  24060596.6804                   24060597.1884
  -5732078.41847  -4461986.65646  20084328.0554                   20084326.0744
  14653003.38747  11399480.44143  23973704.0234                   23973701.6094
 -10857227.85947  -8451960.59446  20963153.8594                   20963150.7504
  -5114767.02746  -3980511.11743  24236406.6414                   24236407.6094
   4705936.51648   3663119.12946  21004310.2114                   21004307.5314
  -7738583.03946  -6854322.05544  23590659.2504                   23590658.7114
  -4595655.27046  -3580396.71143  24435313.8754                   24435317.4774
 11  7 26 18 11  0.0000000  0 11G03G06G07G10G13G16G19G28G23G08G11
    833478.50847    650332.08245  21400393.6884                   21400392.4384
   5855363.87147   4557716.89844  23214983.7424                   23214983.2074
 -10869497.83248  -8467839.49646  21668819.2974                   21668817.0594
  -1808227.91447  -1407633.58644  24069325.2734                   24069325.0434
  -5701088.91048  -4437839.01646  20090225.2584                   20090223.1334
  14755913.08646  11479669.75443  23993287.3984                   23993284.7074
 -10857874.40647  -8452464.41046  20963031.4304                   20963027.4654
  -5171034.07446  -4024355.33243  24225700.4844                   24225700.6334
   4794063.94148   3731789.77046  21021080.3054                   21021077.5044
  -7797737.71546  -6900416.57044  23579402.0474                   23579402.2304
  -4662380.59846  -3632390.35543  24422616.9774                   24422619.2114
 11  7 26 18 11 30.0000000  0 11G03G06G07G10G13G16G19G28G23G08G11
    906535.58247    707259.64145  21414296.1484                   21414294.4774
   5945286.36347   4627786.34044  23232095.9774                   23232094.7734
 -10911443.97348  -8500524.79746  21660837.3754                   21660834.7074
  -1762030.10547  -1371635.38743  24078116.3754                   24078116.6454
  -5669548.05148  -4413261.74246  20096227.0944                   20096224.5124
  14858739.89546  11559794.50043  24012853.9384                   24012851.3754
 -10857952.12147  -8452524.94946  20963016.2274                   20963012.6724
  -5227130.65246  -4068066.78143  24215024.1884                   24215025.6454
   4882599.35948   3800778.33646  21037927.9454                   21037924.7074
  -7856985.18046  -6946583.43744  23568127.5784                   23568126.1604
  -4729236.30546  -3684485.62943  24409894.5474                   24409896.7114
 11  7 26 18 12  0.0000000  0 11G03G06G07G10G13G16G19G28G23G08G11
    980074.34447    764562.54745  21428290.3204                   21428288.4064
   6035532.25447   4698107.80944  23249268.6804                   23249267.4694
 -10953347.51248  -8533176.91446  21652863.5944                   21652861.2424
  -1715499.29347  -1335377.65643  24086970.5784                   24086970.2424
  -5637452.74648  -4388252.43746  20102334.8444                   20102332.3874
  14961485.95346  11639856.32843  24032405.4774                   24032403.5314
 -10857457.25847  -8452139.34046  20963110.5164                   20963107.0394
  -5283053.56246  -4111642.85543  24204382.6724                   24204383.0864
   4971543.89848   3870085.68846  21054853.8364                   21054850.4304
  -7916322.03946  -6992819.89844  23556836.0864                   23556835.6334
  -4796216.05946  -3736677.56242  24397148.0704                   24397150.8874
 11  7 26 18 12 30.0000000  0 11G03G06G07G10G13G16G19G28G23G08G11
   1054091.09847    822237.92245  21442375.4064                   21442373.8404
   6126097.89146   4768678.38744  23266502.9144                   23266501.9454
 -10995208.74648  -8565796.03946  21644897.4694                   21644895.1334
  -1668639.11747  -1298863.34044  24095888.3444                   24095887.8674
  -5604804.28148  -4362812.10546  20108547.3914                   20108545.1884
  15064148.28547  11719852.90243  24051942.5634                   24051939.4144
 -10856390.89847  -8451308.39546  20963313.6724                   20963309.7504
  -5338803.66446  -4155084.32443  24193773.9384                   24193775.0704
   5060894.07448   3939709.12146  21071856.6254                   21071853.0394
  -7975749.25846  -7039126.78144  23545527.9924                   23545526.5704
  -4863318.96146  -3788965.38343  24384379.5784                   24384381.9304
 11  7 26 18 13  0.0000000  0 11G03G06G07G10G13G16G19G28G23G08G11
   1128576.42648    880278.40645  21456549.1804                   21456547.8244
   6216973.69146   4839490.68044  23283795.6174                   23283795.3204
 -11037033.66048  -8598386.86746  21636938.6644                   21636936.2734
  -1621458.60947  -1262099.37143  24104866.7194                   24104867.2544
  -5571610.24248  -4336946.64546  20114864.1564                   20114861.7384
  15166718.70746  11799777.85943  24071460.5084                   24071458.4884
 -10854758.87548  -8450036.66846  20963623.9454                   20963620.2664
  -5394388.26246  -4198396.84043  24183196.5554                   24183197.3364
   5150640.54348   4009641.35246  21088934.6884                   21088931.4884
  -8035273.10846  -7085508.97343  23534200.3754                   23534198.6994
  -4930549.58246  -3841352.78942  24371586.0314                   24371588.2344
 11  7 26 18 13 30.0000000  0 11G03G06G07G10G13G16G19G28G23G08G11
   1203529.94548    938683.73045  21470812.2344                   21470811.3204
   6308159.34447   4910544.39144  23301148.1884                   23301147.5394
 -11078818.99648  -8630946.87146  21628986.9614                   21628984.9614
  -1573958.18446  -1225086.12543  24113904.2734                   24113905.3284
  -5537868.73048  -4310654.59046  20121285.2274                   20121282.7344
  15269197.69546  11879631.59043  24090961.9454                   24090959.8634
 -10852558.93747  -8448322.43446  20964042.2584                   20964038.5664
  -5449805.05946  -4241578.61743  24172650.5084                   24172650.7974
   5240783.21948   4079882.32846  21106088.1254                   21106085.0394
  -8094891.30546  -7131964.67244  23522856.0164                   23522854.7234
  -4997903.31646  -3893836.10542  24358769.2344                   24358770.9384
 11  7 26 18 14  0.0000000  0 11G03G06G07G10G13G16G19G28G23G08G11
   1278954.50047    997456.07445  21485165.0784                   21485164.2624
   6399657.06346   4981841.27744  23318560.2034                   23318558.5514
 -11120559.18048  -8663471.67646  21621044.2664                   21621042.4844
  -1526135.53946  -1187821.84843  24123005.1414                   24123005.0864
  -5503575.25448  -4283932.43046  20127811.1414                   20127808.6094
  15371589.03946  11959417.02343  24110446.5784                   24110443.9924
 -10849785.89847  -8446161.59846  20964570.1954                   20964566.2274
  -5505049.10246  -4284625.75843  24162137.8984                   24162137.9384
   5331324.60548   4150433.97746  21123317.2424                   21123314.6804
  -8154599.27346  -7178490.30944  23511493.4144                   23511491.9064
  -5065373.08246  -3946409.82443  24345930.2274                   24345932.8404
 11  7 26 18 14 30.0000000  0 11G03G06G07G10G13G16G19G28G23G08G11
   1354844.50848   1056591.12145  21499606.6174                   21499605.0164
   6491461.76746   5053377.40244  23336029.3914                   23336028.3524
 -11162255.45348  -8695962.27046  21613109.8444                   21613107.1334
  -1477995.43446  -1150310.16843  24132166.6954                   24132166.8054
  -5468732.50448  -4256782.27346  20134441.2894                   20134439.0594
  15473888.85246  12039131.11343  24129912.6724                   24129910.6724
 -10846441.78147  -8443555.77746  20965206.1094                   20965202.6764
  -5560122.92646  -4327540.30143  24151657.0474                   24151657.2114
   5422260.04748   4221292.68846  21140622.3284                   21140618.5784
  -8214398.69946  -7225087.22344  23500113.1804                   23500113.3134
  -5132959.11746  -3999074.16443  24333068.8674                   24333070.9924
 11  7 26 18 15  0.0000000  0 11G03G06G07G10G13G16G19G28G23G08G11
   1431192.63747   1116083.13745  21514135.6484                   21514133.8754
   6583565.66046   5125146.65244  23353554.8134                   23353555.0744
 -11203912.30948  -8728422.14846  21605182.3834                   21605180.6524
  -1429545.80146  -1112557.27043  24141385.2894                   24141386.7814
  -5433346.32048  -4229208.65246  20141175.1094                   20141173.0594
  15576090.19146  12118768.46543  24149361.1024                   24149359.2274
 -10842531.38748  -8440508.70746  20965950.4774                   20965947.4414
  -5615031.98046  -4370326.44543  24141208.7504                   24141208.4494
   5513581.79348   4292452.40646  21158000.7894                   21157997.2234
  -8274294.77746  -7271759.44544  23488715.7584                   23488715.9104
  -5200663.83646  -4051830.94543  24320184.8914                   24320186.9614
 11  7 26 18 15 30.0000000  0 11G03G06G07G10G13G16G19G28G23G08G11
   1507994.53147   1175928.74245  21528750.1254                   21528748.5314
   6675964.64147   5197145.83644  23371138.9304                   23371137.4654
 -11245530.48847  -8760851.87546  21597262.5084                   21597260.6374
  -1380790.73046  -1074566.37544  24150663.8674                   24150664.5234
  -5397418.83248  -4201213.23047  20148011.9384                   20148009.9144
  15678189.98446  12198326.71543  24168789.1094                   24168788.3284
 -10838055.96147  -8437021.34846  20966801.9694                   20966798.8794
  -5669777.72746  -4412985.35543  24130789.9614                   24130790.4064
   5605285.85548   4363910.03546  21175451.2894                   21175447.9694
  -8334288.61747  -7318507.84844  23477299.3834                   23477298.9344
  -5268486.53147  -4104679.70743  24307278.9384                   24307280.5044
 11  7 26 18 16  0.0000000  0 11G03G06G07G10G13G16G19G28G23G08G11
   1585249.21947   1236127.17645  21543451.6174                   21543450.1294
   6768657.69546   5269374.16444  23388777.7894                   23388777.1954
 -11287107.07447  -8793249.20346  21589351.0474                   21589348.5124
  -1331730.91446  -1036338.03943  24159999.6024                   24160000.3914
  -5360948.49248  -4172794.81246  20154951.8674                   20154950.0434
  15780188.93646  12277806.33943  24188199.4144                   24188198.0824
 -10833013.44147  -8433092.10546  20967761.8284                   20967758.8014
  -5724358.62546  -4455515.80543  24120403.4924                   24120405.0234
   5697371.83648   4435665.27346  21192974.7894                   21192971.6524
  -8394378.26647  -7365330.91844  23465864.9304                   23465864.5314
  -5336422.96146  -4157617.06243  24294351.0634                   24294352.6094
 11  7 26 18 16 30.0000000  0 11G03G06G07G10G13G16G19G28G23G08G11
   1662955.92647   1296677.82845  21558238.2194                   21558236.7934
   6861643.51646   5341830.63744  23406472.3364                   23406471.1994
 -11328639.63748  -8825612.23446  21581447.6414                   21581445.0274
  -1282367.46546   -997873.14843  24169393.4304                   24169393.9924
  -5323934.75048  -4143952.96546  20161995.2664                   20161993.3014
  15882086.57046  12357207.06643  24207589.5944                   24207589.0434
 -10827402.31648  -8428719.78146  20968829.6564                   20968826.0744
  -5778773.53546  -4497916.89844  24110049.0944                   24110049.9804
   5789838.34848   4507717.02046  21210570.7974                   21210567.4654
  -8454561.91847  -7412227.25444  23454412.3444                   23454411.3794
  -5404469.37546  -4210640.15643  24281401.3914                   24281404.4264
 11  7 26 18 17  0.0000000  0 11G03G06G07G10G13G16G19G28G23G08G11
   1741106.57047   1357574.41445  21573109.9844                   21573108.0554
   6954914.00846   5414508.92644  23424221.2584                   23424220.0394
 -11370132.87148  -8857944.61346  21573551.6884                   21573548.9534
  -1232708.75446   -959178.08643  24178842.2504                   24178844.1484
  -5286383.64148  -4114692.38746  20169141.3594                   20169138.7664
  15983876.25046  12436523.65643  24226960.2734                   24226959.1134
 -10821227.61747  -8423908.33246  20970004.4844                   20970001.2624
  -5833027.94946  -4540192.91043  24099723.5554                   24099725.3134
   5882677.27348   4580058.96546  21228237.2424                   21228234.3714
  -8514845.06647  -7459201.11344  23442941.0554                   23442940.3404
  -5472628.87546  -4263751.31243  24268431.1484                   24268433.2814
 11  7 26 18 17 30.0000000  0 11G03G06G07G10G13G16G19G28G23G08G11
   1819707.21547   1418821.64845  21588067.3284                   21588065.4414
   7048475.46147   5487413.93844  23442025.3754                   23442024.5004
 -11411576.93048  -8890238.68746  21565665.1954                   21565663.0354
  -1182747.91446   -920247.67643  24188350.3524                   24188351.7704
  -5248286.95348  -4085006.68746  20176390.8594                   20176388.8014
  16085565.77046  12515762.17643  24246311.8364                   24246309.3094
 -10814480.59048  -8418650.89546  20971288.5314                   20971284.9224
  -5887112.96146  -4582336.94543  24089432.7584                   24089434.3914
   5975895.17648   4652696.20346  21245975.9304                   21245972.8204
  -8575218.44147  -7506245.28144  23431452.2504                   23431451.0904
  -5540889.91046  -4316941.59443  24255440.5944                   24255443.6684
 11  7 26 18 18  0.0000000  0 11G03G06G07G10G13G16G19G28G23G08G11
   1898748.59047   1480412.30945  21603108.0634                   21603106.1684
   7142318.62547   5560538.45344  23459883.6414                   23459882.0314
 -11452977.39147  -8922498.78146  21557787.0704                   21557784.7234
  -1132494.33646   -881089.14143  24197913.8984                   24197914.3714
  -5209651.67648  -4054901.29746  20183743.0314                   20183740.4184
  16187146.65246  12594916.08243  24265641.5864                   24265639.7034
 -10807167.77047  -8412952.58646  20972680.3204                   20972676.5044
  -5941035.10546  -4624354.09043  24079171.2344                   24079171.7304
   6069482.92648   4725621.64846  21263785.4224                   21263782.0354
  -8635688.29747  -7553364.63344  23419945.1804                   23419943.9024
  -5609256.91047  -4370214.43743  24242432.5314                   24242433.8954
 11  7 26 18 18 30.0000000  0 11G03G06G07G10G13G16G19G28G23G08G11
   1978220.55947   1542338.48045  21618231.0394                   21618229.6684
   7236433.18047   5633874.43844  23477792.9844                   23477792.1844
 -11494340.80147  -8954730.00446  21549915.6024                   21549913.4694
  -1081958.39546   -841710.56243  24207530.6024                   24207531.8914
  -5170486.15247  -4024382.74246  20191195.8524                   20191192.9454
  16288610.15246  12673978.52744  24284949.9924                   24284948.0044
 -10799296.39848  -8406819.05146  20974177.7814                   20974174.2194
  -5994802.50046  -4666250.66044  24068939.6484                   24068940.9844
   6163430.43848   4798827.40646  21281662.6644                   21281659.5824
  -8696261.83647  -7600564.76244  23408418.5314                   23408417.2384
  -5677735.26646  -4423574.08643  24229400.0084                   24229402.1414
 11  7 26 18 19  0.0000000  0 11G03G06G07G10G13G16G19G28G23G08G11
   2058128.17247   1604604.14145  21633437.0164                   21633435.9534
   7330823.98847   5707425.67244  23495755.3054                   23495753.7704
 -11535658.76248  -8986925.81246  21542053.3524                   21542050.9924
  -1031134.97346   -802107.98443  24217201.5944                   24217203.1804
  -5130783.53548  -3993445.66446  20198751.0004                   20198748.5084
  16389962.19947  12752954.09044  24304237.5944                   24304234.7544
 -10790858.73847  -8400244.24246  20975783.6484                   20975779.6484
  -6048407.72346  -4708020.84844  24058738.6954                   24058739.1954
   6257743.27348   4872317.84846  21299610.1724                   21299607.1134
  -8756931.56647  -7647839.87544  23396872.7734                   23396871.9804
  -5746314.68046  -4477012.46944  24216350.0164                   24216352.6644
 11  7 26 18 19 30.0000000  0 11G03G06G07G10G13G16G19G28G23G08G11
   2138464.34847   1667203.75445  21648724.8204                   21648723.3794
   7425484.17647   5781186.82844  23513768.3914                   23513767.4534
 -11576934.22348  -9019088.50446  21534198.9304                   21534196.6454
   -980030.80546   -762286.64543  24226927.1884                   24226926.6454
  -5090548.62948  -3962093.82046  20206407.5004                   20206404.6724
  16491197.66046  12831838.83644  24323501.4144                   24323498.9064
 -10781859.10547  -8393231.53946  20977496.1174                   20977492.5124
  -6101855.04746  -4749668.00444  24048568.3204                   24048569.6254
   6352414.28948   4946087.39146  21317625.6334                   21317622.4614
  -8817701.28547  -7695192.87944  23385308.5084                   23385308.0084
  -5814996.90646  -4530530.93743  24203280.4384                   24203282.6884
 11  7 26 18 20  0.0000000  0 11G03G06G07G10G13G16G19G28G23G08G11
   2219239.00047   1730145.02345  21664096.0004                   21664093.8164
   7520423.48047   5855165.47344  23531834.5314                   23531833.6484
 -11618154.03948  -9051207.85246  21526354.8834                   21526352.4064
   -928636.39547   -722239.16443  24236707.3914                   24236707.4534
  -5049769.95348  -3930318.26646  20214167.2344                   20214165.1094
  16592327.15646  12910640.99244  24342745.9534                   24342743.8834
 -10772285.06247  -8385771.22746  20979317.9384                   20979314.4184
  -6155132.48046  -4791182.78544  24038429.9924                   24038430.4964
   6447453.09448   5020143.50446  21335710.9454                   21335707.8594
  -8878557.99247  -7742613.63744  23373728.4064                   23373727.6374
  -5883767.04746  -4584117.93443  24190193.7974                   24190195.7544
 11  7 26 18 20 30.0000000  0 11G03G06G07G10G13G16G19G28G23G08G11
   2300435.64147   1793415.12545  21679547.3444                   21679544.9534
   7615625.69947   5929348.99644  23549950.5704                   23549950.2154
 -11659330.47748  -9083293.37546  21518519.4694                   21518517.0634
   -876967.99246   -681978.18043  24246539.0944                   24246540.6644
  -5008461.56647  -3898129.94146  20222027.7894                   20222025.5394
  16693336.06646  12989349.18844  24361966.9694                   24361964.8014
 -10762150.00047  -8377873.76646  20981246.5634                   20981243.0274
  -6208253.36746  -4832575.59043  24028319.8444                   24028321.7344
   6542844.05548   5094474.04346  21353862.9844                   21353859.6954
  -8939514.65647  -7790112.34444  23362129.3914                   23362127.2344
  -5952636.25046  -4637782.10243  24177087.9224                   24177090.2274
 11  7 26 18 21  0.0000000  0 11G03G06G07G10G13G16G19G28G23G08G11
   2382059.31347   1857017.96145  21695079.5634                   21695078.0204
   7711095.55946   6003741.05544  23568117.5004                   23568117.0944
 -11700455.14548  -9115338.57446  21510693.5164                   21510691.0084
   -825020.51846   -641499.68643  24256423.8754                   24256425.0354
  -4966616.77748  -3865523.64546  20229991.0784                   20229988.6524
  16794230.42646  13067968.08643  24381165.1254                   24381164.3874
 -10751446.62547  -8369533.46146  20983283.3674                   20983279.8714
  -6261210.41846  -4873840.71944  24018243.4224                   24018244.6214
   6638591.53548   5169082.38746  21372083.5314                   21372080.2814
  -9000563.42247  -7837682.75844  23350511.4924                   23350510.3484
  -6021594.37946  -4691515.58643  24163965.7664                   24163967.4614
 11  7 26 18 21 30.0000000  0 11G03G06G07G10G13G16G19G28G23G08G11
   2464099.66047   1920945.49245  21710691.0004                   21710689.1844
   7806822.94146   6078333.77744  23586334.4774                   23586333.2854
 -11741534.45748  -9147348.43046  21502876.4844                   21502873.6294
   -772804.42646   -600811.91843  24266360.3204                   24266361.6214
  -4924244.09448  -3832505.99646  20238054.0864                   20238051.9064
  16895001.47746  13146490.93843  24400341.7504                   24400340.6914
 -10740182.39147  -8360756.12546  20985427.0634                   20985423.1254
  -6314011.44146  -4914984.27043  24008194.6174                   24008196.0904
   6734685.75848   5243960.91046  21390369.5784                   21390366.6764
  -9061711.52347  -7885330.60944  23338875.0004                   23338875.2544
  -6090646.55246  -4745322.33643  24150825.3284                   24150827.0204
 11  7 26 18 22  0.0000000  0 11G03G06G07G10G13G16G19G28G23G08G11
   2546558.72747   1985199.29345  21726382.2894                   21726381.0744
   7902810.06346   6153128.93444  23604600.6644                   23604599.3404
 -11782562.40248  -9179318.25046  21495069.2814                   21495066.8094
   -720317.21946   -559912.93743  24276348.6254                   24276350.4414
  -4881339.25448  -3799073.68746  20246218.9844                   20246216.5904
  16995653.00046  13224920.65643  24419495.6024                   24419493.6334
 -10728352.55147  -8351538.04346  20987678.0864                   20987674.7854
  -6366651.71946  -4956002.57044  23998178.3134                   23998179.3754
   6831129.09848   5319111.48846  21408722.0004                   21408719.2774
  -9122954.19147  -7933052.13744  23327221.9224                   23327220.8324
  -6159785.32046  -4799196.54343  24137668.7034                   24137670.1334
 11  7 26 18 22 30.0000000  0 11G03G06G07G10G13G16G19G28G23G08G11
   2629436.48047   2049779.33645  21742153.7344                   21742152.3874
   7999056.92246   6228126.41044  23622915.5394                   23622914.9804
 -11823535.03948  -9211244.98446  21487272.0474                   21487269.6764
   -667558.86346   -518802.62543  24286386.9694                   24286388.9654
  -4837900.53948  -3765225.37146  20254485.1804                   20254482.5474
  17096186.66446  13303258.52043  24438626.3754                   24438625.1024
 -10715954.29748  -8341877.05546  20990037.1024                   20990033.9024
  -6419128.92246  -4996893.80144  23988192.5004                   23988192.5664
   6927921.64148   5394534.16045  21427141.1644                   21427137.9064
  -9184287.78947  -7980844.53144  23315549.7114                   23315549.1684
  -6229005.34346  -4853134.13443  24124496.7274                   24124498.0514
 11  7 26 18 23  0.0000000  0 11G03G06G07G10G13G16G19G28G23G08G11
   2712736.50847   2114688.43445  21758004.7734                   21758003.8634
   8095566.99646   6303329.03144  23641281.1254                   23641279.9964
 -11864445.46948  -9243123.23446  21479487.2274                   21479484.8054
   -614525.84846   -477478.31243  24296480.3284                   24296480.8484
  -4793922.68448  -3730956.95746  20262853.4384                   20262851.5314
  17196606.82046  13381507.94943  24457736.0234                   24457733.5394
 -10702981.71147  -8331768.52346  20992505.5394                   20992502.1844
  -6471436.96146  -5037653.17244  23978237.7734                   23978239.0944
   7025066.77348   5470231.59446  21445627.6334                   21445624.0354
  -9245705.65247  -8028702.54744  23303862.4064                   23303861.7304
  -6298298.13746  -4907128.36743  24111310.4064                   24111311.5084
 11  7 26 18 23 30.0000000  0 11G03G06G07G10G13G16G19G28G23G08G11
   2796451.22747   2179920.66845  21773935.8594                   21773934.2154
   8192332.45746   6378730.67644  23659694.5944                   23659693.8324
 -11905297.61748  -9274956.07446  21471713.1024                   21471710.7194
   -561226.03546   -435946.14843  24306621.9384                   24306623.8324
  -4749411.31247  -3696272.80946  20271323.9304                   20271321.6604
  17296907.37946  13459664.14143  24476821.1174                   24476820.2974
 -10689440.03147  -8321216.55146  20995082.9144                   20995079.2274
  -6523580.97747  -5078284.80944  23968316.0944                   23968316.0704
   7122557.07448   5546197.97346  21464179.3284                   21464176.5234
  -9307212.82047  -8076630.16844  23292157.6254                   23292156.3984
  -6367666.00046  -4961181.13343  24098110.2814                   24098111.3134
 11  7 26 18 24  0.0000000  0 11G03G06G07G10G13G16G19G28G23G08G11
   2880583.76247   2245478.45745  21789945.5864                   21789944.1914
   8289356.72746   6454333.96944  23678158.1414                   23678157.1454
 -11946084.19948  -9306737.82846  21463951.4064                   21463949.0744
   -507656.05946   -394203.41843  24316816.9064                   24316818.9064
  -4704361.52348  -3661169.12146  20279896.4844                   20279894.3404
  17397093.07446  13537730.82842  24495886.9064                   24495884.6684
 -10675323.36348  -8310216.53546  20997769.4534                   20997765.5084
  -6575555.27046  -5118784.18743  23958425.1024                   23958425.7304
   7220396.30147   5622436.24645  21482797.6564                   21482794.2934
  -9368802.59047  -8124622.17244  23280437.9924                   23280437.0634
  -6437100.44146  -5015285.77343  24084897.3284                   24084898.0234
 11  7 26 18 24 30.0000000  0 11G03G06G07G10G13G16G19G28G23G08G11
   2965141.85947   2311367.85545  21806035.9384                   21806035.3594
   8386647.70746   6530145.10944  23696671.7974                   23696671.2504
 -11986793.49248  -9338459.35246  21456204.8754                   21456202.5434
   -453807.88346   -352243.87543  24327064.6564                   24327065.4454
  -4658763.77748  -3625638.43746  20288573.6254                   20288571.6454
  17497173.21945  13615715.34042  24514932.2664                   24514929.0434
 -10660621.20748  -8298760.29346  21000566.9844                   21000563.2814
  -6627349.34447  -5159143.11744  23948569.5004                   23948568.7424
   7318591.72348   5698952.07446  21501483.4694                   21501480.7074
  -9430463.81647  -8172669.85544  23268703.7194                   23268702.8484
  -6506588.47346  -5069432.18443  24071674.1564                   24071674.9654
 11  7 26 18 25  0.0000000  0 11G03G06G07G10G13G16G19G28G23G08G11
   3050129.66047   2377592.09045  21822208.5004                   21822207.9574
   8484209.75847   6606167.44144  23715237.2424                   23715236.2584
 -12027417.19948  -9370114.17246  21448474.5474                   21448471.9344
   -399677.35946   -310064.35243  24337364.9304                   24337366.0704
  -4612611.96548  -3589676.02346  20297355.7504                   20297353.6214
  17597153.86746  13693622.27042  24533956.8284                   24533955.6524
 -10645326.88748  -8286842.62146  21003477.2974                   21003473.5204
  -6678956.78947  -5199356.64544  23938748.4694                   23938748.7114
   7417147.79748   5775748.91846  21520238.3364                   21520235.2034
  -9492189.19547  -8220767.50044  23256957.4304                   23256957.0784
  -6576120.19146  -5123612.64143  24058442.5864                   24058443.4574
 11  7 26 18 25 30.0000000  0 11G03G06G07G10G13G16G19G28G23G08G11
   3135552.55947   2444155.35545  21838464.3834                   21838463.7274
   8582048.30546   6682405.25044  23733855.8754                   23733854.3364
 -12067946.10948  -9401695.14846  21440762.0164                   21440759.8794
   -345259.10946   -267660.62943  24347720.8284                   24347721.7894
  -4565898.68048  -3553276.09446  20306245.2504                   20306243.2304
  17697041.93045  13771457.03542  24552965.3834                   24552965.0944
 -10629432.53547  -8274457.41046  21006501.9224                   21006498.3914
  -6730369.21946  -5239418.18043  23928965.0004                   23928964.8284
   7516070.25448   5852831.27046  21539062.7504                   21539060.0664
  -9553970.19947  -8268908.52044  23245201.6254                   23245199.9574
  -6645684.67646  -5177818.62143  24045204.6484                   24045205.3984
 11  7 26 18 26  0.0000000  0 11G03G06G07G10G13G16G19G28G23G08G11
   3221415.75448   2511061.71145  21854803.7114                   21854802.2814
   8680168.53146   6758862.52344  23752526.7424                   23752525.6884
 -12108371.17248  -9433195.19546  21433069.7274                   21433068.0314
   -290547.52346   -225028.32443  24358131.7194                   24358133.1804
  -4518617.07448  -3516433.32046  20315242.6804                   20315240.6454
  17796844.23046  13849225.02343  24571957.6804                   24571956.1844
 -10612930.27048  -8261598.49246  21009641.8594                   21009638.5354
  -6781578.82446  -5279321.67243  23919220.2034                   23919220.3714
   7615364.44548   5930203.28546  21557957.5554                   21557954.7894
  -9615797.91447  -8317085.94144  23233436.2734                   23233434.2624
  -6715271.78546  -5232042.21943  24031962.1254                   24031963.0044
 11  7 26 18 26 30.0000000  0 11G03G06G07G10G13G16G19G28G23G08G11
   3307720.69547   2578312.32045  21871226.9694                   21871225.1374
   8778572.26646   6835540.72344  23771253.1094                   23771251.3054
 -12148686.72347  -9464609.89846  21425397.8364                   21425395.5084
   -235541.44146   -182166.53543  24368599.3524                   24368600.4304
  -4470763.86348  -3479145.14546  20324349.0554                   20324346.6724
  17896563.74645  13926928.54342  24590933.8204                   24590930.4264
 -10595816.29348  -8248262.89546  21012898.8364                   21012895.2074
  -6832582.11346  -5319064.35243  23909514.5474                   23909513.7774
   7715031.87548   6007866.14845  21576923.6884                   21576921.3244
  -9677667.77747  -8365296.21544  23221662.8834                   23221661.7664
  -6784874.70746  -5286278.11743  24018716.9774                   24018717.8364
 11  7 26 18 27  0.0000000  0 11G03G06G07G10G13G16G19G28G23G08G11
   3394471.97747   2645910.69145  21887735.5084                   21887733.7234
   8877263.84046   6912443.23443  23790032.7584                   23790031.7384
 -12188884.57847  -9495932.89846  21417748.5554                   21417745.7544
   -180236.13346   -139071.65643  24379123.5634                   24379124.5434
  -4422332.89548  -3441406.75846  20333564.9064                   20333562.8094
  17996206.61346  14004572.26643  24609895.7664                   24609891.6764
 -10578083.71148  -8234445.29746  21016272.9924                   21016269.5744
  -6883371.86746  -5358640.67244  23899849.0084                   23899849.3364
   7815077.04747   6085823.34845  21595962.0474                   21595959.0984
  -9739571.85547  -8413533.13744  23209883.2274                   23209882.4924
  -6854483.12146  -5340518.33643  24005471.3444                   24005471.9534
 11  7 26 18 27 30.0000000  0 11G03G06G07G10G13G16G19G28G23G08G11
   3481671.44547   2713858.28545  21904328.6254                   21904327.4884
   8976245.13346   6989571.47744  23808868.5004                   23808867.0164
 -12228958.91447  -9527159.64546  21410122.4144                   21410120.6054
   -124629.62147    -95742.05544  24389705.7424                   24389706.9304
  -4373321.04748  -3403215.74246  20342891.2814                   20342889.3364
  18095776.24246  14082158.96943  24628842.8834                   24628841.0704
 -10559728.23847  -8220142.32446  21019766.0634                   21019762.5274
  -6933944.08246  -5398047.46944  23890226.1724                   23890225.8554
   7915501.88348   6164076.37145  21615072.2664                   21615069.6254
  -9801505.40247  -8461793.01644  23198097.3674                   23198095.9454
  -6924090.34046  -5394757.59043  23992225.8914                   23992226.3244
 11  7 26 18 28  0.0000000  0 11G03G06G07G10G13G16G19G28G23G08G11
   3569330.60248   2782164.10545  21921010.0634                   21921008.4414
   9075527.87146   7066934.64143  23827761.0234                   23827760.6914
 -12268894.26247  -9558278.07846  21402523.0084                   21402521.0634
    -68710.60246    -52168.89543  24400346.7034                   24400348.2384
  -4323714.80548  -3364561.55946  20352331.1724                   20352329.2424
  18195285.98046  14159698.97743  24647779.1254                   24647777.0124
 -10540735.84047  -8205343.04746  21023380.2734                   21023376.3444
  -6984284.23446  -5437273.45743  23880646.0784                   23880646.0784
   8016318.03547   6242634.32045  21634256.7114                   21634254.0354
  -9863453.36747  -8510064.14144  23186309.3834                   23186307.2894
  -6993679.00046  -5448982.35943  23978982.2194                   23978984.2664
 11  7 26 18 28 30.0000000  0 11G03G06G07G10G13G16G19G28G23G08G11
   3657451.64547   2850829.83645  21937778.7734                   21937777.1884
   9175114.51246   7144534.57443  23846712.2034                   23846711.6094
 -12308683.98047  -9589283.05146  21394951.1804                   21394949.3594
    -12476.52746     -8350.25443  24411047.4224                   24411048.2304
  -4273509.93448  -3325440.91446  20361885.0634                   20361883.0234
  18294739.90646  14237195.49243  24666704.6564                   24666701.3674
 -10521101.87547  -8190043.84046  21027116.2344                   21027112.6804
  -7034387.50446  -5476314.86143  23871111.6094                   23871111.2274
   8117527.99247   6321499.13345  21653516.4224                   21653513.8404
  -9925409.97347  -8558342.01644  23174518.6094                   23174517.4264
  -7063241.25846  -5503186.57043  23965744.5554                   23965746.2894
 11  7 26 18 29  0.0000000  0 11G03G06G07G10G13G16G19G28G23G08G11
   3746034.50047   2919855.41445  21954635.5704                   21954633.9494
   9275005.35946   7222371.57443  23865720.6484                   23865719.9924
 -12348324.28947  -9620171.58246  21387408.0084                   21387405.6724
     44072.62946     35713.89143  24421808.8364                   24421809.5434
  -4222704.68748  -3285852.43746  20371553.0474                   20371551.2774
  18394139.93446  14314650.02043  24685619.6564                   24685615.7034
 -10500823.80548  -8174242.73446  21030975.3754                   21030971.5394
  -7084251.41846  -5515169.71543  23861622.9224                   23861622.7034
   8219132.35947   6400671.27045  21672851.3364                   21672848.8164
  -9987371.57047  -8606623.74644  23162727.7584                   23162726.5004
  -7132771.72346  -5557366.03143  23952514.3674                   23952514.5394
 11  7 26 18 29 30.0000000  0 11G03G06G07G10G13G16G19G28G23G08G11
   3835070.14847   2989233.82445  21971578.0004                   21971577.0984
   9375191.25446   7300438.50043  23884785.8754                   23884784.6604
 -12387820.41047  -9650947.77746  21379892.2734                   21379889.5704
    100927.68046     80016.39543  24432627.6414                   24432629.3524
  -4171306.73448  -3245802.11746  20381333.5004                   20381331.9774
  18493478.03146  14392056.25843  24704523.5234                   24704521.6524
 -10479908.51647  -8157945.10246  21034955.0084                   21034951.8634
  -7133882.60246  -5553843.25443  23852178.0704                   23852178.2464
   8321121.25848   6480143.05945  21692258.9304                   21692256.3364
 -10049344.25847  -8654914.12944  23150935.9304                   23150933.5554
  -7202274.05146  -5611523.54343  23939288.0784                   23939288.4844
 11  7 26 18 30  0.0000000  0 11G03G06G07G10G13G16G19G28G23G08G11
   3924563.99247   3058969.25445  21988608.5944                   21988607.4414
   9475677.61847   7378739.53044  23903907.2114                   23903906.8244
 -12427162.36747  -9681603.83646  21372405.9064                   21372403.3524
    158094.23046    124561.63744  24443505.7974                   24443507.9654
  -4119309.16848  -3205284.57046  20391228.6174                   20391226.7154
  18592761.68046  14469420.11744  24723416.6644                   24723414.5944
 -10458348.26247  -8141144.89846  21039058.0474                   21039054.4774
  -7183273.41046  -5592329.44944  23842779.1254                   23842779.2274
   8423500.77748   6559919.22745  21711741.2344                   21711738.8874
 -10111319.09847  -8703206.15644  23139141.7344                   23139140.8594
  -7271737.37846  -5665650.69143  23926069.5164                   23926070.6054
 11  7 26 18 30 30.0000000  0 11G03G06G07G10G13G16G19G28G23G08G11
   4014510.81347   3129057.66445  22005724.5784                   22005723.3674
   9576459.57846   7457270.86743  23923085.6254                   23923085.2154
 -12466351.43447  -9712140.77046  21364948.5784                   21364945.3524
    215567.07847    169345.52744  24454443.6724                   24454444.6054
  -4066715.47348  -3164302.50446  20401236.6884                   20401234.6524
  18691987.65946  14546739.00643  24742297.1954                   24742296.0744
 -10436145.89848  -8123844.35546  21043282.9304                   21043279.5904
  -7232425.82046  -5630629.96543  23833425.6484                   23833425.2704
   8526265.68048   6639995.67645  21731296.4924                   21731294.4654
 -10173297.66047  -8751501.12144  23127347.4224                   23127346.3954
  -7341161.65246  -5719747.37543  23912858.3754                   23912860.0514
 11  7 26 18 31  0.0000000  0 11G03G06G07G10G13G16G19G28G23G08G11
   4104913.14147   3199500.99645  22022927.9064                   22022927.2384
   9677539.82046   7536034.64144  23942319.9064                   23942320.3794
 -12505381.10548  -9742553.50046  21357521.3134                   21357518.4884
    273348.92647    214370.20344  24465439.0004                   24465440.7854
  -4013521.34848  -3122852.56246  20411359.6804                   20411357.5394
  18791160.14546  14624016.23443  24761169.7504                   24761168.3714
 -10413296.81248  -8106039.87946  21047631.1414                   21047627.4184
  -7281335.41446  -5668741.19143  23824117.8594                   23824118.5004
   8629418.35948   6720374.28945  21750926.6414                   21750924.0044
 -10235273.80947  -8799794.20344  23115553.9924                   23115552.5824
  -7410538.27746  -5773806.96943  23899656.2504                   23899657.0594
 11  7 26 18 31 30.0000000  0 11G03G06G07G10G13G16G19G28G23G08G11
   4195764.93847   3270294.57845  22040216.6254                   22040215.3914
   9778912.42146   7615026.22344  23961610.6174                   23961610.9884
 -12544253.16848  -9772843.40246  21350124.1644                   21350121.6884
    331433.71147    259630.94144  24476492.1884                   24476493.7934
  -3959731.23848  -3080938.21946  20421595.6644                   20421593.3794
  18890275.09446  14701248.58643  24780030.4064                   24780029.8954
 -10389804.46148  -8087734.12946  21052101.2814                   21052097.8164
  -7330005.39546  -5706665.75044  23814857.0004                   23814855.7544
   8732953.00848   6801050.54745  21770628.3524                   21770626.2894
 -10297250.00047  -8848087.32444  23103760.4454                   23103758.9064
  -7479867.81246  -5827829.84443  23886463.3594                   23886465.0554
 11  7 26 18 32  0.0000000  0 11G03G06G07G10G13G16G19G28G23G08G11
   4287070.05947   3341441.39545  22057590.9614                   22057589.8444
   9880582.22346   7694249.38744  23980958.9144                   23980957.4774
 -12582959.03548  -9803003.81246  21342758.3524                   21342755.9774
    389826.24646    305131.51243  24487603.3364                   24487605.4884
  -3905339.02748  -3038554.70746  20431945.8834                   20431943.8164
  18989338.90246  14778441.06643  24798882.7664                   24798881.0664
 -10365662.01648  -8068921.83646  21056695.5704                   21056691.9184
  -7378428.65647  -5744398.09444  23805642.8444                   23805642.3834
   8836874.42648   6882028.18045  21790404.2274                   21790401.7734
 -10359218.69947  -8896374.58644  23091967.6174                   23091966.5354
  -7549140.44546  -5881808.40243  23873280.5944                   23873282.0594
 11  7 26 18 32 30.0000000  0 11G03G06G07G10G13G16G19G28G23G08G11
   4378834.09847   3412945.82045  22075053.2344                   22075051.7504
   9982554.12546   7773708.00444  24000363.1804                   24000362.6724
 -12621489.52048  -9833027.56246  21335426.5864                   21335424.0004
    448531.34447    350875.63743  24498774.7664                   24498777.2704
  -3850338.41848  -2995697.12146  20442411.8134                   20442409.7894
  19088358.04346  14855598.72743  24817725.1884                   24817723.6524
 -10340862.45348  -8049597.47346  21061414.9064                   21061411.0044
  -7426598.07046  -5781932.57044  23796475.4304                   23796476.2074
   8941187.64548   6963311.11345  21810254.4844                   21810252.0784
 -10421171.32047  -8944649.33245  23080178.8594                   23080177.5594
  -7618345.39146  -5935734.21543  23860111.5864                   23860112.6954
 11  7 26 18 33  0.0000000  0 11G03G06G07G10G13G16G19G28G23G08G11
   4471048.70747   3484801.32445  22092601.3204                   22092599.4614
  10084820.11746   7853395.71144  24019823.4694                   24019823.2894
 -12659849.00448  -9862918.06246  21328126.9144                   21328124.6884
    507540.73447    396856.78944  24510004.3594                   24510006.3524
  -3794736.12948  -2952370.68446  20452992.8594                   20452990.6804
  19187326.05945  14932716.67243  24836556.4694                   24836556.8834
 -10315411.84848  -8029765.83646  21066257.8674                   21066254.3204
  -7474519.33246  -5819273.75843  23787357.1564                   23787355.7384
   9045884.22748   7044892.74645  21830177.4774                   21830175.0634
 -10483112.58647  -8992915.23044  23068391.2814                   23068390.3444
  -7687485.69547  -5989609.65643  23846954.6724                   23846955.2074
 11  7 26 18 33 30.0000000  0 11G03G06G07G10G13G16G19G28G23G08G11
   4563721.97747   3557014.25845  22110235.9534                   22110234.7974
  10187388.27747   7933318.89144  24039341.8524                   24039341.2704
 -12698025.10248  -9892665.65646  21320861.8444                   21320859.5864
    566862.46947    443081.38344  24521293.1024                   24521295.4384
  -3738522.43748  -2908567.85246  20463689.8984                   20463688.1334
  19286253.11345  15009802.57042  24855382.0234                   24855382.2934
 -10289299.84448  -8009418.80146  21071226.8444                   21071223.4224
  -7522181.75446  -5856413.14843  23778286.5234                   23778286.1334
   9150972.38348   7126779.53545  21850175.5314                   21850172.4534
 -10545030.55547  -9041162.97344  23056608.1484                   23056607.5594
  -7756547.64146  -6043424.03943  23833812.2274                   23833813.4224
 11  7 26 18 34  0.0000000  0 11G03G06G07G10G13G16G19G28G23G08G11
   4656844.31647   3629577.09845  22127956.4694                   22127956.0084
  10290249.46546   8013470.46944  24058915.5944                   24058915.5744
 -12736022.95748  -9922274.37546  21313631.2734                   21313629.1484
    626487.39847    489542.25044  24532640.4144                   24532641.9344
  -3681705.22748  -2864294.74246  20474501.8134                   20474499.3954
  19385131.51646  15086850.54343  24874199.0944                   24874196.9304
 -10262533.66848  -7988562.03146  21076320.5234                   21076316.4884
  -7569592.09846  -5893356.20344  23769264.9384                   23769265.4534
   9256443.14148   7208964.43845  21870245.8134                   21870243.4224
 -10606931.23447  -9089397.24244  23044829.3914                   23044828.2344
  -7825534.87547  -6097180.24243  23820684.6724                   23820686.0004
 11  7 26 18 34 30.0000000  0 11G03G06G07G10G13G16G19G28G23G08G11
   4750413.39147   3702488.03545  22145762.7424                   22145760.7274
  10393401.41046   8093848.53544  24078544.5944                   24078544.1134
 -12773840.66448  -9951742.70746  21306434.8364                   21306432.3364
    686413.39546    536237.68444  24544043.3834                   24544044.5904
  -3624285.84848  -2819552.40646  20485428.8134                   20485426.5474
  19483960.87946  15163860.37943  24893006.9304                   24893004.8714
 -10235113.93748  -7967195.99646  21081537.4694                   21081534.3014
  -7616750.48047  -5930102.93044  23760291.0634                   23760290.6524
   9362293.72748   7291445.31645  21890388.6254                   21890386.1454
 -10668813.72347  -9137617.35944  23033053.5394                   23033052.1414
  -7894444.27347  -6150875.75844  23807571.8364                   23807572.6564
 11  7 26 18 35  0.0000000  0 11G03G06G07G10G13G16G19G28G23G08G11
   4844426.23047   3775744.77045  22163652.7504                   22163650.6994
  10496842.00846   8174451.57844  24098228.1174                   24098228.4654
 -12811476.47348  -9981069.30546  21299273.5234                   21299270.6804
    746637.85247    583165.69544  24555503.6804                   24555505.1134
  -3566265.00848  -2774341.41046  20496469.7274                   20496467.4144
  19582740.75046  15240831.63343  24911802.4454                   24911801.7074
 -10207040.57048  -7945320.63746  21086880.0784                   21086876.3984
  -7663656.85247  -5966653.23444  23751364.4534                   23751365.0274
   9468522.03148   7374220.52345  21910603.2504                   21910601.3014
 -10730676.65247  -9185822.21145  23021281.8364                   23021280.6484
  -7963272.52046  -6204508.04744  23794474.1254                   23794474.4884
 11  7 26 18 35 30.0000000  0 11G03G06G07G10G13G16G19G28G23G08G11
   4938882.04347   3849346.68445  22181627.1334                   22181625.3674
  10600570.08646   8255278.63744  24117967.5394                   24117967.2304
 -12848927.66048 -10010252.03946  21292146.3674                   21292143.8134
    807159.68046    630325.40643  24567020.8284                   24567022.4104
  -3507642.39548  -2728661.49646  20507625.0004                   20507623.0554
  19681471.86346  15317764.85543  24930592.1094                   24930589.1134
 -10178312.82448  -7922935.35946  21092347.1644                   21092343.1804
  -7710309.73447  -6003006.05544  23742487.1414                   23742487.6524
   9575126.57448   7457288.88745  21930889.4924                   21930887.3444
 -10792517.71947  -9234010.03945  23009513.5944                   23009512.4734
  -8032015.15647  -6258073.63343  23781393.1564                   23781393.7584
 11  7 26 18 36  0.0000000  0 11G03G06G07G10G13G16G19G28G23G08G11
   5033780.23847   3923293.31345  22199685.4774                   22199684.3954
  10704585.44146   8336329.55943  24137760.8364                   24137760.4694
 -12886190.30148 -10039287.86346  21285055.2194                   21285053.1134
    867978.09846    677716.21144  24578594.1334                   24578596.1054
  -3448417.23848  -2682512.05946  20518895.2814                   20518893.4344
  19780155.61346  15394661.27043  24949369.9144                   24949369.2074
 -10148929.40247  -7900039.17646  21097938.3284                   21097934.2854
  -7756707.18747  -6039159.82044  23733657.3594                   23733658.3714
   9682106.96148   7540650.13345  21951246.9534                   21951244.9024
 -10854333.55147  -9282178.19545  22997750.2584                   22997749.4574
  -8100667.39146  -6311568.77043  23768328.5474                   23768328.9694
 11  7 26 18 36 30.0000000  0 11G03G06G07G10G13G16G19G28G23G08G11
   5129111.58247   3997577.46545  22217826.2894                   22217825.5084
  10808879.12546   8417597.28943  24157607.3364                   24157606.7734
 -12923269.25848 -10068180.56246  21278000.0554                   21277997.1524
    929083.99246    725331.08244  24590221.9224                   24590224.9964
  -3388597.07448  -2635898.98446  20530278.9774                   20530276.9144
  19878784.72746  15471515.03543  24968139.5864                   24968138.2664
 -10118897.02348  -7876637.31246  21103653.3754                   21103649.6024
  -7802856.19147  -6075119.97744  23724875.7114                   23724875.9734
   9789454.28948   7624297.30545  21971674.8364                   21971672.4654
 -10916129.78147  -9330331.07445  22985990.9224                   22985989.6954
  -8169232.34046  -6364995.90243  23755281.1334                   23755281.5824
 11  7 26 18 37  0.0000000  0 11G03G06G07G10G13G16G19G28G23G08G11
   5224871.30147   4072195.41845  22236049.2814                   22236048.0044
  10913446.50846   8499078.35543  24177506.4144                   24177506.1374
 -12960165.01648 -10096930.49246  21270978.7734                   21270976.1684
    990473.02046    773166.49644  24601904.3984                   24601906.9964
  -3328185.50848  -2588825.08646  20541775.1254                   20541773.0554
  19977356.61346  15548324.30143  24986896.4924                   24986895.9884
 -10088218.58248  -7852732.01246  21109491.3364                   21109487.9024
  -7848758.70347  -6110888.04744  23716140.7734                   23716141.5634
   9897164.09448   7708226.89845  21992171.2664                   21992169.4344
 -10977907.46147  -9378469.50445  22974235.0704                   22974234.2974
  -8237709.10546  -6418354.31643  23742249.8524                   23742250.4924
 11  7 26 18 37 30.0000000  0 10G03G06G07G10G13G19G28G23G08G11
   5321055.47747   4147144.10245  22254352.2734                   22254351.0744
  11018284.10546   8580769.95743  24197456.1724                   24197455.3404
 -12996877.04348 -10125537.27346  21263992.7734                   21263989.7894
   1052141.41046    821219.61344  24613639.3444                   24613641.9184
  -3267184.84048  -2541292.14546  20553383.0004                   20553380.9534
 -10056895.79348  -7828324.62946  21115451.6644                   21115448.2274
  -7894416.05547  -6146465.10944  23707452.5474                   23707452.3874
  10005232.21548   7792435.71945  22012735.9064                   22012733.9844
 -11039666.89847  -9426593.71145  22962482.3754                   22962481.2344
  -8306095.88346  -6471642.59843  23729236.1024                   23729236.9924
 11  7 26 18 38  0.0000000  0 10G03G06G07G10G13G19G28G23G08G11
   5417661.89847   4222421.79745  22272735.1804                   22272734.7934
  11123390.11746   8662670.69543  24217457.3524                   24217456.6524
 -13033403.33648 -10153999.31246  21257041.6254                   21257039.3014
   1114086.78946    869488.59043  24625427.4924                   24625429.2814
  -3205595.99648  -2493300.87946  20565102.9844                   20565100.8524
 -10024928.57048  -7803415.09046  21121535.0394                   21121531.0164
  -7939827.77347  -6181850.77744  23698811.0164                   23698809.7974
  10113657.05548   7876922.50845  22033368.6804                   22033366.6564
 -11101406.23047  -9474702.27045  22950733.7344                   22950732.6214
  -8374389.09446  -6524857.99644  23716240.7894                   23716241.1094
 11  7 26 18 38 30.0000000  0 10G03G06G07G10G13G19G28G23G08G11
   5514690.23447   4298028.28944  22291200.0474                   22291198.6454
  11228763.97346   8744780.12943  24237509.5864                   24237508.7584
 -13069740.25448 -10182313.79346  21250127.1564                   21250124.1884
   1176308.73046    917973.04743  24637268.0234                   24637270.1604
  -3143418.03548  -2444850.56646  20576935.0634                   20576933.3094
  -9992315.87147  -7778002.59046  21127740.9224                   21127737.1214
  -7984992.16447  -6217043.68444  23690216.6884                   23690215.4964
  10222437.76248   7961686.57445  22054068.9384                   22054067.0514
 -11163122.41447  -9522792.78545  22938990.0234                   22938988.5664
  -8442583.74646  -6577996.56244  23703263.4774                   23703264.4654
 11  7 26 18 39  0.0000000  0 10G03G06G07G10G13G19G28G23G08G11
   5612147.27347   4373968.81644  22309744.8054                   22309744.0824
  11334412.58646   8827103.66443  24257613.7664                   24257612.7544
 -13105876.53148 -10210471.92246  21243250.5864                   21243248.1914
   1238813.82046    966678.19543  24649162.5164                   24649164.7664
  -3080642.88748  -2395934.91446  20588880.7194                   20588878.7504
  -9959049.06248  -7752080.38746  21134071.1724                   21134067.6294
  -8029899.99647  -6252036.71944  23681670.3984                   23681669.1844
  10331581.07048   8046733.20345  22074838.4844                   22074836.0744
 -11224804.79347  -9570856.93445  22927251.7034                   22927250.2974
  -8510667.28947  -6631048.56243  23690307.4064                   23690308.4184
 11  7 26 18 39 30.0000000  0 10G03G06G07G10G13G19G28G23G08G11
   5710020.67647   4450233.75044  22328369.8054                   22328368.3874
  11440324.23046   8909632.18843  24277768.7814                   24277766.6294
 -13141819.94948 -10238479.77346  21236410.7424                   21236408.0984
   1301590.37746   1015594.83043  24661109.3674                   24661110.3634
  -3017281.36348  -2346562.34046  20600937.8364                   20600936.3284
  -9925138.11348  -7725656.25446  21140524.1724                   21140520.4224
  -8074560.89847  -6286837.34843  23673171.5234                   23673170.4024
  10441074.86348   8132052.94545  22095674.5864                   22095672.3244
 -11286462.03947  -9618901.52745  22915518.9454                   22915517.4804
  -8578646.10947  -6684018.95344  23677371.7584                   23677372.7194
 11  7 26 18 40  0.0000000  0 10G03G06G07G10G13G19G28G23G08G11
   5808305.86747   4526819.61344  22347072.6884                   22347071.5394
  11546494.97346   8992362.55143  24297972.2734                   24297970.6054
 -13177570.32048 -10266337.19946  21229607.6724                   21229605.4104
   1364633.94946   1064719.49243  24673106.1414                   24673107.1134
  -2953336.83248  -2296735.48446  20613106.3914                   20613104.6174
  -9890585.50048  -7698732.13346  21147099.6724                   21147096.0044
  -8118977.10947  -6321447.28544  23664718.8754                   23664718.5554
  10550915.13748   8217642.67245  22116576.9534                   22116574.2664
 -11348094.44947  -9666926.75845  22903790.8524                   22903789.7384
  -8646518.40646  -6736906.34443  23664455.4454                   23664455.6174
 11  7 26 18 40 30.0000000  0 10G03G06G07G10G13G19G28G23G08G11
   5907004.07047   4603727.27044  22365854.2894                   22365852.5274
  11652926.11746   9075295.83243  24318225.1094                   24318223.6484
 -13213122.18748 -10294039.94946  21222842.4694                   21222839.9224
   1427945.91846   1114053.33243  24685153.3984                   24685153.8954
  -2888806.77748  -2246452.37146  20625385.8834                   20625384.3954
  -9855388.05148  -7671305.52746  21153797.6024                   21153793.8794
  -8163144.02047  -6355862.98044  23656314.2344                   23656313.5634
  10661103.29748   8303503.48445  22137544.3984                   22137542.8554
 -11409697.12547  -9714928.81245  22892067.7504                   22892066.9264
  -8714277.64147  -6789705.59843  23651560.9064                   23651561.6684
 11  7 26 18 41  0.0000000  0 10G03G06G07G10G13G19G28G23G08G11
   6006112.81347   4680954.84444  22384714.3674                   22384713.3404
  11759615.48046   9158430.43843  24338527.4454                   24338525.9694
 -13248473.81248 -10321586.67246  21216115.2814                   21216112.9104
   1491523.87146   1163594.48443  24697251.8674                   24697252.9804
  -2823692.12948  -2195713.72746  20637777.1484                   20637775.2854
  -9819546.34848  -7643376.92646  21160617.4774                   21160613.9494
  -8207062.10947  -6390084.79343  23647956.4454                   23647956.2114
  10771636.32847   8389633.01645  22158578.6334                   22158576.3524
 -11471268.56247  -9762906.53945  22880351.1724                   22880350.4574
  -8781920.62546  -6842414.32844  23638688.7814                   23638689.3284
 11  7 26 18 41 30.0000000  0 10G03G06G07G10G13G19G28G23G08G11
   6105617.73447   4758491.12945  22403649.7424                   22403648.5354
  11866548.93446   9241755.13343  24358876.6724                   24358875.2664
 -13283635.20348 -10348985.14546  21209424.1804                   21209421.8284
   1555353.36346   1213331.60243  24709398.4844                   24709399.6914
  -2758006.12548  -2144529.87546  20650276.7194                   20650274.6914
  -9783073.05547  -7614956.17646  21167558.1644                   21167554.4344
  -8250743.38347  -6424122.07043  23639644.4844                   23639643.2034
  10882500.38748   8476020.48845  22179675.2504                   22179673.3754
 -11532819.50447  -9810868.29345  22868638.4924                   22868637.2464
  -8849455.64146  -6895038.87944  23625838.1564                   23625838.5554
 11  7 26 18 42  0.0000000  0 10G03G06G07G10G13G19G28G23G08G11
   6205511.89847   4836330.71944  22422658.4224                   22422657.4414
  11973719.87546   9325264.89544  24379270.2894                   24379269.8134
 -13318608.77048 -10376237.27046  21202768.6414                   21202766.7234
   1619427.52346   1263259.38742  24721590.7584                   24721591.5664
  -2691754.55948  -2092905.32046  20662883.9774                   20662882.2034
  -9745973.37147  -7586047.32446  21174618.1254                   21174613.9144
  -8294192.27347  -6457978.25044  23631376.8444                   23631375.8984
  10993688.48047   8562660.44545  22200833.5704                   22200832.0664
 -11594352.94147  -9858816.39545  22856929.0784                   22856927.9454
  -8916883.93747  -6947580.27744  23613006.1414                   23613007.0274
 11  7 26 18 42 30.0000000  0 10G03G06G07G10G13G19G28G23G08G11
   6305797.92247   4914475.64845  22441742.3134                   22441741.7734
  12081131.32446   9408962.10244  24399709.7974                   24399708.6954
 -13353387.18048 -10403337.32846  21196150.6644                   21196148.2504
   1683749.37146   1313380.11342  24733831.1334                   24733832.9264
  -2624933.37948  -2040836.91846  20675599.5634                   20675597.9104
  -9708242.48447  -7556646.63746  21181798.4384                   21181794.2774
  -8337403.40647  -6491649.21144  23623154.0784                   23623153.5744
  11105203.24647   8649554.95345  22222054.3754                   22222052.4454
 -11655862.24247  -9906745.70745  22845224.6644                   22845222.6604
  -8984197.05947  -7000031.92644  23600197.0554                   23600198.1254
 11  7 26 18 43  0.0000000  0 10G03G06G07G10G13G19G28G23G08G11
   6406460.74247   4992914.18444  22460898.1804                   22460896.9804
  12188768.23847   9492834.95744  24420192.2424                   24420191.3794
 -13387981.38748 -10430293.84846  21189567.3364                   21189565.0234
   1748303.84446   1363682.14543  24746115.0234                   24746118.4574
  -2557556.80148  -1988335.73846  20688420.7584                   20688418.6214
  -9669893.94147  -7526764.65246  21189095.8284                   21189092.0944
  -8380389.85547  -6525145.08244  23614973.0864                   23614972.8324
  11217029.59848   8736692.24645  22243334.0634                   22243332.4964
 -11717358.92247  -9954665.16445  22833521.8524                   22833520.7384
  -9051404.38747  -7052401.12544  23587407.7814                   23587408.6454
 11  7 26 18 43 30.0000000  0 10G03G06G07G10G13G19G28G23G08G11
   6507503.89547   5071649.07444  22480126.4144                   22480124.8914
  12296634.90246   9576886.83644  24440718.8984                   24440718.4264
 -13422383.20348 -10457100.45746  21183020.9534                   21183019.2704
   1813094.25846   1414168.02042  24758445.2194                   24758449.1914
  -2489619.55948  -1935397.66446  20701349.1804                   20701347.3134
  -9630922.23047  -7496397.07846  21196511.7034                   21196507.8404
  -8423145.06647  -6558460.77344  23606837.8054                   23606837.2504
  11329171.57047   8824075.48445  22264674.0704                   22264673.0314
 -11778835.16447 -10002568.71545  22821823.5004                   22821821.9224
  -9118496.63347  -7104680.68044  23574640.7194                   23574641.0084
 11  7 26 18 44  0.0000000  0 10G03G06G07G10G13G19G28G23G08G11
   6608907.95347   5150665.18444  22499422.1644                   22499421.5984
  12404711.94547   9661102.66444  24461285.3984                   24461284.6604
 -13456607.91048 -10483769.05946  21176508.6484                   21176506.2074
   1878101.18045   1464822.58242  24770815.4844                   24770818.9304
  -2421140.42648  -1882037.34446  20714380.3284                   20714378.2854
  -9591345.12947  -7465557.76646  21204042.8594                   21204038.7234
  -8465686.28547  -6591609.71944  23598742.0474                   23598741.6644
  11441609.47347   8911689.31645  22286071.0944                   22286068.1134
 -11840306.66847 -10050468.56645  22810125.2734                   22810124.5554
  -9185487.07447  -7156880.88744  23561892.4774                   23561892.9694
 11  7 26 18 44 30.0000000  0 10G03G06G07G10G13G19G28G23G08G11
   6710680.31347   5229968.29344  22518789.3674                   22518788.1844
  12513007.24246   9745488.55144  24481893.2584                   24481892.3984
 -13490642.98848 -10510289.89846  21170031.6804                   21170028.9494
   1943332.37945   1515651.87942  24783228.3984                   24783232.0514
  -2352110.83648  -1828248.10946  20727515.8524                   20727514.4924
  -9551153.73847  -7434239.79346  21211690.8524                   21211686.8014
  -8508003.66447  -6624584.23844  23590689.8204                   23590689.3364
  11554350.80148   8999539.60245  22307524.8364                   22307522.5664
 -11901761.91047 -10098355.73445  22798431.2974                   22798429.7504
  -9252362.28147  -7208991.30544  23549166.4774                   23549166.6804
 11  7 26 18 45  0.0000000  0 10G03G06G07G10G13G19G28G23G08G11
   6812801.43447   5309543.18044  22538222.3284                   22538221.0554
  12621501.60246   9830029.55944  24502539.3984                   24502538.3674
 -13524503.97348 -10536675.08246  21163588.3834                   21163586.0944
   2008768.73446   1566641.00443  24795682.4534                   24795683.9884
  -2282549.00848  -1774044.13346  20740753.3364                   20740751.2424
  -9510365.39847  -7402456.66446  21219452.6484                   21219448.6764
  -8550114.24647  -6657397.62144  23582675.7424                   23582675.8954
  11667376.24648   9087611.27745  22329032.9144                   22329031.6334
 -11963216.75847 -10146242.62945  22786736.8914                   22786735.3284
  -9319136.14847  -7261022.77744  23536459.7424                   23536460.3714
 11  7 26 18 45 30.0000000  0 10G03G06G07G10G13G19G28G23G08G11
   6915270.85947   5389389.44944  22557721.2584                   22557720.0944
  12730194.60946   9914725.34443  24523222.3834                   24523222.4454
 -13558186.94548 -10562921.54746  21157178.5704                   21157175.9494
   2074409.30146   1617789.29743  24808173.0864                   24808175.0394
  -2212454.29348  -1719424.92646  20754091.8914                   20754089.8554
  -9468979.30947  -7370207.75446  21227328.4534                   21227324.2504
  -8592015.93047  -6690048.23444  23574702.6884                   23574701.8324
  11780685.17647   9175903.81345  22350594.2504                   22350592.8634
 -12024667.65247 -10194126.42645  22775042.3914                   22775042.2344
  -9385803.54747  -7312971.27344  23523773.9454                   23523773.8714
 11  7 26 18 46  0.0000000  0 10G03G06G07G10G13G19G28G23G08G11
   7018083.79747   5469503.40244  22577286.9224                   22577284.4574
  12839082.23846   9999572.77743  24543942.9304                   24543943.2274
 -13591691.68448 -10589029.14146  21150802.9694                   21150800.4454
   2140249.69546   1669093.39143  24820701.5164                   24820705.1374
  -2141830.32048  -1664393.31246  20767531.3524                   20767529.2814
  -9426998.37147  -7337495.32446  21235316.9844                   21235313.1884
  -8633711.01247  -6722537.83244  23566767.8834                   23566767.8874
  11894273.08247   9264413.75045  22372210.2274                   22372208.4304
 -12086114.87547 -10242007.33245  22763349.7114                   22763349.1454
  -9452362.93447  -7364835.60544  23511107.5634                   23511108.3364
 11  7 26 18 46 30.0000000  0 10G03G06G07G10G13G19G28G23G08G11
   5545817.34447   4322282.74644  22297123.5234                   22297121.9844
  11372742.00446   8856969.93443  24264908.0704                   24264908.7504
 -15200441.47748 -11842600.40246  20844667.9384                   20844665.8714
    630865.87946    492949.97343  24533476.0314                   24533478.6134
  -3646099.86348  -2836551.44546  20481278.3754                   20481276.0704
 -10959845.61347  -8531921.73446  20943626.2194                   20943622.1174
 -10250624.82847  -7982470.59844  23259079.8984                   23259079.7304
  10432717.41447   8125539.08645  22094085.2894                   22094083.6054
 -13722983.24247 -11517489.16045  22451864.0394                   22451862.9734
 -11094237.18747  -8644218.02344  23198668.6724                   23198668.8094
 11  7 26 18 47  0.0000000  0 10G03G06G07G10G13G19G28G23G08G11
   5649295.41047   4402914.96944  22316814.5474                   22316813.5784
  11481997.70746   8942104.18843  24285698.6484                   24285698.6024
 -15233598.64848 -11868437.16446  20838358.4224                   20838356.2344
    697084.33646    544548.59443  24546076.5004                   24546078.9614
  -3574436.23048  -2780709.70746  20494915.6334                   20494913.7344
 -10916691.96947  -8498295.52046  20951837.6174                   20951833.8204
 -10291921.29747  -8014649.60544  23251221.2894                   23251221.3954
  10546841.09047   8214466.50445  22115802.2814                   22115800.7814
 -13784433.88347 -11565372.75445  22440170.5784                   22440168.9414
 -11160585.19547  -8695917.65644  23186042.9924                   23186043.4964
 11  7 26 18 47 30.0000000  0 10G03G06G07G10G13G19G28G23G08G11
   5753094.29747   4483797.19144  22336566.3284                   22336565.5744
  11591426.32046   9027373.20343  24306522.1724                   24306521.8674
 -15266586.92648 -11894142.30946  20832081.0314                   20832078.7624
    763480.08647    596285.37943  24558712.3364                   24558714.1994
  -3502262.95348  -2724470.84046  20508649.5234                   20508648.4964
 -10872961.06247  -8464219.49246  20960159.6564                   20960156.1564
 -10333026.72347  -8046679.74244  23243399.1724                   23243398.7154
  10661221.31348   8303593.82445  22137568.7194                   22137567.1914
 -13845891.77747 -11613262.00445  22428475.1884                   22428474.2074
 -11226830.68047  -8747537.39544  23173437.6804                   23173437.5004
 11  7 26 18 48  0.0000000  0 10G03G06G07G10G13G19G28G23G08G11
   5857214.41846   4564929.73044  22356379.7814                   22356379.4654
  11701028.64546   9112777.58643  24327378.8284                   24327378.5744
 -15299401.27748 -11919711.93046  20825836.3754                   20825834.3094
    830053.53947    648160.64143  24571380.3284                   24571383.4104
  -3429578.37548  -2667833.55146  20522481.3984                   20522480.2274
 -10828651.07447  -8429692.22746  20968591.1174                   20968587.4384
 -10373937.98847  -8078558.60244  23235613.8524                   23235613.3204
  10775858.55147   8392921.41445  22159383.2814                   22159381.7814
 -13907352.31647 -11661153.32445  22416779.5864                   22416777.9414
 -11292966.89547  -8799071.98444  23160851.5864                   23160851.7154
 11  7 26 18 48 30.0000000  0 10G03G06G07G10G13G19G28G23G08G11
   5961647.61747   4646306.18844  22376253.0634                   22376251.9804
  11810796.96946   9198311.24642  24348267.0004                   24348266.6644
 -15332045.33648 -11945148.85546  20819624.7194                   20819622.2074
    896796.55946    700168.00043  24584081.1564                   24584083.6524
  -3356389.28148  -2610803.14146  20536408.9384                   20536407.1954
 -10783768.48047  -8394718.78146  20977131.9144                   20977128.5824
 -10414660.78547  -8110290.57444  23227864.8284                   23227864.0204
  10890744.47347   8482442.79345  22181245.3054                   22181243.2934
 -13968819.87547 -11709050.11345  22405083.1094                   22405081.4614
 -11358996.26647  -8850523.33644  23148286.6644                   23148286.3134
 11  7 26 18 49  0.0000000  0 10G03G06G07G10G13G19G28G23G08G11
   6066394.98447   4727927.46944  22396186.2194                   22396185.0004
  11920732.44546   9283975.18842  24369187.1484                   24369186.2704
 -15364513.55548 -11970448.75446  20813446.1414                   20813443.7344
    963710.86347    752308.84843  24596814.9384                   24596817.9064
  -3282694.23048  -2553378.48046  20550432.4534                   20550430.6524
 -10738310.93047  -8359297.32046  20985782.5474                   20985778.7424
 -10455191.62147  -8141872.96544  23220152.1484                   23220151.4694
  11005880.21547   8572158.82445  22203155.1174                   22203153.4104
 -14030289.31647 -11756948.34845  22393385.1954                   22393384.2894
 -11424911.69547  -8901885.87543  23135743.4534                   23135743.0234
 11  7 26 18 49 30.0000000  0 10G03G06G07G10G13G19G28G23G08G11
   6171454.17646   4809791.75044  22416177.8674                   22416177.0164
  12030833.23046   9369767.95743  24390138.2424                   24390138.0354
 -15396803.75048 -11995609.94146  20807301.4064                   20807299.0784
   1030793.69947    804580.99244  24609580.2734                   24609583.4184
  -3208495.07048  -2495561.00046  20564552.1724                   20564550.5274
 -10692279.20748  -8323428.44546  20994541.9614                   20994538.3794
 -10495530.47347  -8173305.75444  23212475.0234                   23212474.9384
  11121263.38747   8662067.66845  22225111.5474                   22225109.9494
 -14091758.82047 -11804846.64545  22381688.2584                   22381686.5204
 -11490709.84446  -8953157.01643  23123221.9304                   23123222.0434
 11  7 26 18 50  0.0000000  0 10G03G06G07G10G13G19G28G23G08G11
   6276817.10246   4891892.67244  22436228.0084                   22436226.7664
  12141091.59046   9455683.55943  24411120.5004                   24411120.7034
 -15428919.52748 -12020635.22346  20801190.1484                   20801187.6214
   1098037.02347    856978.25444  24622376.5234                   24622379.4224
  -3133798.49648  -2437355.93446  20578766.4534                   20578764.7894
 -10645679.89547  -8287117.29746  21003409.6094                   21003405.8874
 -10535683.39147  -8204593.68044  23204834.2274                   23204834.1254
  11236886.08247   8752163.14545  22247114.3834                   22247112.4694
 -14153232.42647 -11852748.12545  22369990.1484                   22369988.9024
 -11556392.76647  -9004338.38344  23110722.6564                   23110722.6414
 11  7 26 18 50 30.0000000  0 10G03G06G07G10G13G19G28G23G08G11
   6382485.39547   4974231.56644  22456335.6804                   22456334.2034
  12251509.62946   9541723.50043  24432132.9614                   24432132.8524
 -15460854.47748 -12045519.59046  20795113.4144                   20795110.9224
   1165442.60947    909501.87144  24635203.8444                   24635205.9264
  -3058601.64548  -2378761.03146  20593076.1484                   20593074.3204
 -10598509.78148  -8250361.36346  21012385.9064                   21012381.9384
 -10575645.97347  -8235733.28144  23197229.7344                   23197228.9614
  11352749.99647   8842446.56645  22269162.4924                   22269160.9964
 -14214704.30947 -11900648.25045  22358292.2974                   22358291.2074
 -11621953.01247  -9055424.16444  23098247.0864                   23098247.6134
 11  7 26 18 51  0.0000000  0 10G03G06G07G10G13G19G28G23G08G11
   6488452.26246   5056803.09844  22476500.6884                   22476499.6024
  12362080.97746   9627882.91843  24453174.1414                   24453173.5164
 -15492610.58248 -12070264.60946  20789070.1334                   20789067.7734
   1233003.70347    962146.67243  24648059.9144                   24648063.5204
  -2982910.78948  -2319781.19546  20607479.3134                   20607477.9654
 -10550774.34447  -8213164.92246  21021469.9064                   21021465.7234
 -10615422.62547  -8266727.96144  23189659.9224                   23189660.2624
  11468848.23847   8932912.60245  22291255.7504                   22291253.5664
 -14276177.35547 -11948549.30545  22346594.3984                   22346593.0864
 -11687391.28547  -9106414.89144  23085794.3204                   23085795.0274
 11  7 26 18 51 30.0000000  0 10G03G06G07G10G13G19G28G23G08G11
   6594711.72347   5139602.64844  22496721.3984                   22496719.9774
  12472799.93846   9714157.44943  24474242.4454                   24474241.4694
 -15524189.66448 -12094871.68746  20783060.8444                   20783058.3014
   1300714.73047   1014908.38744  24660945.2814                   24660948.3054
  -2906730.78548  -2260420.19946  20621975.9384                   20621974.6524
 -10502477.91048  -8175531.32046  21030660.1024                   21030656.2154
 -10655017.03547  -8297580.68745  23182125.8914                   23182125.8014
  11585174.99247   9023556.65645  22313391.7344                   22313390.4574
 -14337653.16447 -11996452.50445  22334895.9304                   22334894.6134
 -11752707.52047  -9157310.50444  23073365.3674                   23073364.9264
 11  7 26 18 52  0.0000000  0 10G03G06G07G10G13G19G28G23G08G11
   6701264.50447   5222630.75444  22516998.4614                   22516996.2624
  12583667.79346   9800547.92643  24495340.3914                   24495339.1094
 -15555586.22348 -12119336.53546  20777086.3674                   20777084.0234
   1368576.28547   1067787.32444  24673858.9774                   24673861.8984
  -2830059.97348  -2200676.75446  20636566.1564                   20636564.5984
 -10453618.59048  -8137459.10946  21039957.8914                   21039953.8754
 -10694425.73447  -8328288.71544  23174627.0394                   23174625.9884
  11701730.86347   9114379.27345  22335571.7424                   22335570.5514
 -14399126.48447 -12044353.77045  22323198.2504                   22323197.1484
 -11817895.53947  -9208106.21144  23060960.1804                   23060960.2464
 11  7 26 18 52 30.0000000  0 10G03G06G07G10G13G19G28G23G08G11
   6808106.20347   5305883.98444  22537329.8054                   22537327.8324
  12694680.64146   9887051.41443  24516465.2974                   24516464.8134
 -15586799.82848 -12143658.82046  20771146.6254                   20771144.1174
   1436583.81247   1120780.02044  24686800.5944                   24686804.3794
  -2752901.73848  -2140553.51646  20651248.5394                   20651247.0434
 -10404199.36748  -8098950.62946  21049362.1644                   21049358.2194
 -10733651.06247  -8358853.80144  23167162.7274                   23167161.4574
  11818511.71947   9205377.19145  22357793.9144                   22357793.5434
 -14460597.78147 -12092253.45745  22311500.4304                   22311499.6844
 -11882953.31647  -9258800.45744  23048580.4384                   23048580.1564
 11  7 26 18 53  0.0000000  0 10G03G06G07G10G13G19G28G23G08G11
   6915221.81247   5389350.63744  22557712.6644                   22557711.7934
  12805823.85546   9973656.45344  24537614.8914                   24537615.6254
 -15617840.96148 -12167846.73046  20765239.4224                   20765237.0314
   1504722.80546   1173875.14543  24699766.9304                   24699770.5354
  -2675270.32848  -2080061.55946  20666021.3754                   20666020.0044
 -10354233.40648  -8060016.10246  21058870.3364                   21058866.5594
 -10772705.25447  -8389285.57044  23159730.3834                   23159729.4144
  11935502.57847   9296538.76245  22380057.4774                   22380056.2274
 -14522077.93447 -12140160.05145  22299801.0314                   22299799.7934
 -11947889.99647  -9309400.29744  23036222.9534                   23036223.2074
 11  7 26 18 53 30.0000000  0 10G03G06G07G10G13G19G28G23G08G11
   7022616.86347   5473035.06344  22578149.3134                   22578148.8364
  12917103.21146  10060367.59844  24558791.3674                   24558790.9184
 -15648699.62148 -12191892.44546  20759367.2734                   20759365.0434
   1572998.59846   1227076.87943  24712759.6564                   24712763.0084
  -2597159.56348  -2019196.08246  20680885.6254                   20680883.7894
 -10303714.27048  -8020650.53946  21068483.8284                   21068479.8244
 -10811580.74647  -8419578.09844  23152332.2344                   23152331.8054
  12052708.90647   9387868.21145  22402361.0944                   22402359.9494
 -14583557.40647 -12188066.10945  22288101.8054                   22288101.4064
 -12012694.13747  -9359896.89844  23023890.9144                   23023890.5664
 11  7 26 18 54  0.0000000  0 10G03G06G07G10G13G19G28G23G08G11
   7130282.87947   5556930.60244  22598637.7424                   22598636.4454
  13028510.59846  10147178.45743  24579991.8754                   24579991.1094
 -15679379.90248 -12215799.14546  20753528.8754                   20753526.2114
   1641402.53147   1280378.48844  24725777.0944                   24725778.9144
  -2518577.78948  -1957963.58246  20695839.3204                   20695837.5824
 -10252649.28948  -7980859.64546  21078200.5234                   21078197.1414
 -10850283.91447  -8449736.35244  23144967.6254                   23144966.7974
  12170121.75047   9479358.58644  22424704.0704                   22424702.8204
 -14645040.80547 -12235975.21945  22276402.5474                   22276400.8014
 -12077368.58247  -9410292.45344  23011583.6884                   23011583.4064
 11  7 26 18 54 30.0000000  0 10G03G06G07G10G13G19G28G23G08G11
   7238220.84047   5641038.05544  22619177.8674                   22619176.8674
  13140047.57846  10234090.34843  24601216.5004                   24601215.5354
 -15709875.92247 -12239562.27346  20747725.8054                   20747723.5474
   1709936.26246   1333781.23444  24738818.3134                   24738822.2034
  -2439522.45348  -1896362.07046  20710883.2894                   20710881.7734
 -10201036.10948  -7940641.58646  21088022.6334                   21088019.0164
 -10888811.06647  -8479757.45744  23137635.3914                   23137635.0864
  12287742.79347   9571011.19944  22447086.5314                   22447085.3014
 -14706522.77347 -12283883.23445  22264702.7424                   22264700.9344
 -12141906.03547  -9460581.23844  22999302.1954                   22999303.4614
 11  7 26 18 55  0.0000000  0 10G03G06G07G10G13G19G28G23G08G11
   7346428.84447   5725355.92644  22639769.0164                   22639768.2234
  13251712.66446  10321102.03143  24622464.5554                   24622464.8874
 -15740184.95348 -12263179.69946  20741958.1334                   20741956.0514
   1778597.82046   1387283.56643  24751884.3674                   24751887.9614
  -2359994.78148  -1834392.50846  20726016.6644                   20726015.2154
 -10148875.11348  -7899996.66046  21097948.5004                   21097945.0164
 -10927161.79347  -8509641.05944  23130338.0314                   23130337.1334
  12405570.01647   9662824.46145  22469507.9614                   22469507.3324
 -14768000.43447 -12331787.87545  22253003.1484                   22253002.9184
 -12206302.69147  -9510760.31244  22987048.1804                   22987048.4734
 11  7 26 18 55 30.0000000  0 10G03G06G07G10G13G19G28G23G08G11
   7454891.84046   5809872.54344  22660408.8284                   22660407.1994
  13363491.24245  10408202.16443  24643735.7194                   24643735.5164
 -15770317.26648 -12286659.41446  20736223.7894                   20736221.8284
   1847371.88346   1440873.59043  24764971.3364                   24764975.1054
  -2280008.97348  -1772065.95346  20741237.5004                   20741236.1054
 -10096180.29748  -7858935.76246  21107976.0634                   21107972.0274
 -10965348.74647  -8539397.07044  23123071.5004                   23123070.4024
  12523588.26647   9754786.59045  22491966.4614                   22491965.3364
 -14829484.93047 -12379697.86345  22241303.3524                   22241302.1454
 -12270567.59847  -9560836.72344  22974818.9694                   22974818.2734
 11  7 26 18 56  0.0000000  0 10G03G06G07G10G13G19G28G23G08G11
   7563608.95747   5894587.10244  22681097.1094                   22681095.8094
  13475383.21545  10495390.64543  24665028.2194                   24665027.9384
 -15800269.07048 -12309998.48046  20730524.6024                   20730522.6134
   1916258.04746   1494550.90243  24778080.2344                   24778084.0044
  -2199565.16448  -1709382.50846  20756545.4304                   20756544.0164
 -10042951.09048  -7817458.46546  21118105.4534                   21118101.2114
 -11003370.28947  -8569024.18744  23115835.8524                   23115835.2384
  12641796.94947   9846897.09445  22514461.0004                   22514460.0514
 -14890972.75047 -12427610.42645  22229602.4454                   22229601.7034
 -12334695.27047  -9610806.22344  22962615.9224                   22962615.8634
 11  7 26 18 56 30.0000000  0 10G03G06G07G10G13G19G28G23G08G11
   7672580.65647   5979500.07044  22701833.8754                   22701832.4654
  13587388.53545  10582667.45743  24686341.4694                   24686341.7624
 -15830035.65248 -12333193.21146  20724860.2194                   20724858.0084
   1985256.10246   1548315.39543  24791210.0944                   24791212.9024
  -2118662.85948  -1646341.80146  20771940.7734                   20771939.0474
  -9989186.37948  -7775563.86346  21128336.4144                   21128332.0514
 -11041224.30547  -8598520.77744  23108632.7894                   23108631.8164
  12760195.78947   9939155.78545  22536992.0394                   22536991.0204
 -14952459.87147 -12475522.45345  22217902.4384                   22217901.0744
 -12398680.13347  -9660664.44544  22950439.5944                   22950439.8054
 11  7 26 18 57  0.0000000  0 10G03G06G07G10G13G19G28G23G08G11
   7781795.24247   6064602.28944  22722616.4304                   22722615.5744
  13699496.89845  10670024.51643  24707675.2504                   24707676.0474
 -15859623.71548 -12356248.84046  20719229.4614                   20719227.5314
   2054355.30146   1602158.69143  24804360.8674                   24804362.9574
  -2037312.37548  -1582951.85946  20787421.1174                   20787419.3984
  -9934896.05948  -7733259.74246  21138667.6174                   21138663.3554
 -11078919.38347  -8627893.50044  23101459.4774                   23101457.6684
  12878773.78947  10031554.06345  22559556.8914                   22559556.0124
 -15013952.77747 -12523438.98445  22206200.2194                   22206199.3364
 -12462527.34847  -9710415.41444  22938290.3594                   22938289.1054
 11  7 26 18 57 30.0000000  0  9G03G06G07G13G19G28G23G08G11
   7891245.69147   6149888.30144  22743444.4614                   22743443.3634
  13811701.17245  10757456.30942  24729026.9224                   24729028.1724
 -15889036.06248 -12379167.53946  20713632.8054                   20713630.3984
  -1955520.48048  -1519217.96946  20802985.4224                   20802984.1054
  -9880086.45748  -7690550.96146  21149097.3914                   21149093.1994
 -11116460.72347  -8657146.44144  23094315.8444                   23094314.0904
  12997523.19547  10124085.91844  22582154.4064                   22582152.9494
 -15075455.00447 -12571362.77745  22194497.0634                   22194495.6334
 -12526238.44547  -9760060.34044  22926166.3204                   22926165.5234
 11  7 26 18 58  0.0000000  0  9G03G06G07G13G19G28G23G08G11
   8000928.94147   6235355.74644  22764316.4844                   22764315.3324
  13923998.78145  10844960.87542  24750396.8444                   24750396.8674
 -15918270.66448 -12401947.75046  20708069.7814                   20708067.8014
  -1873289.41448  -1455141.85546  20818633.7194                   20818632.2854
  -9824759.44948  -7647438.98846  21159625.4064                   21159621.2384
 -11153849.25447  -8686280.30144  23087200.2734                   23087199.2384
  13116441.54747  10216749.39544  22604783.1644                   22604782.3914
 -15136964.94147 -12619292.59045  22182791.8284                   22182790.4804
 -12589810.32047  -9809596.75844  22914068.8204                   22914068.0084
 11  7 26 18 58 30.0000000  0  9G03G06G07G13G19G28G23G08G11
   8110843.41447   6321003.33644  22785232.5164                   22785231.9654
  14036388.92646  10932537.57042  24771784.6094                   24771783.3954
 -15947324.35548 -12424586.98046  20702540.6644                   20702538.6214
  -1790619.87548  -1390724.07846  20834365.5234                   20834363.8834
  -9768915.29748  -7603924.06646  21170252.1644                   21170247.8984
 -11191083.55547  -8715293.98444  23080115.0474                   23080114.2934
  13235527.36347  10309543.38344  22627445.2114                   22627443.8204
 -15198479.83647 -12667226.26645  22171086.1884                   22171085.0394
 -12653238.30547  -9859021.07844  22901998.0634                   22901997.9454
 11  7 26 18 59  0.0000000  0  8G03G07G13G19G28G23G08G11
   8220991.89547   6406833.26644  22806193.0704                   22806192.5164
 -15976189.97748 -12447079.66446  20697047.8444                   20697045.1724
  -1707508.58248  -1325962.08246  20850181.1644                   20850179.6134
  -9712549.93448  -7560003.01246  21180978.5164                   21180974.4454
 -11228158.85547  -8744183.77344  23073059.6954                   23073058.8204
  13354783.20347  10402469.85244  22650138.7424                   22650137.8484
 -15259992.66447 -12715158.30145  22159380.3134                   22159379.3094
 -12716514.02346  -9908326.73044  22889957.1414                   22889957.3164
 11  7 26 18 59 30.0000000  0  8G03G07G13G19G28G23G08G11
   8331365.02747   6492838.25844  22827196.5864                   22827195.5864
 -16004871.85548 -12469429.18046  20691589.8204                   20691587.4694
  -1623964.53948  -1260862.87946  20866078.6174                   20866077.4494
  -9655671.91848  -7515682.47346  21191802.1644                   21191797.7544
 -11265082.32047  -8772955.24244  23066033.6804                   23066033.0904
  13474199.95747  10495521.68444  22672863.3134                   22672862.1954
 -15321508.27347 -12763092.54745  22147675.1564                   22147673.5594
 -12779640.62147  -9957516.19144  22877945.0314                   22877944.3674
 11  7 26 19  0  0.0000000  0  8G03G07G13G19G28G23G08G11
   8441964.90247   6579019.91044  22848243.1564                   22848241.8524
 -16033363.86748 -12491630.73846  20686167.9694                   20686165.9574
  -1539984.64548  -1195424.05146  20882060.0314                   20882058.2734
  -9598278.16847  -7470960.07046  21202723.1954                   21202719.8284
 -11301849.84847  -8801605.19144  23059036.8914                   23059035.3634
  13593779.05947  10588700.05544  22695618.5634                   22695617.3984
 -15383020.67247 -12811024.25045  22135968.8134                   22135968.2384
 -12842609.97747 -10006583.13744  22865962.3204                   22865962.1254
 11  7 26 19  0 30.0000000  0  8G03G07G13G19G28G23G08G11
   8552790.33247   6665377.34444  22869332.0784                   22869331.3834
 -16061662.53148 -12513681.63346  20680783.4534                   20680780.7464
  -1455570.48048  -1129646.82846  20898123.2974                   20898121.6844
  -9540369.25447  -7425836.25046  21213743.3914                   21213739.3754
 -11338460.08247  -8830132.60244  23052070.2424                   23052069.3794
  13713519.19947  10682003.90644  22718404.1954                   22718402.9104
 -15444527.21147 -12858951.42245  22124264.8284                   22124263.3554
 -12905418.05547 -10055524.41044  22854010.4384                   22854009.6174
 11  7 26 19  1  0.0000000  0  8G03G07G13G19G28G23G08G11
   8663837.58247   6751907.62144  22890464.2424                   22890462.9924
 -16089766.37548 -12535580.73046  20675435.2734                   20675432.6564
  -1370724.42248  -1063533.05946  20914268.8834                   20914267.2074
  -9481947.12547  -7380312.52746  21224860.5234                   21224856.8984
 -11374914.45347  -8858538.52745  23045132.8834                   23045132.3324
  13833417.44147  10775430.94544  22741220.1724                   22741219.0474
 -15506026.34047 -12906872.78945  22112561.2664                   22112560.5514
 -12968061.93047 -10104337.73844  22842089.2894                   22842088.9144
 11  7 26 19  1 30.0000000  0  8G03G07G13G19G28G23G08G11
   8775102.18447   6838607.27744  22911637.0084                   22911635.3444
 -16117675.53548 -12557328.12546  20670124.0864                   20670121.8754
  -1285450.71148   -997086.06346  20930496.2894                   20930494.4574
  -9423015.98448  -7334392.14846  21236074.7504                   21236071.2194
 -11411215.17247  -8886824.72745  23038225.4774                   23038224.0084
  13953468.71947  10868977.23044  22764065.0084                   22764064.3404
 -15567518.33647 -12954788.61745  22100860.0864                   22100858.8634
 -13030540.60247 -10153022.32444  22830199.7734                   22830199.8244
 11  7 26 19  2  0.0000000  0  8G03G07G13G19G28G23G08G11
   8886576.39147   6925470.25043  22932850.3594                   22932848.0824
 -16145393.08248 -12578926.21146  20664849.4534                   20664846.9924
  -1199756.45748   -930311.37946  20946802.9454                   20946801.7234
  -9363582.28947  -7288080.19946  21247384.6724                   21247381.0904
 -11447367.76247  -8914995.49245  23031345.1174                   23031344.6604
  14073665.38747  10962636.78944  22786938.0004                   22786937.4454
 -15629006.62947 -13002701.56245  22089159.2114                   22089157.9694
 -13092855.97747 -10201579.67644  22818341.7194                   22818340.9574
 11  7 26 19  2 30.0000000  0  8G03G07G13G19G28G23G08G11
   8998261.01247   7012497.21143  22954102.4534                   22954101.2304
 -16172913.24648 -12600370.48846  20659612.7424                   20659610.2384
  -1113640.41848   -863208.02346  20963190.6094                   20963189.0904
  -9303643.96547  -7241375.03146  21258790.8284                   21258787.1724
 -11483369.03547  -8943048.37145  23024494.8834                   23024493.8524
  14194008.26647  11056410.27044  22809838.6024                   22809838.2384
 -15690486.05947 -13050607.59845  22077459.7734                   22077458.6024
 -13155000.67647 -10250004.03144  22806515.7504                   22806515.8554
 11  7 26 19  3  0.0000000  0  8G03G07G13G19G28G23G08G11
   9110146.05947   7099680.33243  22975393.3834                   22975392.6134
 -16200241.52348 -12621665.24646  20654412.4534                   20654409.9614
  -1027112.26648   -795783.55146  20979656.6254                   20979654.9224
  -9243210.39547  -7194283.93446  21270290.7344                   21270286.7274
 -11519227.07447  -8970989.64545  23017671.3054                   23017669.7114
  14314487.30547  11150289.85244  22832765.4924                   22832764.3634
 -15751962.33647 -13098511.16045  22065761.7734                   22065760.0824
 -13216979.07447 -10298298.79744  22794721.5234                   22794721.3444
 11  7 26 19  3 30.0000000  0  8G03G07G13G19G28G23G08G11
   9222226.98447   7187016.06643  22996722.3204                   22996720.8954
 -16227377.98448 -12642810.54346  20649248.2034                   20649246.2074
   -940176.18048   -728041.20746  20996199.8364                   20996198.4494
  -9182285.36347  -7146809.90246  21281884.4774                   21281880.6484
 -11554944.18447  -8998821.07845  23010874.1804                   23010873.5234
  14435097.91447  11244271.96944  22855716.5394                   22855717.0164
 -15813435.79747 -13146412.56245  22054063.5634                   22054062.1524
 -13278789.98447 -10346463.07044  22782959.9614                   22782958.9304
 11  7 26 19  4  0.0000000  0  8G03G07G13G19G28G23G08G11
   9334500.60947   7274501.97344  23018086.8134                   23018086.1094
 -16254321.19948 -12663805.25846  20644121.5084                   20644118.8054
   -852834.58248   -659982.86746  21012820.2034                   21012819.1954
  -9120871.26647  -7098954.77746  21293571.2584                   21293567.6094
 -11590521.12147  -9026543.31645  23004103.8284                   23004103.3554
  14555836.54747  11338353.86344  22878692.7894                   22878692.7344
 -15874905.12947 -13194310.73045  22042366.4694                   22042365.1214
 -13340430.79347 -10394494.78944  22771229.5164                   22771229.3954
 11  7 26 19  4 30.0000000  0  8G03G07G13G19G28G23G08G11
   9446960.63746   7362133.09844  23039486.7664                   23039486.6134
 -16281072.34048 -12684650.31246  20639030.5554                   20639028.7304
   -765093.18848   -591613.00446  21029517.0864                   21029515.6294
  -9058973.25447  -7050722.55946  21305350.2894                   21305346.2304
 -11625962.05147  -9054159.57445  22997359.4224                   22997359.0234
  14676697.49247  11432531.03544  22901692.2424                   22901691.7734
 -15936372.14547 -13242207.09045  22030669.0474                   22030668.4844
 -13401901.41847 -10442393.87544  22759531.7424                   22759531.6254
 11  7 26 19  5  0.0000000  0  9G03G24G07G13G19G28G23G08G11
   9559604.73046   7449907.66444  23060923.5234                   23060921.9224
  -4805658.63756  -3739052.69152  24305362.2194                   24305367.5984
 -16307629.37548 -12705344.11346  20633976.8834                   20633974.8984
   -676954.34848   -522933.45346  21046289.2734                   21046288.2704
  -8996593.03547  -7002114.60946  21317220.8134                   21317217.2774
 -11661267.23047  -9081670.05144  22990641.1564                   22990640.2734
  14797678.02047  11526801.40244  22924713.9384                   22924713.7114
 -15997834.77347 -13290100.03145  22018974.1884                   22018972.9144
 -13463198.50847 -10490157.77344  22747867.6724                   22747866.8794
 11  7 26 19  5 30.0000000  0  9G03G24G07G13G19G28G23G08G11
   9672423.90646   7537818.64144  23082391.1334                   23082391.0744
  -4870426.16046  -3789520.69943  24293038.5164                   24293042.1914
 -16333996.35248 -12725889.80546  20628959.6254                   20628957.5514
   -588426.34848   -453950.65646  21063135.8444                   21063134.7814
  -8933738.71547  -6953137.21546  21329181.3674                   21329177.5274
 -11696442.82447  -9109079.53144  22983947.4924                   22983946.5664
  14918769.34047  11621158.09044  22947756.9844                   22947756.8834
 -16059297.32047 -13337992.92245  22007277.8134                   22007276.7114
 -13524325.07847 -10537788.78144  22736236.0084                   22736235.1454
 11  7 26 19  6  0.0000000  0  9G03G24G07G13G19G28G23G08G11
   9785407.78946   7625858.02044  23103891.0864                   23103891.4024
  -4935315.91046  -3840083.93843  24280689.1174                   24280693.8324
 -16360179.31648 -12746292.12146  20623976.7974                   20623974.9224
   -499519.49648   -384672.64546  21080053.7974                   21080052.9654
  -8870419.69147  -6903797.73046  21341230.7344                   21341226.6484
 -11731497.78947  -9136395.03144  22977276.9144                   22977275.3244
  15039960.57847  11715592.63744  22970818.7664                   22970818.5354
 -16120766.50047 -13385890.96545  21995580.5084                   21995579.3914
 -13585285.77747 -10585290.52744  22724635.7274                   22724634.6524
 11  7 26 19  6 30.0000000  0  9G03G24G07G13G19G28G23G08G11
   9898550.58646   7714021.14844  23125421.4064                   23125421.7034
  -5000328.00046  -3890742.49243  24268317.8134                   24268321.7814
 -16386179.05948 -12766551.65646  20619029.5944                   20619027.4574
   -410239.21548   -315103.66046  21097043.8754                   21097042.3874
  -8806641.25848  -6854100.26246  21353367.3524                   21353363.1564
 -11766435.48447  -9163619.14845  22970628.2194                   22970627.1914
  15161246.19947  11810100.75444  22993899.3674                   22993898.5274
 -16182242.91047 -13433794.65245  21983882.2274                   21983880.4344
 -13646080.33247 -10632662.82044  22713065.7974                   22713065.8204
 11  7 26 19  7  0.0000000  0  9G03G24G07G13G19G28G23G08G11
  10011853.40646   7802308.98444  23146982.5314                   23146982.8404
  -5065456.08246  -3941491.46943  24255924.1644                   24255928.1374
 -16411990.33648 -12786664.33646  20614117.8444                   20614115.6484
   -320584.32048   -245242.75446  21114104.6644                   21114103.0904
  -8742401.62148  -6804043.40646  21365591.5944                   21365588.1644
 -11801252.73847  -9190749.42245  22964002.6954                   22964001.6724
  15282626.77047  11904682.84443  23016997.3204                   23016996.5784
 -16243721.57447 -13481700.09445  21972182.9924                   21972181.3404
 -13706701.91847 -10679900.32044  22701529.9304                   22701529.4064
 11  7 26 19  7 30.0000000  0  9G03G24G07G13G19G28G23G08G11
  10125298.99647   7890708.08644  23168571.7664                   23168570.8954
  -5130711.70346  -3992339.80542  24243506.5634                   24243510.2274
 -16437625.44548 -12806639.74246  20609239.7034                   20609237.4224
   -230571.49248   -175102.94146  21131233.4614                   21131232.1214
  -8677717.49647  -6753640.20346  21377900.6954                   21377896.3714
 -11835964.80947  -9217797.71945  22957397.7194                   22957396.3204
  15404085.14546  11999325.53544  23040110.3594                   23040109.4774
 -16305215.08647 -13529617.09845  21960480.8364                   21960479.6684
 -13767162.06247 -10727012.03945  22690024.9304                   22690023.9264
 11  7 26 19  8  0.0000000  0  9G03G24G07G13G19G28G23G08G11
  10238894.91047   7979224.32444  23190187.2504                   23190187.2464
  -5196081.21946  -4043276.84042  24231065.9774                   24231070.8874
 -16463072.08248 -12826468.29346  20604397.3984                   20604395.2074
   -140192.89148   -104678.11346  21148431.9064                   21148431.2734
  -8612580.14847  -6702883.82846  21390295.6334                   21390291.9414
 -11870561.48847  -9244756.10545  22950813.7274                   22950812.9654
  15525629.25446  12094035.05944  23063239.0554                   23063238.8594
 -16366711.35948 -13577536.25845  21948778.6254                   21948777.4884
 -13827446.89547 -10773987.12944  22678552.6564                   22678553.1214
 11  7 26 19  8 30.0000000  0  9G03G24G07G13G19G28G23G08G11
  10352632.22346   8067850.75844  23211830.9774                   23211830.6604
  -5261567.89846  -4094305.25442  24218604.1094                   24218608.4414
 -16488334.44548 -12846153.24646  20599590.1804                   20599587.9104
    -49457.00047    -33974.86746  21165698.2034                   21165697.2774
  -8546997.84847  -6651780.74646  21402775.7974                   21402771.6374
 -11905049.47747  -9271629.79745  22944250.7584                   22944249.6994
  15647249.91847  12188804.20344  23086383.2664                   23086383.1524
 -16428214.69547 -13625460.92245  21937075.1414                   21937073.7384
 -13887559.54347 -10820828.04345  22667113.9144                   22667113.2154
 11  7 26 19  9  0.0000000  0  9G03G24G07G13G19G28G23G08G11
  10466506.64846   8156584.01644  23233500.3594                   23233500.7344
  -5327170.66046  -4145424.09442  24206121.1954                   24206125.6214
 -16513412.53948 -12865694.61346  20594817.8754                   20594816.0274
     41631.50048     37003.13346  21183031.9614                   21183030.7234
  -8480974.66847  -6600334.12946  21415339.6024                   21415335.5124
 -11939431.69147  -9298421.06645  22937708.0394                   22937706.9694
  15768942.44547  12283629.35244  23109540.5164                   23109540.3284
 -16489725.49648 -13673391.38745  21925369.5474                   21925369.0234
 -13947498.74647 -10867533.81244  22655707.7504                   22655706.7894
 11  7 26 19  9 30.0000000  0  9G03G24G07G13G19G28G23G08G11
  10580515.66846   8245422.19144  23255196.3444                   23255195.9694
  -5392886.44146  -4196631.00843  24193615.7584                   24193619.5784
 -16538303.96948 -12885090.52746  20590081.1174                   20590078.7934
    133071.13748    108254.74646  21200432.0944                   21200431.1724
  -8414512.01247  -6548545.03546  21427987.3914                   21427983.1484
 -11973707.94947  -9325129.76645  22931185.5234                   22931184.5634
  15890704.70747  12378508.83644  23132711.1414                   23132711.2154
 -16551241.19547 -13721325.68745  21913663.7734                   21913662.4104
 -14007260.88347 -10914101.61744  22644335.0474                   22644334.8794
 11  7 26 19 10  0.0000000  0  9G03G24G07G13G19G28G23G08G11
  10694651.91046   8334359.48844  23276915.4144                   23276915.7194
  -5458716.86346  -4247927.26243  24181088.8754                   24181092.2384
 -16563011.30948 -12904343.00047  20585379.3134                   20585377.4184
    224854.40647    179774.13746  21217898.6174                   21217897.4774
  -8347616.69147  -6496418.82046  21440716.9224                   21440712.9844
 -12007883.80147  -9351760.23045  22924681.9144                   22924680.7424
  16012528.96947  12473436.64844  23155893.7664                   23155894.1844
 -16612764.72348 -13769266.07845  21901956.0634                   21901955.1294
 -14066847.37547 -10960532.54344  22632995.9844                   22632995.3714
 11  7 26 19 10 30.0000000  0  9G03G24G07G13G19G28G23G08G11
  10808917.79346   8423397.73843  23298659.7034                   23298660.2544
  -5524654.16445  -4299306.75842  24168539.5634                   24168544.9224
 -16587527.82848 -12923446.77046  20580713.6804                   20580711.9844
    316983.68448    251563.11746  21235430.1804                   21235429.1994
  -8280286.42647  -6443953.69146  21453528.9774                   21453525.3164
 -12041954.93047  -9378309.11345  22918198.0704                   22918197.2274
  16134417.25047  12568414.33644  23179088.8524                   23179088.6954
 -16674289.77748 -13817207.64845  21890248.3284                   21890246.6374
 -14126250.46947 -11006820.55545  22621692.5554                   22621691.0944
 11  7 26 19 11  0.0000000  0  9G03G24G07G13G19G28G23G08G11
  10923314.50046   8512537.97743  23320428.9534                   23320428.9104
  -5590691.00446  -4350763.80542  24155973.5004                   24155977.5314
 -16611847.18748 -12942396.91047  20576086.4224                   20576084.0204
    409460.84848    323623.18446  21253027.8204                   21253026.8984
  -8212518.45747  -6391147.49246  21466425.1334                   21466421.3164
 -12075917.62947  -9404773.50445  22911735.3984                   22911734.7974
  16256371.10947  12663443.10244  23202295.6484                   23202295.9534
 -16735810.20348 -13865145.64845  21878541.3444                   21878539.7814
 -14185462.84447 -11052959.96545  22610424.5704                   22610423.7734
 11  7 26 19 11 30.0000000  0  9G03G24G07G13G19G28G23G08G11
  11037838.41446   8601777.37943  23342221.6884                   23342222.2344
  -5656825.77046  -4402297.22743  24143389.7664                   24143392.5474
 -16635968.51648 -12961192.74246  20571496.3284                   20571493.6524
    502282.41448    395951.62546  21270691.5164                   21270690.3244
  -8144316.32848  -6338002.99246  21479403.6484                   21479399.6844
 -12109773.34447  -9431154.52745  22905293.3054                   22905291.4224
  16378386.80146  12758520.07043  23225513.9144                   23225514.2854
 -16797325.05548 -13913079.27045  21866835.8444                   21866834.3594
 -14244482.01247 -11098948.82045  22599193.2344                   22599192.7854
 11  7 26 19 12  0.0000000  0  9G03G24G07G13G19G28G23G08G11
  11152489.42246   8691115.77743  23364039.4924                   23364038.9694
  -5723053.11746  -4453902.74243  24130787.2424                   24130789.9534
 -16659887.94148 -12979831.23846  20566944.3914                   20566942.3364
    595447.70748    468547.90646  21288420.1484                   21288419.3204
  -8075679.86347  -6284520.03946  21492464.9384                   21492460.8204
 -12143520.34447  -9457450.83645  22898870.7504                   22898869.3634
  16500463.85546  12853644.89543  23248745.2114                   23248744.4694
 -16858830.39148 -13961005.49645  21855131.5004                   21855130.3914
 -14303302.90247 -11144783.18044  22588000.1724                   22587998.8714
 11  7 26 19 12 30.0000000  0  9G03G24G07G13G19G28G23G08G11
  11267265.34046   8780551.50443  23385880.7274                   23385879.9844
  -5789368.96546  -4505577.27743  24118166.4384                   24118170.7464
 -16683602.50448 -12998310.10546  20562431.7584                   20562429.2974
    688955.28148    541410.89846  21306213.8444                   21306212.9614
  -8006610.48847  -6230699.75446  21505608.0554                   21505604.6024
 -12177158.70347  -9483662.48845  22892469.6484                   22892468.8164
  16622599.95346  12948815.65243  23271986.5554                   23271986.4384
 -16920323.63348 -14008922.28545  21843429.3204                   21843428.4804
 -14361921.54347 -11190459.93045  22576845.4534                   22576844.2464
 11  7 26 19 13  0.0000000  0  9G03G24G07G13G19G28G23G08G11
  11382166.44146   8870084.78143  23407746.1254                   23407745.1844
  -5855768.07046  -4557316.59843  24105530.8444                   24105535.0554
 -16707107.58648 -13016625.74646  20557958.8524                   20557956.2304
    782805.25848    614540.68746  21324072.9924                   21324072.1954
  -7937107.55547  -6176541.62946  21518834.1564                   21518830.5044
 -12210686.56647  -9509788.05545  22886089.7034                   22886088.4804
  16744795.18847  13044032.52343  23295240.0864                   23295239.8164
 -16981800.34448 -14056826.19146  21831731.1954                   21831730.1484
 -14420331.97347 -11235974.45345  22565730.5164                   22565729.0204
 11  7 26 19 13 30.0000000  0  9G03G24G07G13G19G28G23G08G11
  11497188.48046   8959712.27043  23429633.9844                   23429633.1094
  -5922248.63747  -4609119.41043  24092879.7894                   24092883.9614
 -16730402.75048 -13034777.81246  20553525.8054                   20553523.2664
    876993.41848    687934.00845  21341996.7584                   21341995.3834
  -7867174.82847  -6122048.60546  21532141.9384                   21532138.0904
 -12244105.76247  -9535828.91445  22879730.3674                   22879729.3364
  16867045.27047  13139292.14144  23318504.3444                   23318504.4064
 -17043260.18448 -14104716.97345  21820035.8674                   21820034.5434
 -14478532.57447 -11281325.46944  22554654.6644                   22554653.5634
 11  7 26 19 14  0.0000000  0  9G03G24G07G13G19G28G23G08G11
  11612328.22746   9049431.51243  23451543.7034                   23451542.4964
  -5988808.21147  -4660983.81243  24080213.9694                   24080217.9884
 -16753486.34448 -13052765.02346  20549133.3284                   20549130.7584
    971516.59848    761588.37146  21359983.5084                   21359982.3244
  -7796814.94547  -6067222.72746  21545530.9144                   21545527.1524
 -12277417.46147  -9561786.02345  22873391.1884                   22873389.7034
  16989346.87147  13234591.88344  23341777.5864                   23341778.2504
 -17104701.32048 -14152593.16045  21808343.6644                   21808342.3244
 -14536520.89847 -11326511.08645  22543620.2114                   22543618.3554
 11  7 26 19 14 30.0000000  0  9G03G24G07G13G19G28G23G08G11
  11727592.35246   9139247.61343  23473478.4694                   23473476.9534
  -6055434.92247  -4712900.51243  24067535.4534                   24067538.4844
 -16776347.39848 -13070578.83646  20544782.8364                   20544780.2234
   1066381.14148    835508.73445  21378036.1564                   21378034.8444
  -7726021.33647  -6012058.89146  21559002.0164                   21558998.4614
 -12310613.22347  -9587652.78945  22867074.2974                   22867072.9304
  17111706.45347  13329936.78944  23365062.0394                   23365062.6484
 -17166113.07848 -14200446.46145  21796657.4384                   21796655.8874
 -14594284.87547 -11371521.88345  22532627.4454                   22532626.7234
 11  7 26 19 15  0.0000000  0  9G03G24G07G13G19G28G23G08G11
  11842975.62146   9229156.59043  23495435.2974                   23495433.3284
  -6122128.06347  -4764868.98443  24054843.3134                   24054847.0004
 -16798986.85248 -13088219.96946  20540474.9534                   20540472.2974
   1161582.43448    909691.50445  21396151.8054                   21396151.0634
  -7654798.58247  -5956560.65246  21572554.9224                   21572551.8364
 -12343696.10947  -9613431.58245  22860779.0314                   22860777.4384
  17234118.61347  13425322.67244  23388355.9224                   23388356.4844
 -17227496.23448 -14248277.47745  21784976.6804                   21784974.7894
 -14651823.42647 -11416357.01645  22521678.6254                   22521677.4304
 11  7 26 19 15 30.0000000  0  9G03G24G07G13G19G28G23G08G11
  11958480.46147   9319160.30544  23517414.5314                   23517413.9574
  -6188879.67247  -4816883.00443  24042141.1724                   24042144.3674
 -16821397.01648 -13105682.44146  20536210.0474                   20536207.8554
   1257122.62148    984138.35246  21414333.1724                   21414331.2894
  -7583143.71547  -5900725.69146  21586190.5164                   21586187.3404
 -12376661.59447  -9639118.91845  22854505.6644                   22854503.9494
  17356585.73447  13520751.38744  23411660.8364                   23411661.6724
 -17288843.78547 -14296080.75045  21773302.5084                   21773300.9804
 -14709128.56647 -11461010.29745  22510773.3364                   22510772.7544
 11  7 26 19 16  0.0000000  0  9G03G24G07G13G19G28G23G08G11
  12074107.36347   9409259.10944  23539418.3524                   23539416.7584
  -6255682.89847  -4868937.26243  24029429.1724                   24029432.2704
 -16843572.72348 -13122962.21546  20531990.5004                   20531987.9304
   1353002.78947   1058850.11746  21432578.6564                   21432576.7854
  -7511055.38347  -5844552.97746  21599908.6254                   21599905.7034
 -12409506.92647  -9664712.63344  22848255.0944                   22848253.1764
  17479108.91046  13616223.75443  23434976.4064                   23434977.3754
 -17350150.11747 -14343851.89545  21761636.2274                   21761634.5004
 -14766193.67647 -11505476.52345  22499913.9844                   22499913.7034
 11  7 26 19 16 30.0000000  0  9G03G24G07G13G19G28G23G08G11
  12189855.22347   9499452.22344  23561444.0554                   23561442.9144
  -6322533.84047  -4921028.67243  24016707.3984                   24016710.3164
 -16865510.91048 -13140056.91046  20527815.6724                   20527813.4804
   1449221.30147   1133825.51645  21450888.0234                   21450887.0124
  -7438534.84447  -5788043.47746  21613708.9844                   21613705.7974
 -12442231.66047  -9690212.37545  22842027.7664                   22842025.9804
  17601686.27046  13711738.33643  23458301.3204                   23458302.5314
 -17411412.00848 -14391588.41445  21749978.6254                   21749976.8094
 -14823014.79347 -11549752.62945  22489101.4144                   22489100.0784
 11  7 26 19 17  0.0000000  0  9G03G24G07G13G19G28G23G08G11
  12305723.51646   9589739.13744  23583492.8674                   23583491.7584
  -6389427.08647  -4973153.09043  24003978.0704                   24003981.4534
 -16887207.13748 -13156963.06646  20523687.1884                   20523684.9144
   1545777.94947   1209064.40646  21469262.2664                   21469261.1334
  -7365582.42648  -5731197.44546  21627591.7274                   21627587.7234
 -12474834.10247  -9715616.81645  22835823.6954                   22835822.2774
  17724317.14146  13807294.62543  23481638.6954                   23481638.7074
 -17472625.51248 -14439287.22745  21738329.9534                   21738328.8364
 -14879586.19547 -11593834.17245  22478336.2664                   22478335.1644
 11  7 26 19 17 30.0000000  0  9G03G24G07G13G19G28G23G08G11
  12421719.96147   9680125.93044  23605566.9144                   23605565.8674
  -6456349.38747  -5025300.11343  23991242.8134                   23991246.2814
 -16908649.23448 -13173671.19546  20519606.6954                   20519604.2774
   1642680.36348   1284572.72745  21487702.0784                   21487700.9064
  -7292189.95748  -5674008.51646  21641557.9614                   21641553.9344
 -12507304.47747  -9740918.37145  22829644.6724                   22829642.8134
  17847009.04347  13902898.51243  23504986.6564                   23504986.2114
 -17533778.27348 -14486938.71545  21726693.2734                   21726691.3914
 -14935894.65247 -11637710.80545  22467621.2274                   22467619.5474
 11  7 26 19 18  0.0000000  0  9G03G24G07G13G19G28G23G08G11
  12537844.53947   9770612.54744  23627664.3754                   23627663.7384
  -6523295.28547  -5077465.57843  23978503.7894                   23978506.0744
 -16929832.91047 -13190177.95346  20515575.4064                   20515573.5004
   1739928.25847   1360350.24645  21506208.2974                   21506206.7464
  -7218357.00047  -5616476.34846  21655607.6954                   21655604.1374
 -12539641.16847  -9766115.72745  22823490.7424                   22823488.6374
  17969761.71947  13998549.78943  23528345.2194                   23528345.8054
 -17594866.07448 -14534539.58245  21715068.3754                   21715066.9574
 -14991934.44147 -11681378.07845  22456956.9924                   22456955.5904
 11  7 26 19 18 30.0000000  0  9G03G24G07G13G19G28G23G08G11
  12654096.39546   9861198.35944  23649786.5554                   23649786.6054
  -6590260.15247  -5129645.81643  23965760.2504                   23965762.8794
 -16950754.36747 -13206480.37946  20511594.2274                   20511592.2154
   1837520.62947   1436396.18745  21524779.4224                   21524778.2544
  -7144084.30948  -5558601.53546  21669741.4144                   21669737.6644
 -12571843.30547  -9791208.25045  22817363.1254                   22817361.7154
  18092574.07447  14094247.55144  23551716.2114                   23551716.3164
 -17655885.36747 -14582087.05545  21703456.7114                   21703454.7154
 -15047701.20747 -11724832.60545  22446344.7814                   22446342.9534
 11  7 26 19 19  0.0000000  0  9G03G24G07G13G19G28G23G08G11
  12770468.18846   9951877.64143  23671931.0314                   23671931.9384
  -6657245.05547  -5181841.68443  23953013.5944                   23953016.1914
 -16971416.14848 -13222580.46947  20507662.5004                   20507660.2114
   1935450.40247   1512705.03945  21543414.5704                   21543413.8204
  -7069378.86748  -5500389.51246  21683957.2584                   21683953.9694
 -12603915.46547  -9816199.51645  22811259.9304                   22811258.9264
  18215439.04747  14189986.28144  23575096.4144                   23575097.6294
 -17716838.70348 -14629583.14545  21691857.9694                   21691856.4344
 -15103196.03947 -11768075.24645  22435784.3444                   22435783.3554
 11  7 26 19 19 30.0000000  0  9G03G24G07G13G19G28G23G08G11
  12886961.04346  10042651.24643  23694098.6174                   23694098.5634
  -6724243.85246  -5234048.30543  23940263.3364                   23940266.9614
 -16991813.18448 -13238474.25447  20503781.0704                   20503778.7814
   2033717.96947   1589277.09445  21562114.3054                   21562113.6684
  -6994239.82448  -5441839.63346  21698256.0394                   21698252.1844
 -12635855.33647  -9841087.68045  22805182.4844                   22805181.2194
  18338357.07447  14285766.34844  23598487.0004                   23598488.8594
 -17777720.54348 -14677023.50845  21680272.2504                   21680270.5354
 -15158412.53947 -11811101.00845  22425277.2504                   22425275.6174
 11  7 26 19 20  0.0000000  0  9G03G24G07G13G19G28G23G08G11
  13003567.67246  10133513.48043  23716287.7814                   23716287.7154
  -6791257.74647  -5286266.77043  23927511.3834                   23927514.1174
 -17011947.68747 -13254163.47346  20499949.6414                   20499947.1334
   2132316.25847   1666106.87145  21580877.0784                   21580876.5234
  -6918673.68448  -5382956.93746  21712635.7584                   21712631.9384
 -12667668.04747  -9865876.74245  22799128.3984                   22799126.8364
  18461321.08246  14381582.21544  23621886.3674                   23621888.2274
 -17838533.14148 -14724409.93445  21668699.9144                   21668698.3874
 -15213351.99647 -11853910.89845  22414822.8134                   22414821.1374
 11  7 26 19 20 30.0000000  0  9G03G24G07G13G19G28G23G08G11
  13120288.77046  10224464.92243  23738499.6564                   23738498.8244
  -6858280.50046  -5338492.13743  23914757.0944                   23914760.1954
 -17031814.04748 -13269643.74246  20496169.1334                   20496166.9574
   2231245.92647   1743194.85945  21599702.9924                   21599702.2114
  -6842679.77348  -5323740.90646  21727097.2664                   21727093.3554
 -12699351.01647  -9890564.73445  22793099.3054                   22793097.9104
  18584331.30946  14477434.07043  23645294.1174                   23645296.4384
 -17899271.71948 -14771738.66445  21657141.8054                   21657140.1804
 -15268008.49647 -11896500.30945  22404421.3594                   22404420.0944
 11  7 26 19 21  0.0000000  0  9G03G24G07G13G19G28G23G08G11
  13237122.55546  10315504.16443  23760731.9454                   23760731.5394
  -6925308.11346  -5390721.25043  23902001.2814                   23902004.9804
 -17051410.48448 -13284913.68746  20492440.0314                   20492437.6214
   2330504.87947   1820539.43745  21618591.1564                   21618590.4104
  -6766259.66048  -5264192.76246  21741639.2974                   21741635.1564
 -12730904.04347  -9915151.44145  22787095.1804                   22787093.9614
  18707386.19546  14573320.71144  23668711.6804                   23668713.3554
 -17959933.05148 -14819007.22345  21645598.2424                   21645596.6764
 -15322377.93447 -11938866.03145  22394075.4534                   22394073.8444
 11  7 26 19 21 30.0000000  0  9G03G24G07G13G19G28G23G08G11
  13354057.51246  10406622.28943  23782983.8284                   23782984.5944
  -6992346.99246  -5442959.16443  23889244.2194                   23889247.3094
 -17070743.81248 -13299978.61346  20488761.1644                   20488758.6684
   2430081.25847   1898131.34845  21637539.8284                   21637539.1644
  -6689424.94548  -5204321.54346  21756260.1804                   21756257.2424
 -12762337.11747  -9939644.69545  22781113.2194                   22781112.3284
  18830473.53947  14669232.66444  23692134.1724                   23692135.9804
 -18020524.31248 -14866221.16445  21634068.1334                   21634066.4734
 -15376466.39147 -11981012.79345  22383782.3364                   22383781.2544
 11  7 26 19 22  0.0000000  0  9G03G24G07G13G19G28G23G08G11
  13471101.75046  10497825.56343  23805257.3134                   23805256.1564
  -7059382.94546  -5495194.80143  23876487.5314                   23876490.9614
 -17089800.76248 -13314828.17646  20485134.7344                   20485131.9884
   2529983.30947   1975977.02345  21656550.5084                   21656549.8094
  -6612167.16848  -5144120.69546  21770961.7584                   21770958.3284
 -12793639.75447  -9964036.32445  22775156.6644                   22775155.5394
  18953601.56347  14765176.34444  23715565.7814                   23715566.5944
 -18081032.69548 -14913370.53946  21622554.1804                   21622552.0944
 -15430260.14547 -12022929.93745  22373545.3984                   22373544.6454
 11  7 26 19 22 30.0000000  0  9G03G24G07G13G19G28G23G08G11
  13588252.52346  10589111.81642  23827550.5164                   23827550.3674
  -7126413.13746  -5547425.98443  23863733.4304                   23863735.2384
 -17108579.98048 -13329461.32046  20481560.7974                   20481558.5984
   2630207.86347   2054074.01245  21675622.9844                   21675621.9844
  -6534488.64548  -5083591.98046  21785743.6484                   21785740.2304
 -12824813.07447  -9988327.18045  22769224.5634                   22769223.1214
  19076767.60947  14861149.68044  23739003.2114                   23739003.6524
 -18141456.45748 -14960453.98445  21611055.3984                   21611054.1094
 -15483756.07047 -12064615.01645  22363365.4224                   22363364.6134
 11  7 26 19 23  0.0000000  0  9G03G24G07G13G19G28G23G08G11
  13705499.70346  10680473.23043  23849862.1724                   23849862.1764
  -7193442.14846  -5599656.22743  23850977.5234                   23850980.6334
 -17127087.39148 -13343882.68046  20478039.1724                   20478037.0664
   2730744.95747   2132414.53145  21694754.7734                   21694753.9924
  -6456399.82848  -5022743.55546  21800603.4064                   21800600.2344
 -12855865.53947 -10012523.84445  22763315.2584                   22763313.8444
  19199961.07847  14957144.39144  23762446.1024                   23762447.1294
 -18201801.38748 -15007475.98445  21599572.2664                   21599570.5434
 -15536959.13347 -12106071.87945  22353241.5474                   22353239.7274
 11  7 26 19 23 30.0000000  0  9G03G24G07G13G19G28G23G08G11
  13822851.16847  10771915.88343  23872194.2894                   23872191.9024
  -7260456.50047  -5651875.03543  23838224.1094                   23838228.0004
 -17145310.34448 -13358082.37147  20474571.8284                   20474568.9454
   2831601.81247   2211004.21145  21713946.5784                   21713946.3714
  -6377892.73048  -4961569.21546  21815543.4454                   21815539.4694
 -12886787.28547 -10036618.65245  22757430.8754                   22757429.0824
  19323189.36347  15053166.29343  23785896.2584                   23785896.7894
 -18262054.64548 -15054426.55146  21588106.5084                   21588104.7894
 -15589855.84447 -12147290.03145  22343175.2584                   22343174.8244
 11  7 26 19 24  0.0000000  0  9G03G24G07G13G19G28G23G08G11
  13940281.96147  10863420.35543  23894540.0554                   23894539.3794
  -7327475.17647  -5704097.21143  23825471.5554                   23825474.2424
 -17163269.09848 -13372076.20347  20471153.9844                   20471151.5474
   2932753.33247   2289823.50445  21733195.4924                   21733194.6884
  -6298992.14148  -4900088.25045  21830557.0554                   21830553.3714
 -12917601.22347 -10060629.46145  22751567.0234                   22751566.0234
  19446427.25447  15149195.63743  23809347.2344                   23809348.7464
 -18322236.98048 -15101321.86345  21576654.3834                   21576652.6174
 -15642465.91847 -12188284.81645  22333164.2584                   22333163.2114
 11  7 26 19 24 30.0000000  0  9G03G24G07G13G19G28G23G08G11
  14057810.75047  10955001.16444  23916905.1024                   23916903.4414
  -7394473.93847  -5756303.90643  23812721.9844                   23812724.2114
 -17180940.91848 -13385846.44547  20467791.2814                   20467788.6334
   3034218.05947   2368886.85545  21752503.6174                   21752503.0784
  -6219679.13348  -4838285.91846  21845649.6954                   21845646.1094
 -12948286.89847 -10084540.33245  22745728.5314                   22745726.8554
  19569693.93847  15245247.41843  23832804.7584                   23832805.8874
 -18382324.87547 -15148143.58646  21565219.8284                   21565218.8164
 -15694764.58247 -12229036.97345  22323211.7814                   22323210.8204
 11  7 26 19 25  0.0000000  0  9G03G24G07G13G19G28G23G08G11
  14175429.78147  11046652.27744  23939287.2034                   23939286.7504
  -7461455.46947  -5808497.13344  23799975.4844                   23799978.1454
 -17198328.94948 -13399395.55947  20464482.4454                   20464480.0124
   3135987.28947   2448187.48845  21771869.6724                   21771868.8634
  -6139962.10248  -4776168.75446  21860819.6884                   21860815.7974
 -12978850.78147 -10108356.29745  22739911.7664                   22739910.3324
  19692980.71946  15341314.79743  23856265.9694                   23856266.3404
 -18442321.44148 -15194894.12945  21553802.1484                   21553800.9924
 -15746754.48847 -12269548.49645  22313318.0784                   22313317.1454
 11  7 26 19 25 30.0000000  0  9G03G24G07G13G19G28G23G08G11
  14293131.93046  11138368.22743  23961684.6954                   23961684.1294
  -7528420.95747  -5860677.86344  23787232.4144                   23787235.9774
 -17215436.25448 -13412725.92247  20461227.0474                   20461224.8444
   3238054.10247   2527719.99245  21791292.0944                   21791291.8444
  -6059847.66448  -4713741.92246  21876065.2734                   21876061.1294
 -13009297.84047 -10132081.23845  22734118.0164                   22734115.9494
  19816280.50446  15437392.26243  23879728.7194                   23879730.5044
 -18502229.22748 -15241575.50045  21542402.7894                   21542400.5634
 -15798437.12547 -12309820.61345  22303483.7034                   22303482.2384
 11  7 26 19 26  0.0000000  0  9G03G24G07G13G19G28G23G08G11
  14410926.14546  11230155.84844  23984100.6644                   23984100.1484
  -7595355.76647  -5912834.66444  23774495.4924                   23774498.4614
 -17232249.45748 -13425827.12147  20458027.5784                   20458025.1094
   3340427.08247   2607491.07445  21810773.9534                   21810773.1914
  -5979326.99248  -4650998.54346  21891387.4614                   21891383.4694
 -13039617.38347 -10155706.81245  22728348.3524                   22728346.6844
  19939601.92647  15533486.62143  23903196.9144                   23903198.1604
 -18562034.89148 -15288177.29745  21531022.0704                   21531019.8874
 -15849798.46547 -12349842.34845  22293709.6564                   22293708.5314
 11  7 26 19 26 30.0000000  0  9G03G24G07G13G19G28G23G08G11
  14528805.28146  11322009.67243  24006532.2584                   24006532.4024
  -7662261.26246  -5964968.63343  23761762.4694                   23761765.8754
 -17248770.80148 -13438700.89146  20454883.7274                   20454880.9804
   3443098.82447   2687494.94945  21830311.3984                   21830310.7034
  -5898407.38748  -4587944.29746  21906786.0394                   21906782.1684
 -13069814.61348 -10179237.08245  22722602.3834                   22722600.8364
  20062938.00047  15629592.43044  23926666.4304                   23926668.0594
 -18621740.75448 -15334701.33646  21519660.5004                   21519658.8444
 -15900839.84847 -12389614.77345  22283996.7664                   22283995.2464
 11  7 26 19 27  0.0000000  0  9G03G24G07G13G19G28G23G08G11
  14646772.67246  11413932.27743  24028980.3984                   24028980.6334
  -7729128.54746  -6017072.86344  23749038.0004                   23749041.6254
 -17264992.09448 -13451340.85546  20451796.6174                   20451794.0984
   3546072.61747   2767734.19145  21849906.8524                   21849905.9534
  -5817085.07848  -4524576.26246  21922261.3054                   21922257.6644
 -13099884.23047 -10202667.91445  22716879.5554                   22716877.9774
  20186291.64847  15725711.92644  23950140.5164                   23950142.0944
 -18681338.68448 -15381141.25445  21508319.2114                   21508317.4264
 -15951552.24247 -12429130.85245  22274346.1954                   22274344.9734
 11  7 26 19 27 30.0000000  0  9G03G24G07G13G19G28G23G08G11
  14764827.83646  11505923.23443  24051445.2274                   24051445.4494
  -7795952.40246  -6069143.24643  23736321.7974                   23736325.2854
 -17280910.08248 -13463744.48046  20448767.7274                   20448765.3524
   3649347.35947   2848207.94945  21869559.5004                   21869558.8874
  -5735360.85948  -4460895.06246  21937812.5554                   21937808.6724
 -13129825.00047 -10225998.35245  22711181.8444                   22711180.6724
  20309662.22747  15821844.61344  23973617.3444                   23973618.3634
 -18740824.95748 -15427494.18446  21496999.4304                   21496997.9774
 -16001930.68747 -12468386.70345  22264759.7194                   22264758.4414
 11  7 26 19 28  0.0000000  0  9G03G24G07G13G19G28G23G08G11
  14882958.77745  11597973.25043  24073924.6334                   24073925.6294
  -7862739.78546  -6121185.22343  23723612.3984                   23723615.5204
 -17296532.55948 -13475917.82847  20445794.7424                   20445792.1254
   3752910.42247   2928906.35245  21889266.5004                   21889265.5474
  -5653246.96948  -4396910.22746  21953438.2664                   21953434.7384
 -13159647.61747 -10249236.71945  22705507.5084                   22705505.3634
  20433037.12547  15917980.69543  23997094.8284                   23997096.3874
 -18800207.10948 -15473765.97346  21485699.1254                   21485697.4104
 -16051982.45347 -12507388.00445  22255235.3054                   22255233.7774
 11  7 26 19 28 30.0000000  0  9G03G24G07G13G19G28G23G08G11
  15001168.55145  11690084.69943  24096419.4924                   24096420.2544
  -7929482.10246  -6173192.10543  23710911.9694                   23710915.0864
 -17311852.03948 -13487855.08246  20442879.5784                   20442877.2854
   3856764.27747   3009831.34445  21909029.6484                   21909029.1174
  -5570740.83248  -4332619.73846  21969138.8524                   21969135.1254
 -13189347.42247 -10272379.37945  22699855.1884                   22699853.6294
  20556419.16047  16014122.30543  24020573.1564                   24020575.2274
 -18859477.64548 -15519950.77746  21474420.7894                   21474418.7504
 -16101699.19947 -12546128.25845  22245773.8054                   22245772.6604
 11  7 26 19 29  0.0000000  0  9G03G24G07G13G19G28G23G08G11
  15119449.54745  11782251.49642  24118928.6724                   24118928.9614
  -7996180.65647  -6225164.87543  23698219.8364                   23698221.4104
 -17326871.86748 -13499558.83646  20440021.7664                   20440019.0004
   3960901.30947   3090976.99645  21928845.7894                   21928845.6954
  -5487849.37948  -4268029.00445  21984912.8054                   21984908.9264
 -13218929.91447 -10295430.62545  22694225.7814                   22694224.5084
  20679800.73046  16110263.54743  24044052.5004                   24044054.4614
 -18918639.13348 -15566050.62146  21463162.0944                   21463160.7384
 -16151082.91047 -12584609.00445  22236377.3364                   22236375.6644
 11  7 26 19 29 30.0000000  0  9G03G24G07G13G19G28G23G08G11
  15237800.02345  11874472.63343  24141449.2814                   24141450.0234
  -8062831.34847  -6277100.32043  23685536.6724                   23685538.6804
 -17341588.87148 -13511026.62947  20437220.8834                   20437218.4224
   4065319.82047   3172341.99245  21948716.5704                   21948716.1604
  -5404574.28148  -4203139.32045  22000759.1644                   22000755.1094
 -13248394.60547 -10318390.10945  22688619.2424                   22688617.5554
  20803180.52346  16206403.41443  24067531.1414                   24067533.6214
 -18977688.62948 -15612063.19546  21451925.5864                   21451923.7854
 -16200128.94947 -12622826.60945  22227043.6724                   22227042.0354
 11  7 26 19 30  0.0000000  0  9G03G24G07G13G19G28G23G08G11
  15356220.26246  11966748.11743  24163983.3364                   24163984.1844
  -8129428.52746  -6328994.03543  23672862.9694                   23672865.6374
 -17355998.13348 -13522254.63747  20434478.9694                   20434476.4264
   4170019.36747   3253925.98045  21968640.1094                   21968639.5234
  -5320915.55547  -4137950.68845  22016678.7344                   22016675.2584
 -13277739.66047 -10341256.34845  22683034.9534                   22683033.3324
  20926558.28146  16302541.69543  24091009.1724                   24091011.7234
 -19036621.04348 -15657984.53546  21440711.1174                   21440709.5354
 -16248832.60547 -12660777.41445  22217775.5084                   22217774.1994
 11  7 26 19 30 30.0000000  0  9G03G24G07G13G19G28G23G08G11
  15474709.39546  12059077.24243  24186530.8834                   24186532.3014
  -8195968.18846  -6380842.97743  23660201.2034                   23660203.6054
 -17370097.31248 -13533241.01247  20431795.9924                   20431793.6954
   4274998.11347   3335727.50445  21988616.8364                   21988616.3984
  -5236875.04347  -4072464.59045  22032671.1644                   22032667.3134
 -13306964.92647 -10364029.22345  22677473.2974                   22677471.7664
  21049931.99646  16398676.79343  24114486.6024                   24114489.0004
 -19095433.31248 -15703812.26646  21429519.5314                   21429518.2734
 -16297189.98447 -12698458.42245  22208573.0944                   22208571.7544
 11  7 26 19 31  0.0000000  0  8G24G07G13G19G28G23G08G11
  -8262448.21146  -6432645.48043  23647549.6414                   23647552.8874
 -17383885.64848 -13543985.16847  20429172.3594                   20429170.0984
   4380251.91047   3417743.36345  22008646.0164                   22008645.7624
  -5152456.28547  -4006683.75045  22048735.7664                   22048731.8874
 -13336072.35947 -10386710.30145  22671934.8204                   22671932.5434
  21173297.87947  16494805.82043  24137962.5944                   24137965.2664
 -19154124.56648 -15749545.68046  21418351.0004                   21418349.4734
 -16345199.27347 -12735868.18745  22199437.6024                   22199436.1294
 11  7 26 19 31 30.0000000  0  8G24G07G13G19G28G23G08G11
  -8328868.41046  -6484401.30143  23634910.2274                   23634913.2344
 -17397364.02348 -13554487.79747  20426607.2584                   20426604.8874
   4485774.96547   3499969.02345  22028726.4924                   22028726.2854
  -5067665.09847  -3940612.70746  22064870.4144                   22064867.6644
 -13365065.66047 -10409302.44545  22666417.2584                   22666415.3404
  21296650.49646  16590924.48843  24161435.8524                   24161438.3714
 -19212695.56648 -15795185.40246  21407205.4614                   21407203.6094
 -16392860.45747 -12773006.68745  22190368.0864                   22190366.1844
 11  7 26 19 32  0.0000000  0  8G24G07G13G19G28G23G08G11
  -8395220.37146  -6536103.94543  23622283.7664                   23622287.2424
 -17410525.16048 -13564743.22347  20424102.8284                   20424100.3134
   4591569.78147   3582406.44545  22048859.0314                   22048858.8204
  -4982498.46948  -3874249.11346  22081077.3594                   22081074.5984
 -13393939.99647 -10431801.88345  22660922.8674                   22660920.5554
  21419992.31346  16687034.74644  24184907.1414                   24184909.9694
 -19271138.78148 -15840725.55946  21396083.8204                   21396082.3554
 -16440165.55147 -12809867.71945  22181366.1024                   22181364.1024
 11  7 26 19 32 30.0000000  0  8G24G07G13G19G28G23G08G11
  -8461498.46146  -6587749.03543  23609671.5554                   23609674.0044
 -17423364.85948 -13574748.18447  20421659.4064                   20421657.6804
   4697635.71547   3665055.12145  22069042.5234                   22069041.6684
  -4896956.73447  -3807593.23846  22097355.6484                   22097352.2544
 -13422694.32847 -10454207.82445  22655450.5234                   22655448.6334
  21543323.23446  16783136.51243  24208376.0864                   24208379.7074
 -19329449.23448 -15886162.26246  21384987.9534                   21384986.3444
 -16487108.93447 -12846446.90645  22172433.0784                   22172431.0474
 11  7 26 19 33  0.0000000  0  8G24G07G13G19G28G23G08G11
  -8527699.98046  -6639334.46943  23597073.5084                   23597076.4454
 -17435882.01248 -13584501.80547  20419277.5944                   20419275.2154
   4803969.25447   3747912.34045  22089277.2664                   22089276.3364
  -4811043.16047  -3740647.61346  22113704.6884                   22113700.9844
 -13451329.31647 -10476520.76645  22650001.4694                   22650000.1914
  21666639.90246  16879227.18443  24231842.9534                   24231845.2544
 -19387625.84048 -15931494.65246  21373917.0554                   21373915.3554
 -16533688.81647 -12882742.83645  22163568.8914                   22163567.0204
 11  7 26 19 33 30.0000000  0  8G24G07G13G19G28G23G08G11
  -8593826.96946  -6690861.83644  23584490.7664                   23584492.8794
 -17448079.67248 -13594006.46147  20416956.1254                   20416954.0274
   4910562.78147   3830972.12545  22109561.6254                   22109561.0434
  -4724765.25048  -3673418.08246  22130122.5314                   22130119.2194
 -13479850.93447 -10498745.35245  22644574.5084                   22644572.9144
  21789934.74646  16975300.78543  24255304.6954                   24255307.7114
 -19445670.95748 -15976724.59446  21362871.3204                   21362869.6524
 -16579907.36747 -12918757.22345  22154774.0944                   22154772.2114
 11  7 26 19 34  0.0000000  0  8G24G07G13G19G28G23G08G11
  -8659867.41847  -6742321.73843  23571922.5164                   23571924.6454
 -17459947.15648 -13603253.84447  20414697.9844                   20414696.0394
   5017422.01247   3914238.96945  22129896.0164                   22129895.4614
  -4638116.91047  -3605899.91046  22146611.4064                   22146607.8094
 -13508250.98447 -10520875.23045  22639170.3054                   22639168.5864
  21913213.92645  17071362.27042  24278764.2664                   24278766.6564
 -19503574.00448 -16021843.83246  21351852.7504                   21351851.1684
 -16625752.81647 -12954480.87545  22146049.9144                   22146047.8364
 11  7 26 19 34 30.0000000  0  8G24G07G13G19G28G23G08G11
  -8725828.84847  -6793720.10244  23559370.9064                   23559372.9024
 -17471493.57848 -13612251.05147  20412500.6174                   20412498.8834
   5124532.98447   3997701.96145  22150278.5784                   22150277.9494
  -4551111.93848  -3538103.84445  22163167.8444                   22163163.9614
 -13536541.30147 -10542919.61345  22633786.7814                   22633784.8874
  22036464.02045  17167401.01642  24302217.1564                   24302221.8794
 -19561343.30948 -16066858.85246  21340859.5394                   21340857.4884
 -16671233.16847 -12989920.03145  22137394.9694                   22137392.9774
 11  7 26 19 35  0.0000000  0  9G17G24G07G13G19G28G23G08G11
  -4846106.97356  -3767988.00453  24671125.8284                   24671131.4144
  -8791711.61347  -6845057.14844  23546833.8054                   23546835.4804
 -17482720.40248 -13620999.22747  20410364.4614                   20410362.5864
   5231889.43447   4081356.23845  22170707.5784                   22170707.7074
  -4463755.83248  -3470034.16045  22179791.3054                   22179787.3014
 -13564726.10947 -10564881.75045  22628423.1334                   22628421.0124
  22159678.75446  17263412.23042  24325665.8134                   24325668.8914
 -19618980.02048 -16111770.56246  21329892.0394                   21329889.9264
 -16716349.43047 -13025075.47745  22128809.3204                   22128807.8484
 11  7 26 19 35 30.0000000  0  9G17G24G07G13G19G28G23G08G11
  -4943326.77046  -3843743.36743  24652625.0234                   24652631.7154
  -8857515.67647  -6896332.87944  23534312.0864                   23534313.7344
 -17493628.77048 -13629499.25047  20408288.5554                   20408286.3794
   5339485.48447   4165197.21545  22191183.0784                   22191182.3364
  -4376054.54748  -3401695.52745  22196480.2814                   22196476.4024
 -13592808.71147 -10586764.26645  22623078.6804                   22623077.9184
  22282852.53546  17359391.57443  24349105.7424                   24349108.4144
 -19676484.91448 -16156579.55146  21318948.7194                   21318947.6954
 -16761101.56248 -13059947.19945  22120293.6484                   22120291.7274
 11  7 26 19 36  0.0000000  0  9G17G24G07G13G19G28G23G08G11
  -5040494.55546  -3919458.15643  24634134.3364                   24634141.1334
  -8923248.46147  -6947553.08244  23521803.2734                   23521804.4184
 -17504227.78548 -13637758.21947  20406271.6174                   20406269.6054
   5447307.46947   4249214.24645  22211700.9924                   22211700.4654
  -4288021.43047  -3333098.33245  22213232.5084                   22213228.2894
 -13620801.01647 -10608576.42645  22617752.3444                   22617750.2344
  22405971.63746  17455328.27743  24372534.6484                   24372537.7464
 -19733866.47348 -16201292.42246  21308029.6414                   21308028.1214
 -16805497.63748 -13094541.49645  22111845.4844                   22111843.6214
 11  7 26 19 36 30.0000000  0  9G17G24G07G13G19G28G23G08G11
  -5137617.37146  -3995137.94543  24615653.0704                   24615659.3984
  -8988916.23447  -6998722.56644  23509307.2584                   23509308.4774
 -17514524.98448 -13645782.01247  20404312.3444                   20404309.7034
   5555342.86347   4333397.54745  22232259.4534                   22232258.5474
  -4199668.66848  -3264252.04345  22230045.3674                   22230040.9844
 -13648713.08647 -10630326.04345  22612441.0944                   22612439.0434
  22529024.27346  17551213.18443  24395950.9694                   24395953.7974
 -19791131.95748 -16245914.87146  21297132.2194                   21297130.5124
 -16849544.53547 -13128863.66445  22103463.6484                   22103461.1174
 11  7 26 19 37  0.0000000  0  9G17G24G07G13G19G28G23G08G11
  -5234688.32046  -4070777.27744  24597180.0314                   24597186.0634
  -9054510.80547  -7049835.04744  23496825.0554                   23496825.8444
 -17524513.39848 -13653565.17647  20402411.0084                   20402409.1024
   5663593.82047   4417748.81645  22252859.1334                   22252859.2814
  -4110993.98048  -3195154.88745  22246919.5314                   22246915.3634
 -13676540.63347 -10652009.79745  22607145.1804                   22607143.1804
  22652013.07046  17647048.36343  24419355.1414                   24419359.0824
 -19848274.00048 -16290441.12146  21286258.5234                   21286256.5004
 -16893234.36347 -13162907.61745  22095149.4844                   22095147.4144
 11  7 26 19 37 30.0000000  0  9G17G24G07G13G19G28G23G08G11
  -5331707.93046  -4146376.62944  24578718.0554                   24578723.8754
  -9120031.50447  -7100889.97344  23484355.7974                   23484357.9804
 -17534193.76648 -13661108.30147  20400569.2034                   20400567.3714
   5772054.87947   4502263.81645  22273498.4694                   22273497.9494
  -4022002.36347  -3125810.78945  22263854.0784                   22263850.2274
 -13704286.86347 -10673630.20745  22601865.3364                   22601863.0824
  22774933.16046  17742829.97744  24442746.9144                   24442749.6564
 -19905292.81248 -16334871.34846  21275408.0234                   21275406.4454
 -16936566.92647 -13196673.19545  22086903.2814                   22086901.9574
 11  7 26 19 38  0.0000000  0  9G17G24G07G13G19G28G23G08G11
  -5428665.68046  -4221927.73844  24560266.7034                   24560272.9654
  -9185467.15247  -7151878.60244  23471903.7584                   23471906.2154
 -17543556.13348 -13668403.64147  20398787.7114                   20398785.5044
   5880731.02347   4586946.42645  22294178.7584                   22294178.7704
  -3932688.70347  -3056215.74245  22280849.8284                   22280845.5124
 -13731944.59447 -10695181.65245  22596602.1724                   22596600.0124
  22897789.56646  17838561.98843  24466125.0474                   24466128.2664
 -19962178.37948 -16379197.74646  21264582.9774                   21264580.9964
 -16979531.55147 -13230152.05945  22078727.1334                   22078725.3284
 11  7 26 19 38 30.0000000  0  9G17G24G07G13G19G28G23G08G11
  -5525560.46147  -4297429.83244  24541828.4454                   24541834.3364
  -9250815.52347  -7202799.28144  23459468.2504                   23459470.4924
 -17552599.99248 -13675450.80947  20397066.7894                   20397064.2854
   5989618.38347   4671793.59045  22314899.2894                   22314899.1804
  -3843056.70347  -2986372.64845  22297906.7114                   22297902.4264
 -13759515.84047 -10716665.70345  22591355.4064                   22591353.3364
  23020578.28546  17934241.23043  24489491.1564                   24489494.4884
 -20018929.19948 -16423419.14846  21253784.1564                   21253781.9734
 -17022126.72747 -13263343.07445  22070621.6254                   22070620.1254
 11  7 26 19 39  0.0000000  0  8G17G24G07G13G19G28G08G11
  -5622391.37946  -4372882.14844  24523401.3054                   24523407.4184
  -9316074.56247  -7253650.30143  23447049.6254                   23447050.7774
 -17561324.56648 -13682249.18747  20395406.3754                   20395403.9104
   6098712.66447   4756801.99245  22335659.9454                   22335659.4884
  -3753109.98447  -2916284.30545  22315022.3594                   22315018.7544
 -13787002.08247 -10738083.51645  22586124.7894                   22586123.2034
 -20075543.90648 -16467534.48846  21243010.1804                   21243008.8244
 -17064350.73047 -13296244.81645  22062586.5784                   22062585.0664
